[[{"header":{"parameterUnit":"m.s-1","parameterCategory":1,"la1":30.6,"la2":28.766,"lo1":-90.7593,"lo2":-88.6598,"dy":0.0162,"dx":0.0183,"nx":116,"ny":114,"refTime":"2024-06-16T18:00:00:Z","depth":0,"parameterNumber":2,"parameterNumberName":"U-component_of_WINDS"},"data":[0.0,0.0,0.0,0.0,0.0,0.0,0.0,0.0,0.0,0.0,0.0,0.0,0.0,0.0,0.0,0.0,0.0,0.0,0.0,0.0,0.0,0.0,0.0,0.0,0.0,0.0,0.0,0.0,0.0,0.0,0.0,0.0,0.0,0.0,0.0,0.0,0.0,0.0,0.0,0.0,0.0,0.0,0.0,0.0,0.0,0.0,0.0,0.0,0.0,0.0,0.0,0.0,0.0,0.0,0.0,0.0,0.0,0.0,0.0,0.0,0.0,0.0,0.0,0.0,0.0,0.0,0.0,0.0,0.0,0.0,0.0,0.0,0.0,0.0,0.0,0.0,0.0,0.0,0.0,0.0,0.0,0.0,0.0,0.0,0.0,0.0,0.0,0.0,0.0,0.0,0.0,0.0,0.0,0.0,0.0,0.0,0.0,0.0,0.0,0.0,0.0,0.0,0.0,0.0,0.0,0.0,0.0,0.0,0.0,0.0,0.0,0.0,0.0,0.0,0.0,0.0,0.0,0.0,0.0,0.0,0.0,0.0,0.0,0.0,0.0,0.0,0.0,0.0,0.0,0.0,0.0,0.0,0.0,0.0,0.0,0.0,0.0,0.0,0.0,0.0,0.0,0.0,0.0,0.0,0.0,0.0,0.0,0.0,0.0,0.0,0.0,0.0,0.0,0.0,0.0,0.0,0.0,0.0,0.0,0.0,0.0,0.0,0.0,0.0,0.0,0.0,0.0,0.0,0.0,0.0,0.0,0.0,0.0,0.0,0.0,0.0,0.0,0.0,0.0,0.0,0.0,0.0,0.0,0.0,0.0,0.0,0.0,0.0,0.0,0.0,0.0,0.0,0.0,0.0,0.0,0.0,0.0,0.0,0.0,0.0,0.0,0.0,0.0,0.0,0.0,0.0,0.0,0.0,0.0,0.0,0.0,0.0,0.0,0.0,0.0,0.0,0.0,0.0,0.0,0.0,0.0,0.0,0.0,0.0,0.0,0.0,0.0,0.0,0.0,0.0,0.0,0.0,0.0,0.0,0.0,0.0,0.0,0.0,0.0,0.0,0.0,0.0,0.0,0.0,0.0,0.0,0.0,0.0,0.0,0.0,0.0,0.0,0.0,0.0,0.0,0.0,0.0,0.0,0.0,0.0,0.0,0.0,0.0,0.0,0.0,0.0,0.0,0.0,0.0,0.0,0.0,0.0,0.0,0.0,0.0,0.0,0.0,0.0,0.0,0.0,0.0,0.0,0.0,0.0,0.0,0.0,0.0,0.0,0.0,0.0,0.0,0.0,0.0,0.0,0.0,0.0,0.0,0.0,0.0,0.0,0.0,0.0,0.0,0.0,0.0,0.0,0.0,0.0,0.0,0.0,0.0,0.0,0.0,0.0,0.0,0.0,0.0,0.0,0.0,0.0,0.0,0.0,0.0,0.0,0.0,0.0,0.0,0.0,0.0,0.0,0.0,0.0,0.0,0.0,0.0,0.0,0.0,0.0,0.0,0.0,0.0,0.0,0.0,0.0,0.0,0.0,0.0,0.0,0.0,0.0,0.0,0.0,0.0,0.0,0.0,0.0,0.0,0.0,0.0,0.0,0.0,0.0,0.0,0.0,0.0,0.0,0.0,0.0,0.0,0.0,0.0,0.0,0.0,0.0,0.0,0.0,0.0,0.0,0.0,0.0,0.0,0.0,0.0,0.0,0.0,0.0,0.0,0.0,0.0,0.0,0.0,0.0,0.0,0.0,0.0,0.0,0.0,0.0,0.0,0.0,0.0,0.0,0.0,0.0,0.0,0.0,0.0,0.0,0.0,0.0,0.0,0.0,0.0,0.0,0.0,0.0,0.0,0.0,0.0,0.0,0.0,0.0,0.0,0.0,0.0,0.0,0.0,0.0,0.0,0.0,0.0,0.0,0.0,0.0,0.0,0.0,0.0,0.0,0.0,0.0,0.0,0.0,0.0,0.0,0.0,0.0,0.0,0.0,0.0,0.0,0.0,0.0,0.0,0.0,0.0,0.0,0.0,0.0,0.0,0.0,0.0,0.0,0.0,0.0,0.0,0.0,0.0,0.0,0.0,0.0,0.0,0.0,0.0,0.0,0.0,0.0,0.0,0.0,0.0,0.0,0.0,0.0,0.0,0.0,0.0,0.0,0.0,0.0,0.0,0.0,0.0,0.0,0.0,0.0,0.0,0.0,0.0,0.0,0.0,0.0,0.0,0.0,0.0,0.0,0.0,0.0,0.0,0.0,0.0,0.0,0.0,0.0,0.0,0.0,0.0,0.0,0.0,0.0,0.0,0.0,0.0,0.0,0.0,0.0,0.0,0.0,0.0,0.0,0.0,0.0,0.0,0.0,0.0,0.0,0.0,0.0,0.0,0.0,0.0,0.0,0.0,0.0,0.0,0.0,0.0,0.0,0.0,0.0,0.0,0.0,0.0,0.0,0.0,0.0,0.0,0.0,0.0,0.0,0.0,0.0,0.0,0.0,0.0,0.0,0.0,0.0,0.0,0.0,0.0,0.0,0.0,0.0,0.0,0.0,0.0,0.0,0.0,0.0,0.0,0.0,0.0,0.0,0.0,0.0,0.0,0.0,0.0,0.0,0.0,0.0,0.0,0.0,0.0,0.0,0.0,0.0,0.0,0.0,0.0,0.0,0.0,0.0,0.0,0.0,0.0,0.0,0.0,0.0,0.0,0.0,0.0,0.0,0.0,0.0,0.0,0.0,0.0,0.0,0.0,0.0,0.0,0.0,0.0,0.0,0.0,0.0,0.0,0.0,0.0,0.0,0.0,0.0,0.0,0.0,0.0,0.0,0.0,0.0,0.0,0.0,0.0,0.0,0.0,0.0,0.0,0.0,0.0,0.0,0.0,0.0,0.0,0.0,0.0,0.0,0.0,0.0,0.0,0.0,0.0,0.0,0.0,0.0,0.0,0.0,0.0,0.0,0.0,0.0,0.0,0.0,0.0,0.0,0.0,0.0,0.0,0.0,0.0,0.0,0.0,0.0,0.0,0.0,0.0,0.0,0.0,0.0,0.0,0.0,0.0,0.0,0.0,0.0,0.0,0.0,0.0,0.0,0.0,0.0,0.0,0.0,0.0,0.0,0.0,0.0,0.0,0.0,0.0,0.0,0.0,0.0,0.0,0.0,0.0,0.0,0.0,0.0,0.0,0.0,0.0,0.0,0.0,0.0,0.0,0.0,0.0,0.0,0.0,0.0,0.0,0.0,0.0,0.0,0.0,0.0,0.0,0.0,0.0,0.0,0.0,0.0,0.0,0.0,0.0,0.0,0.0,0.0,0.0,0.0,0.0,0.0,0.0,0.0,0.0,0.0,0.0,0.0,0.0,0.0,0.0,0.0,0.0,0.0,0.0,0.0,0.0,0.0,0.0,0.0,0.0,0.0,0.0,0.0,0.0,0.0,0.0,0.0,0.0,0.0,0.0,0.0,0.0,0.0,0.0,0.0,0.0,0.0,0.0,0.0,0.0,0.0,0.0,0.0,0.0,0.0,0.0,0.0,0.0,0.0,0.0,0.0,0.0,0.0,0.0,0.0,0.0,0.0,0.0,0.0,0.0,0.0,0.0,0.0,0.0,0.0,0.0,0.0,0.0,0.0,0.0,0.0,0.0,0.0,0.0,0.0,0.0,0.0,0.0,0.0,0.0,0.0,0.0,0.0,0.0,0.0,0.0,0.0,0.0,0.0,0.0,0.0,0.0,0.0,0.0,0.0,0.0,0.0,0.0,0.0,0.0,0.0,0.0,0.0,0.0,0.0,0.0,0.0,0.0,0.0,0.0,0.0,0.0,0.0,0.0,0.0,0.0,0.0,0.0,0.0,0.0,0.0,0.0,0.0,0.0,0.0,0.0,0.0,0.0,0.0,0.0,0.0,0.0,0.0,0.0,0.0,0.0,0.0,0.0,0.0,0.0,0.0,0.0,0.0,0.0,0.0,0.0,0.0,0.0,0.0,0.0,0.0,0.0,0.0,0.0,0.0,0.0,0.0,0.0,0.0,0.0,0.0,0.0,0.0,0.0,0.0,0.0,0.0,0.0,0.0,0.0,0.0,0.0,0.0,0.0,0.0,0.0,0.0,0.0,0.0,0.0,0.0,0.0,0.0,0.0,0.0,0.0,0.0,0.0,0.0,0.0,0.0,0.0,0.0,0.0,0.0,0.0,0.0,0.0,0.0,0.0,0.0,0.0,0.0,0.0,0.0,0.0,0.0,0.0,0.0,0.0,0.0,0.0,0.0,0.0,0.0,0.0,0.0,0.0,0.0,0.0,0.0,0.0,0.0,0.0,0.0,0.0,0.0,0.0,0.0,0.0,0.0,0.0,0.0,0.0,0.0,0.0,0.0,0.0,0.0,0.0,0.0,0.0,0.0,0.0,0.0,0.0,0.0,0.0,0.0,0.0,0.0,0.0,0.0,0.0,0.0,0.0,0.0,0.0,0.0,0.0,0.0,0.0,0.0,0.0,0.0,0.0,0.0,0.0,0.0,0.0,0.0,0.0,0.0,0.0,0.0,0.0,0.0,0.0,0.0,0.0,0.0,0.0,0.0,0.0,0.0,0.0,0.0,0.0,0.0,0.0,0.0,0.0,0.0,0.0,0.0,0.0,0.0,0.0,0.0,0.0,0.0,0.0,0.0,0.0,0.0,0.0,0.0,0.0,0.0,0.0,0.0,0.0,0.0,0.0,0.0,0.0,0.0,0.0,0.0,0.0,0.0,0.0,0.0,0.0,0.0,0.0,0.0,0.0,0.0,0.0,0.0,0.0,0.0,0.0,0.0,0.0,0.0,0.0,0.0,0.0,0.0,0.0,0.0,0.0,0.0,0.0,0.0,0.0,0.0,0.0,0.0,0.0,0.0,0.0,0.0,0.0,0.0,0.0,0.0,0.0,0.0,0.0,0.0,0.0,0.0,0.0,0.0,0.0,0.0,0.0,0.0,0.0,0.0,0.0,0.0,0.0,0.0,0.0,0.0,0.0,0.0,0.0,0.0,0.0,0.0,0.0,0.0,0.0,0.0,0.0,0.0,0.0,0.0,0.0,0.0,0.0,0.0,0.0,0.0,0.0,0.0,0.0,0.0,0.0,0.0,0.0,0.0,0.0,0.0,0.0,0.0,0.0,0.0,0.0,0.0,0.0,0.0,0.0,0.0,0.0,0.0,0.0,0.0,0.0,0.0,0.0,0.0,0.0,0.0,0.0,0.0,0.0,0.0,0.0,0.0,0.0,0.0,0.0,0.0,0.0,0.0,0.0,0.0,0.0,0.0,0.0,0.0,0.0,0.0,0.0,0.0,0.0,0.0,0.0,0.0,0.0,0.0,0.0,0.0,0.0,0.0,0.0,0.0,0.0,0.0,0.0,0.0,0.0,0.0,0.0,0.0,0.0,0.0,0.0,0.0,0.0,0.0,0.0,0.0,0.0,0.0,0.0,0.0,0.0,0.0,0.0,0.0,0.0,0.0,0.0,0.0,0.0,0.0,0.0,0.0,0.0,0.0,0.0,0.0,0.0,0.0,0.0,0.0,0.0,0.0,0.0,0.0,0.0,0.0,0.0,0.0,0.0,0.0,0.0,0.0,0.0,0.0,0.0,0.0,0.0,0.0,0.0,0.0,0.0,0.0,0.0,0.0,0.0,0.0,0.0,0.0,0.0,0.0,0.0,0.0,0.0,0.0,0.0,0.0,0.0,0.0,0.0,0.0,0.0,0.0,0.0,0.0,0.0,0.0,0.0,0.0,0.0,0.0,0.0,0.0,0.0,0.0,0.0,0.0,0.0,0.0,0.0,0.0,0.0,0.0,0.0,0.0,0.0,0.0,0.0,0.0,0.0,0.0,0.0,0.0,0.0,0.0,0.0,0.0,0.0,0.0,0.0,0.0,0.0,0.0,0.0,0.0,0.0,0.0,0.0,0.0,0.0,0.0,0.0,0.0,0.0,0.0,0.0,0.0,0.0,0.0,0.0,0.0,0.0,0.0,0.0,0.0,0.0,0.0,0.0,0.0,0.0,0.0,0.0,0.0,0.0,0.0,0.0,0.0,0.0,0.0,0.0,0.0,0.0,0.0,0.0,0.0,0.0,0.0,0.0,0.0,-3.3511,-3.414,0.0,0.0,0.0,0.0,0.0,0.0,0.0,0.0,0.0,0.0,0.0,0.0,0.0,0.0,0.0,0.0,0.0,0.0,0.0,0.0,0.0,0.0,0.0,-1.8227,-1.8851,-1.9531,-1.9785,-2.0,-2.0215,-2.0671,-2.0509,-1.9646,-1.9946,-1.9755,-1.8899,-1.9641,-2.007,-2.007,-2.0997,-2.1094,-2.0381,-2.057,-2.1098,-2.187,0.0,0.0,0.0,0.0,0.0,0.0,0.0,0.0,0.0,0.0,0.0,0.0,0.0,0.0,0.0,0.0,0.0,0.0,0.0,0.0,0.0,0.0,0.0,0.0,0.0,0.0,0.0,0.0,0.0,0.0,0.0,0.0,0.0,0.0,0.0,0.0,0.0,0.0,0.0,0.0,0.0,0.0,0.0,0.0,0.0,0.0,0.0,0.0,0.0,0.0,0.0,0.0,0.0,0.0,0.0,0.0,0.0,0.0,0.0,0.0,0.0,0.0,0.0,0.0,0.0,0.0,0.0,0.0,0.0,0.0,-3.2826,-3.3302,0.0,0.0,0.0,0.0,0.0,0.0,0.0,0.0,0.0,0.0,0.0,0.0,0.0,0.0,0.0,0.0,0.0,0.0,0.0,0.0,0.0,-1.6491,-1.7127,-1.7943,-1.8882,-1.9806,-1.998,-2.0176,-2.0586,-2.0605,-2.041,-1.9941,-1.9922,-1.9707,-1.9297,-1.971,-1.9912,-1.9912,-2.0216,-2.0131,-1.9683,-1.91,-1.99,-2.1834,-2.1367,0.0,0.0,0.0,0.0,0.0,0.0,0.0,0.0,0.0,0.0,0.0,0.0,0.0,0.0,0.0,0.0,0.0,0.0,0.0,0.0,0.0,0.0,0.0,0.0,0.0,0.0,0.0,0.0,0.0,0.0,0.0,0.0,0.0,0.0,0.0,0.0,0.0,0.0,0.0,0.0,0.0,0.0,0.0,0.0,0.0,0.0,0.0,0.0,0.0,0.0,0.0,0.0,0.0,0.0,0.0,0.0,0.0,0.0,0.0,0.0,0.0,0.0,0.0,-3.3578,-3.3712,-3.3712,-3.3712,-3.3463,-3.2947,-3.179,-3.2147,-3.3491,-3.2107,0.0,0.0,0.0,0.0,0.0,0.0,0.0,0.0,0.0,0.0,0.0,0.0,0.0,0.0,0.0,0.0,0.0,0.0,0.0,-1.4926,-1.6127,-1.7293,-1.8527,-1.9788,-2.0254,-2.0546,-2.0605,-2.0605,-2.041,-1.9941,-1.9922,-1.9707,-1.9297,-1.971,-1.9912,-1.9912,-1.9619,-1.9555,-1.9674,-1.8912,-1.91,-2.0044,-1.9976,-2.0257,-2.0837,0.0,0.0,0.0,0.0,0.0,0.0,0.0,0.0,0.0,0.0,0.0,0.0,0.0,0.0,0.0,0.0,0.0,0.0,0.0,0.0,0.0,0.0,0.0,0.0,0.0,0.0,0.0,0.0,0.0,0.0,0.0,0.0,0.0,0.0,0.0,0.0,0.0,0.0,0.0,0.0,0.0,-2.776,-2.7938,0.0,0.0,0.0,0.0,0.0,0.0,0.0,0.0,0.0,0.0,0.0,0.0,0.0,-3.06,-3.1006,-3.1006,-3.1029,-3.1145,-3.23,-3.2883,-3.2883,-3.2883,-3.2789,-3.2671,-3.1342,0.0,-3.3131,-3.2382,0.0,0.0,0.0,0.0,0.0,0.0,0.0,0.0,0.0,0.0,0.0,0.0,0.0,0.0,0.0,0.0,0.0,0.0,0.0,0.0,0.0,-1.6155,-1.7051,-1.7852,-1.8125,-1.8592,-1.9351,-1.9409,-1.9678,-2.0273,-2.0273,-2.0195,-2.0038,-1.9736,-1.9314,-1.8845,-1.8644,-1.8609,-1.8733,-1.8393,-1.8393,-1.8733,-1.8733,-1.9425,-2.06,-2.0723,0.0,0.0,0.0,0.0,0.0,0.0,0.0,0.0,0.0,0.0,0.0,0.0,0.0,0.0,0.0,0.0,0.0,0.0,0.0,0.0,0.0,0.0,0.0,0.0,0.0,0.0,0.0,0.0,0.0,0.0,0.0,0.0,0.0,0.0,0.0,0.0,0.0,0.0,0.0,-2.6241,-2.6564,-2.7525,-2.7852,-2.8366,0.0,0.0,0.0,0.0,0.0,0.0,0.0,0.0,0.0,-3.0396,-3.0396,-3.0507,-3.073,-3.073,-3.0864,-3.118,-3.1715,-3.2004,-3.2004,-3.2004,-3.1844,-3.1544,-3.0971,-3.0944,-3.1311,-3.1076,-3.0817,-3.0579,0.0,0.0,0.0,0.0,-2.9549,-2.8528,0.0,0.0,0.0,0.0,0.0,0.0,0.0,0.0,0.0,0.0,0.0,0.0,-1.4286,-1.502,-1.5651,-1.6213,-1.6351,-1.6839,-1.7914,-1.8059,-1.8565,-1.9617,-1.973,-1.9827,-2.0004,-1.944,-1.875,-1.8008,-1.8008,-1.8008,-1.8008,-1.8008,-1.8008,-1.8008,-1.8008,-1.8731,-1.9944,-2.0171,-1.9752,-1.902,0.0,0.0,0.0,0.0,0.0,0.0,0.0,0.0,0.0,0.0,0.0,0.0,0.0,0.0,0.0,0.0,0.0,0.0,0.0,0.0,0.0,0.0,0.0,0.0,0.0,0.0,0.0,0.0,0.0,0.0,0.0,0.0,0.0,0.0,0.0,0.0,0.0,-2.5605,-2.5853,-2.6962,-2.7212,-2.773,0.0,0.0,0.0,0.0,0.0,0.0,-2.9697,-3.0158,-3.0291,-3.0076,-3.0184,-3.0313,-3.0443,-3.0313,-3.0421,-3.0817,-3.1112,-3.1196,-3.1196,-3.1196,-3.0998,-3.057,-3.0225,-2.9845,-2.944,-2.9847,-2.9751,-2.9396,-2.9396,-2.9149,-2.8858,-2.9261,-2.8654,-2.7653,0.0,0.0,0.0,0.0,0.0,0.0,0.0,0.0,0.0,0.0,0.0,-1.2382,-1.3259,-1.4024,-1.4828,-1.5753,-1.618,-1.6417,-1.651,-1.6807,-1.7008,-1.7064,-1.7353,-1.7769,-1.8398,-1.8558,-1.8422,-1.8008,-1.8008,-1.8008,-1.8008,-1.8008,-1.8008,-1.8008,-1.8008,-1.8042,-1.8178,-1.9011,-1.9048,-1.867,-2.0297,0.0,0.0,0.0,0.0,0.0,0.0,0.0,0.0,0.0,0.0,0.0,0.0,0.0,0.0,0.0,0.0,0.0,0.0,0.0,0.0,0.0,0.0,0.0,0.0,0.0,0.0,0.0,0.0,0.0,0.0,0.0,0.0,0.0,0.0,0.0,0.0,0.0,0.0,-2.583,-2.7505,0.0,0.0,0.0,0.0,-3.0641,-3.0663,-3.0154,-2.895,-2.9291,-2.9209,-2.8416,-2.8775,-2.9168,-2.9656,-2.9242,-2.8991,-2.9046,-2.9919,-3.039,-3.039,-3.039,-3.0369,-3.0244,-2.8978,-2.8199,-2.7934,-2.9413,-2.9751,-2.9396,-2.9396,-2.9396,-2.9373,-2.9396,-2.8659,-2.761,0.0,0.0,0.0,-0.9652,-0.9288,-0.9128,-0.9684,-0.9982,-1.0354,-1.0929,-1.1538,-1.2041,-1.236,-1.2795,-1.3181,-1.3513,-1.3674,-1.4171,-1.5059,-1.5222,-1.5701,-1.6525,-1.689,-1.7102,-1.7259,-1.6959,-1.6992,-1.7363,-1.7174,-1.7389,-1.8008,-1.8008,-1.8008,-1.8008,-1.8008,-1.813,-1.8418,-1.871,-1.8748,-1.8676,-1.9776,-1.9598,0.0,0.0,0.0,0.0,0.0,0.0,0.0,0.0,0.0,0.0,0.0,0.0,0.0,0.0,0.0,0.0,0.0,0.0,0.0,0.0,0.0,0.0,0.0,0.0,0.0,0.0,0.0,0.0,0.0,0.0,0.0,0.0,0.0,0.0,0.0,0.0,0.0,-2.6172,-2.7042,0.0,-2.7432,-2.7984,-2.8439,-2.8747,-2.9014,-2.9042,-2.8873,-2.9313,-2.9416,-2.9176,-2.9258,-2.9414,-2.9626,-2.9414,-2.9336,-2.9336,-2.9357,-2.9407,-2.9407,-2.9126,-2.9006,-2.9006,-2.8495,-2.8047,-2.7741,-2.831,-2.807,-2.7462,-2.7462,-2.7277,-2.703,-2.703,-2.6744,-2.638,-0.8742,-0.8388,0.0,-0.8742,-0.8388,-0.8194,-0.8775,-0.9119,-0.9536,-1.011,-1.069,-1.113,-1.1493,-1.1696,-1.1922,-1.2268,-1.2305,-1.2718,-1.3621,-1.3812,-1.4305,-1.5273,-1.5928,-1.6261,-1.6158,-1.5875,-1.5993,-1.652,-1.6263,-1.6437,-1.7044,-1.7044,-1.7217,-1.7545,-1.7662,-1.8142,-1.8867,-1.8968,-1.8948,-1.8919,-1.9745,-1.9548,-1.8865,0.0,0.0,0.0,0.0,0.0,0.0,0.0,0.0,0.0,0.0,0.0,0.0,0.0,0.0,0.0,0.0,0.0,0.0,0.0,0.0,0.0,0.0,0.0,0.0,0.0,0.0,0.0,0.0,0.0,0.0,0.0,0.0,0.0,0.0,-2.6269,-2.6758,-2.6621,-2.7226,-2.7598,-2.7461,-2.7715,-2.8008,-2.8335,-2.8574,-2.8848,-2.9121,-2.9551,-2.9785,-2.9785,-2.9941,-3.0019,-3.0019,-2.9863,-2.9785,-2.9785,-2.9336,-2.9141,-2.9121,-2.8691,-2.8496,-2.8496,-2.8359,-2.8125,-2.7871,-2.7871,-2.7461,-2.6797,-2.6504,-2.6211,-2.5937,-2.5752,-2.5693,-2.5693,-0.7957,-0.7934,-0.7924,-0.7957,-0.7924,-0.7934,-0.7967,-0.8307,-0.8564,-0.8599,-0.9018,-0.9669,-1.0634,-1.0746,-1.1168,-1.2107,-1.2231,-1.2194,-1.2194,-1.2534,-1.2879,-1.32,-1.4377,-1.5057,-1.5072,-1.5377,-1.5532,-1.5569,-1.5317,-1.5171,-1.519,-1.519,-1.5702,-1.6594,-1.6973,-1.7933,-1.9263,-1.9615,-1.9576,-1.9316,-2.0237,-2.0093,-1.9426,0.0,0.0,0.0,0.0,0.0,0.0,0.0,0.0,0.0,0.0,0.0,0.0,0.0,0.0,0.0,0.0,0.0,0.0,0.0,0.0,0.0,0.0,0.0,0.0,0.0,0.0,0.0,0.0,0.0,0.0,0.0,0.0,0.0,-2.5937,-2.7078,-2.7467,-2.7109,-2.8164,-2.8769,-2.8379,-2.9082,-2.9626,-2.9646,-2.9646,-2.9646,-2.9665,-3.0,-3.0215,-3.0215,-3.0644,-3.0898,-3.0898,-3.0449,-3.0215,-3.0215,-2.9785,-2.9646,-2.957,-2.9141,-2.8945,-2.8906,-2.8496,-2.832,-2.832,-2.8301,-2.8047,-2.765,-2.6758,-2.6406,-2.6328,-2.5869,-2.5693,-2.5693,-0.6915,-0.6564,-0.6309,-0.6948,-0.6531,-0.6349,-0.7109,-0.7476,-0.7931,-0.8656,-0.9072,-0.9405,-0.9669,-0.9707,-0.982,-1.0083,-1.0121,-1.016,-1.0247,-1.0959,-1.1916,-1.3147,-1.3558,-1.3925,-1.4365,-1.4038,-1.4181,-1.4881,-1.4598,-1.473,-1.519,-1.519,-1.5446,-1.5878,-1.5979,-1.6533,-1.7415,-1.7519,-1.7657,-1.8027,-1.987,-2.0482,-2.0253,0.0,0.0,0.0,0.0,0.0,0.0,0.0,0.0,0.0,0.0,0.0,0.0,0.0,0.0,0.0,0.0,0.0,0.0,0.0,0.0,0.0,0.0,0.0,0.0,0.0,0.0,0.0,0.0,0.0,0.0,0.0,-2.3373,-2.3448,-2.5024,-2.5687,-2.6517,-2.7805,-2.8516,-2.9004,-2.9199,-2.9489,-2.9687,-3.0,-3.0019,-3.0176,-3.0508,-3.0644,-3.0703,-3.0703,-3.082,-3.0898,-3.0898,-3.0762,-3.0703,-3.0703,-3.0234,-3.0019,-3.0,-2.959,-2.9394,-2.9375,-2.8926,-2.875,-2.873,-2.8418,-2.8223,-2.8066,-2.7519,-2.6934,-2.6367,-2.625,-2.6016,-2.5693,-0.6046,-0.5749,-0.5557,-0.6071,-0.5774,-0.5684,-0.6283,-0.6569,-0.6973,-0.7547,-0.7886,-0.8199,-0.8618,-0.8609,-0.874,-0.9253,-0.9301,-0.9344,-0.9477,-1.0176,-1.1169,-1.2584,-1.2751,-1.3226,-1.4082,-1.3627,-1.3627,-1.4197,-1.3924,-1.3986,-1.4342,-1.4342,-1.4673,-1.5182,-1.5415,-1.5931,-1.6711,-1.6858,-1.7096,-1.7415,-1.87,-1.9234,-1.9213,-1.9377,-1.9451,-1.9472,-1.9816,-2.0146,-2.0396,-2.0663,0.0,0.0,0.0,0.0,0.0,0.0,0.0,0.0,0.0,0.0,0.0,0.0,0.0,0.0,0.0,0.0,0.0,0.0,0.0,0.0,0.0,0.0,0.0,0.0,-2.1985,-2.1899,-2.3393,-2.4979,-2.6372,-2.7521,-2.8696,-2.9551,-2.9805,-3.0019,-3.0215,-3.0469,-3.0644,-3.0859,-3.1133,-3.1328,-3.1348,-3.1152,-3.1152,-3.1074,-3.0898,-3.0898,-3.0528,-2.9844,-2.9579,-2.9079,-2.8476,-2.8726,-2.8842,-2.888,-2.9097,-2.9082,-2.8906,-2.8652,-2.8114,-2.74,0.0,0.0,0.0,0.0,-2.5908,-2.5693,-0.5392,-0.5392,-0.5392,-0.5392,-0.5521,-0.5596,-0.561,-0.5847,-0.6,-0.6013,-0.6173,-0.6641,-0.7518,-0.7476,-0.7779,-0.8865,-0.898,-0.9077,-0.9321,-0.9782,-1.0554,-1.1656,-1.1982,-1.2601,-1.3688,-1.34,-1.3257,-1.3218,-1.3093,-1.3041,-1.3002,-1.3134,-1.3648,-1.4526,-1.4924,-1.5593,-1.642,-1.6798,-1.6927,-1.6927,-1.6927,-1.7123,-1.7392,-1.7729,-1.7894,-1.8128,-1.9382,-1.9905,-2.011,-2.1183,0.0,0.0,0.0,0.0,0.0,0.0,0.0,0.0,0.0,0.0,0.0,0.0,0.0,0.0,0.0,0.0,0.0,0.0,0.0,0.0,0.0,0.0,0.0,0.0,-1.9906,-1.9699,-2.1525,-2.4408,-2.6335,-2.6504,-2.8388,-2.968,-2.9719,-3.0141,-3.041,-3.041,-3.0913,-3.1283,-3.1283,-3.1893,0.0,0.0,0.0,-3.103,-3.0428,-3.0428,-2.9702,-2.8182,-2.8182,-2.7426,-2.6029,-2.7103,-2.761,-2.7651,-2.8653,-2.8874,-2.8471,-2.8432,-2.7361,-2.5955,-2.6842,-2.6916,-2.6436,-2.5599,-2.5371,-2.543,-0.5392,-0.5392,-0.5392,-0.5392,-0.5521,-0.563,-0.5745,-0.5915,-0.6071,-0.6238,-0.6279,-0.6377,-0.6563,-0.6535,-0.6605,-0.6872,-0.6984,-0.7445,-0.8382,-0.8878,-0.9576,-1.0501,-1.0793,-1.1037,-1.1262,-1.1209,-1.1059,-1.0867,-1.1734,-1.2054,-1.185,-1.2764,-1.3413,-1.379,-1.3886,-1.4173,-1.4615,-1.4671,-1.4699,-1.4699,-1.4699,-1.6001,-1.7896,-1.8176,-1.8506,-1.8858,-1.8996,-1.9301,-1.9592,-1.9438,-1.9329,-1.9261,-1.9261,-1.9015,0.0,0.0,0.0,0.0,0.0,0.0,0.0,0.0,0.0,0.0,0.0,0.0,0.0,0.0,0.0,0.0,0.0,0.0,0.0,-2.1296,-2.052,-2.0073,-2.0482,-2.2422,-2.4249,-2.5402,-2.5949,-2.6389,-2.6816,-2.7115,-2.7276,-2.7276,-2.8888,-2.9861,-2.9861,-3.1359,-3.1482,-2.9941,-2.9861,-2.9145,-2.7707,-2.7645,-2.7351,-2.6784,-2.6784,0.0,-2.6029,-2.6265,-2.6352,-2.6335,-2.6202,-2.5946,-2.5645,-2.5338,-2.4828,-2.4233,-2.4153,-2.3832,-2.3493,-2.2997,-2.3366,-2.3949,-0.5494,-0.5508,-0.5508,-0.5508,-0.5657,-0.5833,-0.5908,-0.6044,-0.6173,-0.6286,-0.63,-0.63,-0.63,-0.6193,-0.6179,-0.6293,-0.6532,-0.7007,-0.775,-0.8011,-0.8589,-0.9618,-0.9705,-1.0009,-1.0605,-1.0605,-1.0512,-1.0401,-1.0953,-1.1195,-1.1075,-1.1626,-1.1987,-1.2104,-1.2703,-1.3029,-1.3252,-1.3828,-1.4175,-1.4309,-1.4309,-1.519,-1.6517,-1.6638,-1.6846,-1.716,-1.7947,-1.8392,-1.8656,-1.9011,-1.9126,-1.9126,-1.9126,-1.9081,-1.9036,0.0,0.0,0.0,0.0,0.0,0.0,0.0,0.0,0.0,0.0,0.0,0.0,0.0,0.0,-1.9596,-1.9906,0.0,-2.0639,-2.0794,-2.0446,-2.0281,-2.0428,-2.1299,-2.2471,-2.4018,-2.5064,-2.5792,-2.6154,-2.6335,-2.6471,-2.6668,-2.7773,-2.8501,-2.8501,-2.958,-2.9679,-2.8564,-2.8501,-2.7972,-2.69,-2.69,-2.6358,-2.5407,-2.5235,-2.4702,-2.3798,-2.4487,-2.4778,-2.4824,-2.5424,-2.5331,-2.4804,-2.3461,-2.2859,-2.263,-2.1647,-2.1985,-2.2893,-2.2314,-2.2466,-2.2774,-0.5562,-0.561,-0.563,-0.563,-0.5854,-0.5993,-0.5993,-0.6159,-0.63,-0.63,-0.6327,-0.634,-0.634,-0.622,-0.622,-0.6416,-0.6749,-0.7082,-0.7398,-0.7446,-0.7865,-0.8762,-0.8723,-0.9084,-1.0001,-1.0045,-1.0045,-1.0045,-1.0255,-1.0343,-1.0343,-1.0606,-1.0693,-1.0737,-1.1652,-1.2086,-1.2129,-1.3102,-1.3771,-1.4195,-1.4195,-1.4515,-1.5022,-1.5075,-1.5089,-1.5291,-1.6797,-1.7326,-1.7498,-1.8442,-1.8764,-1.8764,-1.8764,-1.8956,-1.9178,-1.9178,-1.9431,0.0,0.0,0.0,0.0,0.0,0.0,0.0,0.0,-1.7809,-1.8076,-1.8557,-1.8931,-1.9252,-1.9492,-1.9773,-2.0054,-2.0281,-2.0361,-2.0481,-2.0722,-2.0762,-2.1259,-2.2661,-2.4224,-2.5214,-2.5438,-2.5581,-2.5723,-2.6024,-2.668,-2.7084,-2.7084,-2.7818,-2.7835,-2.7149,-2.7084,-2.6809,-2.615,-2.615,-2.5409,-2.3985,-2.3802,-2.2986,-2.1614,-2.2743,-2.3197,-2.3201,-2.4454,-2.4607,-2.3869,-2.1987,-2.1189,-2.1031,-1.9866,-2.0672,-2.2395,-2.1707,-2.1549,-2.1651,-0.5562,-0.5691,-0.5779,-0.5779,-0.5915,-0.5993,-0.5993,-0.6159,-0.63,-0.63,-0.6409,-0.6491,-0.6491,-0.6552,-0.6688,-0.6844,-0.697,-0.719,-0.7405,-0.7495,-0.7624,-0.7757,-0.7743,-0.7823,-0.7916,-0.7916,-0.7916,-0.7916,-0.8969,-0.9468,-0.9468,-1.0562,-1.1055,-1.1055,-1.1192,-1.1237,-1.1237,-1.1374,-1.2122,-1.3152,-1.3152,-1.391,-1.5035,-1.5244,-1.5351,-1.5391,-1.5853,-1.6008,-1.6008,-1.615,-1.6197,-1.6197,-1.6197,-1.645,-1.6697,-1.6697,-1.6903,-1.7086,-1.695,-1.7089,-1.736,-1.7474,-1.7689,-1.7862,0.0,-1.8597,-1.9243,-1.931,-1.9706,-2.0094,-2.0134,-2.0374,-2.0588,-2.0615,-2.0842,-2.1015,-2.1056,-2.1069,-2.1226,-2.1737,-2.1984,-2.2075,-2.2103,-2.2597,-2.2846,-2.2887,-2.4692,-2.5725,-2.5725,-2.7288,-2.7421,-2.5792,-2.5725,-2.4987,-2.3365,-2.3365,-2.3093,-2.2633,-2.2592,-2.2242,-2.1614,-2.1767,-2.1669,-2.1398,-2.1327,-2.1074,-2.067,-2.0164,-1.9879,-1.9649,-1.9475,-1.9577,-1.9784,-1.9384,-1.973,-2.0121,-0.5671,-0.5759,-0.5861,-0.6074,-0.6118,-0.6166,-0.6166,-0.5707,-0.5589,-0.6222,-0.5263,-0.5015,-0.6351,-0.6607,-0.6763,-0.6869,-0.7143,-0.7339,-0.7495,-0.7645,-0.7726,-0.7726,-0.7645,-0.7597,-0.7597,-0.7597,-0.7597,-0.7597,-0.8059,-0.8286,-0.8333,-0.8839,-0.9072,-0.9072,-0.976,-1.0029,-1.0075,-1.0813,-1.1482,-1.2117,-1.2117,-1.2576,-1.3202,-1.3305,-1.3862,-1.4644,-1.5494,-1.5784,0.0,-1.5784,-1.5784,-1.5784,-1.5784,-1.6032,-1.6348,-1.6473,-1.674,-1.7058,-1.7168,-1.7301,-1.7475,-1.7782,-1.7902,-1.8089,-1.8422,-1.8971,-1.9412,-1.9586,-2.008,-2.0494,-2.0494,-2.0869,-2.1253,-2.1253,-2.143,-2.1617,-2.1617,-2.147,-2.1416,-2.1601,-2.1762,-2.1871,-2.2044,-2.2271,-2.2485,-2.2659,-2.3528,-2.3992,-2.3992,-2.4723,-2.4791,-2.3992,-2.3992,-2.3665,-2.2928,-2.2928,-2.2806,-2.2672,-2.2498,-2.2205,-2.1804,-2.1695,-2.139,-2.1096,-2.0802,-2.0508,-2.0153,-1.992,-1.9626,-1.943,-1.943,-1.943,-1.939,-1.9038,-1.9095,-1.925,-0.5745,-0.58,-0.5901,-0.6245,-0.63,-0.6183,-0.5906,-0.5196,-0.4885,-0.5356,-0.409,-0.3814,-0.5523,-0.5781,-0.5874,-0.5973,-0.6256,-0.6589,-0.7067,-0.7238,-0.7479,-0.7826,-0.7773,-0.7719,-0.7719,-0.7719,-0.7719,-0.7719,-0.7719,-0.774,-0.7787,-0.7787,-0.7807,-0.789,-0.8698,-0.9076,-0.9124,-0.9966,-1.0639,-1.1154,-1.1096,-1.1414,-1.1901,-1.1901,-1.2474,-1.3536,-1.4806,-1.5486,-1.5784,-1.5784,-1.5784,-1.5784,-1.5784,-1.6032,-1.6326,-1.662,-1.6967,-1.7367,-1.7528,-1.7582,-1.7662,-1.7916,-1.8049,-1.8249,-1.8811,-1.9212,-1.9573,-1.9867,-2.0321,-2.0695,-2.0775,-2.1203,-2.1614,-2.1614,-2.1804,-2.1991,-2.1991,-2.1802,-2.1681,-2.1777,-2.1911,-2.2124,-2.2498,-2.2539,-2.2632,-2.2846,-2.2928,-2.2928,-2.2928,-2.2928,-2.2928,-2.2928,-2.2928,-2.2928,-2.2928,-2.2928,-2.2928,-2.2928,-2.2645,-2.2338,-2.1977,-2.1603,-2.1309,-2.1096,-2.0882,-2.0628,-2.0334,-2.004,-1.9746,-1.9479,-1.9457,-1.943,-1.9345,-1.9132,-1.8998,-1.8865,-0.5745,-0.58,-0.5901,-0.6245,-0.63,-0.5944,-0.4924,-0.4724,-0.4336,-0.332,-0.3255,-0.3401,-0.3677,-0.3694,-0.3698,-0.3698,-0.3846,-0.4458,-0.5784,-0.5997,-0.6625,-0.7932,-0.7982,-0.7975,-0.7975,-0.7975,-0.7975,-0.7975,-0.7975,-0.8106,-0.8299,-0.8299,-0.8323,-0.8459,-0.8504,-0.8504,-0.8497,-0.8412,-0.9099,-1.023,-1.0111,-1.0769,-1.1901,-1.1901,-1.195,-1.2145,-1.3488,-1.4758,-1.5784,-1.5784,-1.5784,-1.5784,-1.5784,-1.6032,-1.6326,-1.662,-1.7114,-1.7569,-1.7582,-1.7582,-1.7662,-1.7916,-1.8263,-1.8557,-1.8851,-1.9372,-1.9867,-2.016,-2.0468,-2.0762,-2.1042,-2.1349,-2.1614,-2.1614,-2.1804,-2.1991,-2.1991,-2.1802,-2.1764,-2.2325,-2.2151,-2.2218,-2.2861,-2.2846,-2.2914,-2.2928,-2.2928,-2.2928,-2.2928,-2.2928,-2.2928,-2.2928,-2.2928,-2.2928,-2.2928,-2.2928,-2.2928,-2.2928,-2.2928,-2.2539,-2.1964,-2.139,-2.1122,-2.1109,-2.1096,-2.0935,-2.0641,-2.0347,-2.0054,-1.976,-1.9479,-1.943,-1.943,-1.9417,-1.9172,-1.8918,-0.5745,-0.58,-0.5901,-0.6245,-0.63,-0.5944,-0.4885,-0.4098,-0.3495,-0.315,-0.3247,0.0,0.0,0.0,0.0,0.0,-0.3709,-0.3975,-0.4454,-0.4619,-0.486,-0.5318,-0.5368,-0.5349,-0.5366,-0.6337,-0.689,-0.6872,-0.7859,-0.8357,-0.8411,-0.8411,-0.8438,-0.8479,-0.8479,-0.8479,-0.8479,-0.8431,-0.8664,-0.9065,-0.9013,-0.9188,-0.9501,-0.9611,-1.0062,-1.0699,0.0,-1.2209,-1.321,-1.321,-1.321,-1.3377,-1.4473,-1.4887,-1.5048,-1.5452,-1.5845,-1.6115,-1.6115,-1.6869,-1.7662,-1.7916,-1.8263,-1.8571,-1.8865,-1.9372,-1.9826,-1.992,-2.0174,-2.0468,-2.0775,-2.1229,-2.1681,-2.1804,-2.2245,-2.2565,-2.2565,-2.2311,-2.2205,-2.2392,-2.2338,-2.2352,-2.2552,-2.2752,-2.2928,-2.2928,-2.2928,-2.2928,-2.2928,-2.2928,-2.2928,-2.2928,-2.2928,-2.2928,-2.2928,-2.2928,-2.2928,-2.2928,-2.2659,-2.2365,-2.1977,-2.1577,-2.1296,-2.1109,-2.1109,-2.0949,-2.0668,-2.0575,-2.0241,-1.9786,-1.9693,-1.9533,-1.943,-1.943,-1.9305,-1.9185,-0.5833,-0.5928,-0.6081,-0.6334,-0.6375,0.0,0.0,0.0,0.0,0.0,0.0,0.0,0.0,0.0,0.0,0.0,0.0,-0.2641,-0.3146,-0.3229,-0.3488,-0.3976,-0.4004,-0.3987,-0.3984,-0.4955,-0.5462,-0.5457,-0.698,-0.7713,-0.7812,-0.8348,-0.8594,-0.8648,-0.8648,-0.8648,-0.8642,-0.8587,-0.856,-0.856,-0.8506,-0.8425,-0.8357,-0.8445,-0.8925,0.0,-0.9568,-1.0036,-1.082,-1.1609,-1.1952,-1.218,-1.3215,-1.3629,-1.383,-1.4153,-1.442,-1.4663,-1.4663,-1.537,-1.6135,-1.6417,-1.7084,-1.7751,-1.8032,-1.8932,-1.9679,-1.9773,-1.9947,-2.0201,-2.0601,-2.1069,-2.1523,-2.1924,-2.2392,-2.2739,-2.2846,-2.2605,-2.2458,-2.2565,-2.2485,-2.2458,-2.2565,-2.2752,-2.2928,-2.2928,-2.2928,-2.2928,-2.2928,-2.2928,-2.2928,-2.2928,-2.2928,-2.2928,-2.2928,-2.2928,-2.2928,-2.2859,-2.2458,-2.2164,-2.1977,-2.1577,-2.1296,-2.1109,-2.1109,-2.1002,-2.0828,-2.0722,-2.0454,-2.0094,-1.988,-1.9679,-1.9506,-1.947,-1.943,-1.9345,-0.5973,-0.6159,-0.634,0.0,0.0,0.0,0.0,0.0,0.0,0.0,0.0,0.0,0.0,0.0,0.0,0.0,0.0,0.0,-0.1801,-0.1913,-0.2442,-0.3717,-0.3781,-0.3817,-0.377,-0.3874,-0.3964,-0.4037,-0.5592,-0.6432,-0.6645,-0.8069,-0.8798,-0.8885,-0.8885,-0.8885,-0.8871,-0.8784,-0.8723,-0.871,-0.8567,-0.8499,-0.8492,-0.8506,-0.8499,-0.8486,-0.8492,-0.8486,-0.8848,-1.0983,-1.1924,-1.2154,-1.2154,-1.2392,-1.2687,-1.2687,-1.2943,-1.321,-1.321,-1.3264,-1.3369,-1.3637,-1.4922,-1.6245,-1.6492,-1.7885,-1.9264,-1.9601,-1.9654,-1.9887,-2.0521,-2.0895,-2.1296,-2.1871,-2.2231,-2.2539,-2.2887,-2.2619,-2.2539,-2.2832,-2.2619,-2.2552,-2.2832,-2.2928,-2.2928,-2.2928,-2.2928,-2.2928,-2.2928,-2.2928,-2.2928,-2.2928,-2.2928,-2.2928,-2.2928,-2.2928,-2.2928,-2.2928,-2.2285,-2.2004,-2.1964,-2.139,-2.1122,-2.1109,-2.1109,-2.1109,-2.1082,-2.0815,-2.0695,-2.0615,-2.004,-1.9813,-1.976,-1.9479,-1.943,-1.943,0.0,0.0,0.0,0.0,0.0,0.0,0.0,0.0,0.0,0.0,0.0,0.0,0.0,0.0,0.0,0.0,0.0,0.0,-0.0508,-0.0521,-0.0676,-0.1029,-0.0998,-0.1015,-0.1029,-0.2082,-0.3223,-0.4354,-0.5877,-0.7204,-0.8268,-0.8659,-0.8844,-0.8885,-0.8885,-0.8885,-0.8885,-0.8844,-0.8824,-0.8824,-0.8838,-0.8757,-0.8662,-0.8777,-0.8682,-0.8499,-0.8615,-0.8581,-0.8577,-0.9161,-1.0223,-1.1255,-1.1255,-1.1372,-1.1521,-1.1521,-1.1611,-1.1647,-1.1647,-1.2453,-1.3339,-1.3389,-1.3971,-1.4509,-1.4629,-1.5246,-1.6161,-1.7468,-1.7728,-1.8193,-1.9767,-2.0615,-2.1229,-2.1668,-2.2271,-2.2779,-2.2914,-2.2792,-2.2779,-2.2928,-2.2792,-2.2779,-2.2928,-2.2928,-2.2928,-2.2928,-2.2928,-2.2928,-2.2928,-2.2928,-2.2928,-2.2928,-2.2928,-2.2928,-2.2928,-2.2928,-2.2928,-2.2928,-2.2485,-2.2191,-2.1977,-2.1603,-2.1323,-2.1109,-2.1109,-2.1109,-2.1096,-2.1029,-2.0869,-2.0641,-2.0267,-1.9987,-1.976,-1.9479,-1.943,-1.943,0.0,0.0,0.0,0.0,0.0,0.0,0.0,0.0,0.0,0.0,0.0,0.0,0.0,0.0,0.0,0.0,0.0,0.0,0.0,-0.1707,-0.1736,-0.1692,-0.1737,-0.1468,-0.0871,-0.2342,-0.3163,-0.3409,-0.5619,-0.7067,-0.7841,-0.8575,-0.8851,-0.8838,-0.8838,-0.8838,-0.8838,-0.8838,-0.8824,0.0,0.0,-0.8831,-0.8818,-0.8851,-0.8832,-0.8696,-0.8777,-0.8757,-0.8682,-0.8682,-0.9226,-0.9938,-1.0016,-1.0054,-1.0131,-1.0131,-1.0131,-1.0131,-1.0131,-1.0726,-1.1374,-1.1374,-1.2099,-1.2833,-1.2833,-1.4239,-1.5795,-1.6739,-1.7533,-1.8433,-1.9555,-2.0307,-2.0909,-2.1521,-2.2137,-2.2565,-2.2887,-2.2928,-2.2928,-2.2928,-2.2928,-2.2928,-2.2928,-2.2928,-2.2928,-2.2928,-2.2928,-2.2928,-2.2928,-2.2928,-2.2928,-2.2928,-2.2928,-2.2928,-2.2928,-2.2928,-2.2928,-2.2928,-2.2565,-2.2271,-2.1977,-2.1748,-2.139,-2.1109,-2.1109,-2.1109,-2.1109,-2.1109,-2.1015,-2.0842,-2.0548,-2.0334,-2.0134,-1.9706,-1.9559,-1.9546,0.0,0.0,0.0,0.0,0.0,0.0,0.0,0.0,0.0,-0.4026,-0.3964,-0.4047,-0.4043,-0.4062,0.0,0.0,0.0,0.0,0.0,0.0,-0.393,-0.3816,-0.3942,-0.3466,-0.2314,-0.3531,-0.3666,-0.2585,-0.5284,-0.6673,-0.6781,-0.8211,-0.8804,-0.8682,-0.8682,-0.8689,-0.871,-0.871,-0.8798,-0.8885,-0.8885,-0.8885,-0.8885,0.0,-0.8885,-0.8885,-0.8885,-0.8885,-0.8885,-0.8885,-0.8797,-0.8764,-0.8844,-0.8885,-0.8885,-0.8885,-0.8885,-0.8885,-0.8885,-0.8885,-0.8892,-0.8905,-1.0054,-1.122,-1.1245,-1.3705,-1.6058,-1.6161,-1.77,-1.9095,-1.9384,-1.992,-2.0561,-2.1427,-2.1804,-2.2231,-2.2847,-2.2928,-2.2928,-2.2928,-2.2928,-2.2928,-2.2928,-2.2928,-2.2928,-2.2928,-2.2928,-2.2928,-2.2928,-2.2928,-2.2928,-2.2928,-2.2928,-2.2928,-2.2928,-2.2928,-2.2928,-2.2928,-2.2565,-2.2271,-2.1977,-2.1748,-2.139,-2.1109,-2.1109,-2.1109,-2.1109,-2.1109,-2.1109,-2.1082,-2.0788,-2.0681,-2.0615,-2.0054,-1.9826,-1.976,0.0,0.0,0.0,0.0,0.0,0.0,0.0,0.0,-0.6591,-0.6312,-0.6418,-0.6165,-0.538,-0.5371,0.0,0.0,0.0,0.0,0.0,0.0,0.0,-0.3988,-0.397,-0.3917,-0.3667,-0.3885,-0.4541,-0.5569,-0.6113,-0.6976,-0.815,-0.8441,-0.8547,-0.852,-0.852,-0.8594,-0.871,-0.871,-0.8798,-0.8885,-0.8885,-0.8885,-0.8885,-0.8885,-0.8885,0.0,-0.8885,-0.8885,-0.8885,-0.8885,-0.8865,-0.8851,-0.8871,-0.8885,-0.8885,-0.8885,-0.8885,-0.8885,-0.8885,-0.8885,-0.8967,-0.9089,-0.9356,-0.9631,-0.9709,-1.1142,-1.2484,-1.2772,-1.504,-1.7074,-1.7408,-1.921,-2.0735,-2.1122,-2.1844,-2.2458,-2.2887,-2.2928,-2.2928,-2.2928,-2.2928,-2.2928,-2.2928,-2.2928,-2.2928,-2.2928,-2.2928,-2.2928,-2.2928,-2.2928,-2.2928,-2.2928,-2.2928,-2.2928,-2.2928,-2.2928,-2.2928,-2.2928,-2.2565,-2.2271,-2.1977,-2.1748,-2.139,-2.1109,-2.1109,-2.1109,-2.1109,-2.1109,-2.1109,-2.1082,-2.0788,-2.0681,-2.0641,-2.0281,-2.0,-1.9786,0.0,0.0,0.0,0.0,0.0,0.0,0.0,-0.66,-0.6756,-0.6869,-0.7122,-0.7092,-0.6682,-0.6762,-0.6624,0.0,0.0,0.0,0.0,0.0,0.0,-0.5961,-0.6064,-0.5772,-0.5072,-0.5882,-0.6349,-0.6292,0.0,-0.7933,-0.8486,-0.8648,-0.8635,-0.8479,-0.8479,-0.852,-0.8587,-0.8513,-0.8615,-0.8818,-0.8818,-0.8811,-0.8885,-0.8885,-0.8885,0.0,-0.8885,-0.8885,-0.8885,-0.8885,-0.8885,-0.8885,-0.8885,-0.8885,-0.8885,-0.8885,-0.8885,-0.8885,-0.8885,-0.8994,-0.9069,-0.9193,-0.9207,-0.9228,-0.9303,-1.1005,-1.2522,-1.1983,-1.4347,-1.6599,-1.6915,-1.8117,-1.9417,-2.0677,-2.1363,-2.1951,-2.2539,-2.2632,-2.2686,-2.2914,-2.2928,-2.2928,-2.2928,-2.2928,-2.2928,-2.2928,-2.2928,-2.2928,-2.2928,-2.2928,-2.2928,-2.2928,-2.2928,-2.2928,-2.2928,-2.2928,-2.2928,-2.2928,-2.2712,-2.2418,-2.1977,-2.1844,-2.1537,-2.1109,-2.1109,-2.1109,-2.1109,-2.1109,-2.1109,-2.1096,-2.0962,-2.0895,-2.0869,-2.0575,-2.0374,-2.0214,0.0,0.0,0.0,0.0,0.0,0.0,-0.6532,-0.662,-0.6763,-0.691,-0.7238,-0.7468,-0.759,-0.7726,-0.7875,0.0,0.0,0.0,0.0,0.0,0.0,0.0,-0.7928,-0.7553,-0.652,0.0,0.0,-0.6798,-0.8119,0.0,0.0,0.0,0.0,0.0,-0.8452,-0.8452,-0.8472,-0.8364,-0.8472,0.0,0.0,-0.8832,-0.8885,0.0,0.0,0.0,0.0,-0.8885,-0.8885,-0.8885,-0.8885,-0.8885,-0.8885,-0.8885,-0.8885,-0.8885,-0.8905,-0.8988,-0.8988,-0.9089,-0.9268,-0.9303,-0.9262,-0.9221,-0.9255,-1.1293,-1.2823,-1.1568,-1.3816,-1.6021,-1.5965,-1.6459,-1.7586,-1.9807,-2.0459,-2.1096,-2.2231,-2.2472,-2.2605,-2.2901,-2.2928,-2.2928,-2.2928,-2.2928,-2.2928,-2.2928,-2.2928,-2.2928,-2.2928,-2.2928,-2.2928,-2.2928,-2.2928,-2.2928,-2.2928,-2.2928,-2.2928,-2.2928,-2.2928,-2.2552,-2.1991,-2.1991,-2.167,-2.1109,-2.1109,-2.1109,-2.1109,-2.1109,-2.1109,-2.1046,-2.0716,-2.0526,-2.05,-2.0341,-2.0211,-2.0094,0.0,0.0,0.0,0.0,0.0,0.0,-0.6634,-0.6695,-0.6803,-0.7038,-0.7387,-0.7584,-0.7597,-0.7726,-0.7875,0.0,0.0,0.0,0.0,0.0,0.0,0.0,0.0,0.0,0.0,0.0,0.0,-0.8302,-0.8453,0.0,0.0,0.0,0.0,0.0,0.0,-0.8364,-0.8479,-0.8465,0.0,0.0,0.0,0.0,0.0,0.0,0.0,0.0,0.0,-0.8885,-0.8885,-0.8885,-0.8885,-0.8885,-0.8885,-0.8885,-0.8885,-0.8885,-0.9028,-0.9187,-0.9187,-0.9303,-0.9395,-0.953,-0.9361,-0.9248,-0.9327,-1.0486,-1.1149,-0.986,-1.2209,-1.4034,-1.2833,-1.4058,-1.5932,-1.8155,-1.8996,-2.0063,-2.2124,-2.2645,-2.2901,-2.2928,-2.2928,-2.2928,-2.2928,-2.2928,-2.2928,-2.2928,-2.2928,-2.2928,-2.2928,-2.2928,-2.2928,-2.2928,-2.2928,-2.2928,-2.2928,-2.2928,-2.2928,-2.2928,-2.2928,-2.2552,-2.1991,-2.1991,-2.167,-2.1109,-2.1109,-2.1109,-2.1109,-2.1109,-2.1109,-2.0919,-1.9355,-1.8768,-1.8768,-1.8744,-1.8514,-1.8527,0.0,0.0,0.0,0.0,0.0,0.0,-0.8594,-0.8041,-0.7762,-0.8146,-0.7779,-0.7495,-0.759,-0.7726,-0.7875,-0.7975,0.0,0.0,0.0,0.0,0.0,0.0,0.0,0.0,0.0,0.0,-0.856,-0.8621,-0.871,0.0,0.0,0.0,0.0,0.0,0.0,-0.8567,-0.8615,-0.852,0.0,0.0,0.0,0.0,0.0,0.0,0.0,0.0,0.0,0.0,-0.8885,-0.8885,-0.8885,-0.8885,-0.8885,-0.8885,-0.8885,-0.8885,-0.9042,-0.9207,-0.9207,-0.9334,-0.9537,-0.9591,-0.9449,-0.9306,-0.9367,-1.0387,-1.0924,-0.9694,-1.1171,-1.2637,-1.2303,-1.281,-1.4023,-1.6115,-1.7554,-1.8888,-2.0179,-2.154,-2.2405,-2.2579,-2.2752,-2.2928,-2.2928,-2.2928,-2.2928,-2.2928,-2.2928,-2.2928,-2.2928,-2.2928,-2.2928,-2.2928,-2.2928,-2.2928,-2.2928,-2.2928,-2.2928,-2.2928,-2.2928,-2.2645,-2.2245,-2.2071,-2.1764,-2.1363,-2.1189,-2.1109,-2.1109,-2.1109,-2.0462,-1.9483,-1.8768,-1.7859,-1.6947,-1.6947,-1.6894,-1.6966,0.0,0.0,0.0,0.0,0.0,-0.9514,-0.9837,-0.9305,-0.9001,-0.9489,-0.8951,-0.8498,-0.8251,-0.8364,-0.8378,-0.8092,-0.8015,0.0,0.0,0.0,0.0,0.0,0.0,0.0,0.0,0.0,-0.8946,-0.9421,-0.9475,-0.9475,0.0,0.0,-0.9906,-0.9414,0.0,0.0,0.0,0.0,0.0,0.0,0.0,0.0,0.0,0.0,0.0,0.0,0.0,0.0,0.0,0.0,0.0,-0.8885,-0.8885,-0.8885,-0.8885,-0.8885,-0.9069,-0.9275,-0.9275,-0.9442,-0.9673,-0.9673,-0.9557,-0.9449,-0.9449,-1.0163,-1.0563,-0.9655,-1.0384,-1.1292,-1.1479,-1.1542,-1.222,-1.4266,-1.5732,-1.7185,-1.8912,-2.0435,-2.1671,-2.2444,-2.2659,-2.2561,-2.2147,-2.2091,-2.2297,-2.2859,-2.2928,-2.2928,-2.2928,-2.2928,-2.2928,-2.2928,-2.2928,-2.2928,-2.2928,-2.2928,-2.2928,-2.2859,-2.2366,-2.1897,-2.1456,-2.0718,-2.0232,-1.9896,-1.9633,-1.9546,-1.9546,-1.9546,-1.8832,-1.7667,-1.7141,-1.6237,-1.5135,-1.5135,-1.5135,-1.5365,0.0,0.0,0.0,0.0,0.0,-0.9735,-0.9868,-1.0172,-1.0561,-1.1011,-1.1187,-1.09,-0.988,-0.9883,-0.9532,-0.8408,-0.8126,0.0,0.0,0.0,0.0,0.0,0.0,0.0,0.0,0.0,-0.9475,-1.1101,-1.1109,-1.1109,-1.1101,-1.2561,-1.2453,-1.1147,0.0,0.0,0.0,0.0,0.0,0.0,0.0,0.0,-0.8885,0.0,0.0,0.0,0.0,0.0,0.0,0.0,0.0,0.0,0.0,-0.8885,-0.8885,-0.8885,-0.915,-0.9381,-0.9381,-0.9591,-0.9822,-0.9822,-0.9713,-0.9605,-0.9605,-0.9605,-0.9605,-0.9605,-0.972,-0.9815,-0.9822,-0.9944,-1.0648,-1.2624,-1.3264,-1.4941,-1.8861,-1.9634,-2.0576,-2.2682,-2.2605,-2.1781,-2.0316,-2.0132,-2.0894,-2.2791,-2.2928,-2.2928,-2.2928,-2.2928,-2.2928,-2.2928,-2.2928,-2.2928,-2.2928,-2.2928,-2.2928,-2.2859,-2.1032,-1.9849,-1.9342,-1.7534,-1.6404,-1.5988,-1.5978,-1.5978,-1.5978,-1.5978,-1.5913,-1.5784,-1.4036,-1.3325,-1.3325,-1.3325,-1.3325,-1.3552,0.0,0.0,0.0,0.0,0.0,0.0,-1.2144,-1.1741,-1.1618,-1.2201,-1.1685,-1.1225,-1.1114,-1.1231,-1.1255,-1.1112,-0.933,0.0,0.0,0.0,0.0,0.0,0.0,0.0,0.0,-1.1746,-1.2062,-1.2615,-1.2615,-1.2615,-1.2615,-1.3102,-1.3048,-1.2615,-1.3032,-1.3207,0.0,0.0,0.0,0.0,-1.2054,-1.1919,-1.1919,0.0,0.0,0.0,0.0,0.0,0.0,0.0,0.0,0.0,0.0,0.0,0.0,-0.8885,-0.9076,-0.9282,-0.9282,-0.9367,-0.9517,-0.9517,-0.949,-0.9456,-0.9456,-0.9537,-0.9612,-0.9612,-0.972,-0.9822,-0.9822,-0.9883,-1.0252,-1.114,-1.2458,-1.3906,-1.5364,-1.6831,-1.7966,-1.8661,-1.883,-1.8641,-1.8159,-1.8089,-1.8369,-1.8938,-1.8997,-1.8997,-1.8997,-1.8997,-2.019,-2.2791,-2.2928,-2.2297,-2.0963,-2.0963,-2.034,-1.9008,-1.8369,-1.7999,-1.7759,-1.6922,-1.6496,-1.6201,-1.5984,-1.5913,-1.5913,-1.5913,-1.52,-1.4101,-1.3521,-1.2545,-1.1505,-1.1505,-1.1505,-1.1754,0.0,0.0,0.0,0.0,0.0,0.0,-1.332,-1.2987,-1.2898,-1.3374,-1.3001,-1.2619,-1.2386,-1.2528,-1.2601,-1.2475,-1.0935,0.0,0.0,0.0,0.0,0.0,0.0,0.0,-1.3095,-1.3247,-1.3534,-1.4073,-1.4073,-1.4073,-1.4126,-1.4663,-1.4609,-1.4126,-1.4663,-1.4931,0.0,0.0,0.0,0.0,-1.3534,-1.3318,-1.3318,0.0,0.0,0.0,0.0,0.0,0.0,0.0,0.0,0.0,0.0,0.0,0.0,0.0,-0.9001,-0.9083,-0.9193,-0.9323,-0.9395,-0.9456,-0.9469,-0.9483,-0.9537,-0.9618,-0.9686,-0.9686,-0.9761,-0.9822,-0.9822,-0.9992,-1.0195,-1.0385,-1.1489,-1.2664,-1.3755,-1.4928,-1.599,-1.6756,-1.6409,-1.6375,-1.6987,-1.6496,-1.6404,-1.7178,-1.7178,-1.7178,-1.7178,-1.7167,-1.8239,-2.0598,-2.0695,-2.019,-1.9008,-1.9008,-1.8369,-1.7178,-1.6467,-1.5965,-1.5824,-1.4878,-1.441,-1.4214,-1.4024,-1.397,0.0,-1.397,-1.3325,-1.2347,-1.2347,-1.163,-1.0717,-1.0717,-1.0717,-1.085,0.0,0.0,0.0,0.0,0.0,0.0,0.0,-1.3881,-1.4162,-1.4482,-1.4776,-1.465,-1.3647,-1.3862,-1.3742,-1.2965,-1.2905,0.0,0.0,0.0,0.0,0.0,0.0,0.0,-1.3578,-1.3588,-1.4234,-1.5583,-1.5583,-1.5583,-1.5583,-1.6988,-1.6882,-1.5636,-1.6988,-1.7582,0.0,0.0,0.0,0.0,-1.4126,-1.3588,0.0,0.0,0.0,0.0,0.0,0.0,0.0,0.0,0.0,0.0,0.0,0.0,0.0,0.0,0.0,0.0,0.0,-0.9353,-0.9381,-0.9523,-0.9578,-0.9625,-0.9761,-0.9802,0.0,-0.9822,-0.9822,-0.9822,-0.9836,-1.008,-1.029,-1.031,-1.0555,-1.1428,-1.3491,-1.3831,-1.4448,-1.6215,-1.5087,-1.478,-1.6254,-1.5096,-1.4929,-1.6685,-1.6836,-1.6836,-1.6836,-1.6688,-1.657,-1.657,-1.6688,-1.6857,-1.6997,-1.6997,-1.6927,-1.6787,-1.4911,-1.3897,-1.3721,-1.175,-1.0799,-1.0717,-1.0717,-1.0717,-1.0717,-1.0717,-1.0717,-1.0717,-1.0717,-1.0717,-1.0717,-1.0717,-1.0717,-1.0717,0.0,0.0,0.0,0.0,0.0,0.0,0.0,0.0,0.0,0.0,-1.4776,-1.498,-1.4936,-1.5175,-1.5467,0.0,0.0,0.0,0.0,0.0,0.0,0.0,0.0,0.0,-1.6605,-1.6605,-1.6776,-1.7094,-1.7094,-1.7094,-1.7094,-1.7424,-1.7424,-1.7094,-1.7477,-1.7582,0.0,0.0,0.0,0.0,-1.6711,-1.6605,0.0,0.0,0.0,0.0,-1.6605,-1.5849,0.0,0.0,0.0,0.0,0.0,0.0,0.0,0.0,-1.1483,-1.057,-1.061,0.0,-0.9049,-0.9033,-0.9266,-0.9442,0.0,-0.9659,-0.9822,-0.9822,-0.9822,-0.9856,-0.9909,-1.0148,-1.0351,-1.0582,-1.0772,-1.109,-1.175,-1.1949,-1.2226,-1.2742,-1.2516,-1.238,-1.2764,-1.2516,-1.2466,-1.2888,-1.2888,-1.2888,-1.2888,-1.2801,-1.271,-1.271,-1.2619,-1.3327,-1.4767,-1.4767,-1.4009,-1.2573,-1.212,-1.1819,-1.16,-1.1097,-1.0799,-1.0717,-1.0717,-1.0717,-1.0717,-1.0717,-1.0717,-1.0717,-1.0717,-1.0717,-1.0717,-1.0717,-1.0717,-1.0717,0.0,0.0,0.0,0.0,0.0,0.0,0.0,0.0,0.0,0.0,-1.4776,-1.5115,-1.5364,-1.5658,-1.6024,0.0,0.0,0.0,0.0,0.0,0.0,0.0,0.0,-1.734,-1.7569,-1.7582,-1.7582,-1.7582,-1.7582,-1.7582,-1.7582,-1.7582,-1.7582,-1.7582,-1.7582,-1.7582,0.0,0.0,-1.7582,-1.7582,-1.7582,0.0,0.0,0.0,0.0,0.0,-1.7582,-1.7094,0.0,-1.5636,-1.4877,-1.4126,0.0,0.0,0.0,0.0,-1.1265,-1.0076,-1.0076,-0.9584,-0.9055,-0.9123,-0.9313,-0.9503,-0.9564,-0.9707,-0.9822,-0.9822,-0.9822,-0.9842,-0.9869,-1.0127,-1.0331,-1.0493,-1.0704,-1.0894,-1.1043,-1.1253,-1.1423,-1.1504,-1.1579,-1.1619,-1.1619,-1.1619,-1.1619,-1.1619,-1.1619,-1.1592,-1.1518,-1.1369,-1.1253,-1.1192,-1.1043,-1.1561,-1.2727,-1.2727,-1.2185,-1.1234,-1.1097,-1.1056,-1.1043,-1.0914,-1.0941,-1.0921,-1.0853,-1.0759,-1.0819,-1.0751,-1.0717,-1.0717,-1.0717,-1.0717,-1.0717,-1.0717,-1.0717,-1.0717,0.0,0.0,0.0,0.0,0.0,0.0,0.0,0.0,0.0,0.0,0.0,0.0,0.0,0.0,0.0,0.0,0.0,0.0,0.0,0.0,0.0,0.0,-1.7393,-1.738,-1.7582,-1.7582,-1.7582,-1.7582,-1.7582,-1.7582,-1.7582,-1.7582,-1.7582,-1.7582,-1.7582,-1.7582,-1.7582,-1.7582,-1.7582,-1.7582,-1.7582,0.0,0.0,0.0,0.0,0.0,0.0,0.0,0.0,-1.6168,-1.5743,-1.5476,-1.4073,0.0,0.0,0.0,0.0,0.0,-0.9238,-0.9244,-0.9268,-0.932,-0.9483,-0.9639,-0.9761,-0.9802,-0.9822,-0.9822,-0.9822,-0.9836,-0.9883,-1.0107,-1.0297,-1.0337,-1.0555,-1.0772,-1.086,-1.1165,-1.1328,-1.1355,-1.147,-1.1552,-1.1552,-1.1552,-1.1552,-1.1552,-1.1552,-1.1491,-1.1362,-1.1212,-1.1077,-1.0887,-1.0799,-1.0839,-1.109,-1.1097,-1.1097,-1.109,-1.0975,-1.0989,-1.1124,-1.1002,-1.1029,-1.1158,-1.1036,-1.09,-1.0873,-1.0806,-1.0744,-1.0717,-1.0717,-1.0717,-1.0717,-1.0717,-1.0717,-1.0717,0.0,0.0,0.0,0.0,0.0,0.0,0.0,0.0,0.0,0.0,0.0,0.0,0.0,0.0,0.0,0.0,0.0,0.0,0.0,0.0,0.0,-1.7582,-1.7542,-1.7542,-1.7582,-1.7582,-1.7582,-1.7582,-1.7582,-1.7582,-1.7582,-1.7582,-1.7582,-1.7582,-1.7582,-1.7582,-1.7582,-1.7582,-1.7582,-1.7582,-1.7582,0.0,0.0,0.0,0.0,0.0,0.0,0.0,0.0,-1.7358,-1.7252,-1.6988,-1.553,0.0,0.0,0.0,0.0,0.0,-1.0906,-1.0186,-0.932,-0.9268,-0.9401,-0.9612,-0.9639,-0.9734,-0.9822,-0.9822,-0.9822,-0.9903,-1.0161,-1.0249,-1.0365,-1.0616,-1.069,-1.0772,-1.086,-1.0921,-1.1063,-1.1185,-1.1219,-1.1233,-1.1233,-1.1233,-1.1233,-1.1233,-1.1233,-1.1219,-1.1199,-1.1063,-1.09,-1.088,-1.0799,-1.0744,-1.0785,-1.0785,-1.0785,-1.0785,-1.0765,-1.0833,-1.0982,-1.0894,-1.1029,-1.1227,-1.1138,-1.1063,-1.088,-1.0853,-1.0772,-1.0717,-1.0717,-1.0717,-1.0717,-1.0717,-1.0717,-1.0717,0.0,0.0,0.0,0.0,0.0,0.0,0.0,0.0,0.0,0.0,0.0,0.0,0.0,0.0,0.0,0.0,0.0,0.0,0.0,0.0,-1.7582,-1.7582,-1.7582,-1.7582,-1.7582,-1.7582,-1.7582,-1.7582,-1.7582,-1.7582,-1.7582,-1.7582,-1.7582,-1.7582,-1.7582,-1.7582,-1.7582,-1.7582,-1.7582,-1.7582,0.0,0.0,0.0,0.0,0.0,0.0,0.0,0.0,0.0,0.0,-1.7094,-1.6446,-1.6552,0.0,0.0,0.0,0.0,0.0,-1.0224,-0.971,-0.9361,-0.935,-0.9564,-0.9829,-0.9741,-0.9836,-0.9862,-0.9836,-0.9822,-0.989,-1.0114,-1.0222,-1.0378,-1.067,-1.0717,-1.0744,-1.0745,-1.0826,-1.0907,-1.1036,-1.1118,-1.1234,-1.1234,-1.1234,-1.1234,-1.1234,-1.1234,-1.1131,-1.105,-1.0914,-1.084,-1.0759,-1.0758,-1.0717,-1.0717,-1.0717,-1.0765,-1.0846,-1.0846,-1.0968,-1.1185,-1.1185,-1.1267,-1.1402,-1.1321,-1.1199,-1.1056,-1.0914,-1.0793,-1.0717,-1.0717,-1.0717,-1.0717,-1.0717,-1.0717,-1.0717,0.0,0.0,0.0,0.0,0.0,0.0,0.0,0.0,0.0,0.0,0.0,0.0,0.0,0.0,0.0,0.0,0.0,0.0,0.0,-1.7542,-1.7582,-1.7582,-1.7582,-1.7555,-1.7527,-1.7527,-1.7527,-1.7527,-1.7527,-1.7515,-1.7582,-1.7582,-1.7582,-1.7582,-1.7582,-1.7582,-1.7582,-1.7582,-1.7582,-1.7582,0.0,0.0,0.0,0.0,0.0,0.0,0.0,0.0,0.0,0.0,0.0,0.0,0.0,0.0,0.0,-1.2344,-1.1483,-1.0359,-0.9252,-0.9157,-0.9334,-0.9374,-0.9666,-0.9869,-0.9883,-0.9876,-0.9909,-0.989,-0.9876,-0.9924,-1.0011,-1.0256,-1.046,-1.0683,-1.0717,-1.0717,-1.0717,-1.0819,-1.0826,-1.0826,-1.0995,-1.1056,-1.1056,-1.1056,-1.1056,-1.1056,-1.1056,-1.1009,-1.0833,-1.0826,-1.0839,-1.0724,-1.0717,-1.0717,-1.0717,-1.0717,-1.0778,-1.0826,-1.086,-1.1084,-1.1341,-1.1375,-1.1477,-1.1613,-1.1497,-1.1335,-1.122,-1.1043,-1.0887,-1.0717,-1.0717,-1.0717,-1.0717,-1.0717,-1.0717,-1.0717,0.0,0.0,0.0,0.0,0.0,0.0,0.0,0.0,0.0,0.0,0.0,0.0,0.0,0.0,0.0,0.0,0.0,0.0,0.0,-1.7435,-1.7582,-1.7582,-1.7582,-1.7462,-1.7233,-1.7233,-1.7233,-1.7233,-1.7233,-1.7367,-1.7582,-1.7582,-1.7582,-1.7582,-1.7582,-1.7582,-1.7582,-1.7582,-1.7582,-1.7582,-1.7582,0.0,0.0,0.0,0.0,0.0,0.0,0.0,0.0,0.0,0.0,0.0,0.0,0.0,-1.1,-0.9644,-0.9154,-0.9078,-0.9159,-0.9207,-0.9262,-0.9347,-0.951,-0.9707,-0.9909,-0.9869,-0.9876,-0.9943,-0.997,-1.008,-1.0236,-1.0493,-1.0697,-1.0717,-1.0717,-1.0717,-1.0717,-1.0731,-1.0738,-1.0738,-1.0744,-1.0751,-1.0751,-1.0751,-1.0751,-1.0751,-1.0751,-1.0744,-1.0738,-1.0738,-1.0731,-1.0717,-1.0717,-1.0717,-1.0717,-1.0717,-1.0724,-1.0738,-1.0813,-1.1029,-1.1255,-1.1328,-1.1477,-1.1619,-1.1606,-1.1436,-1.1234,-1.1151,-1.0975,-1.0717,-1.0717,-1.0717,-1.0717,-1.0717,-1.0717,-1.0717,0.0,0.0,0.0,0.0,0.0,0.0,0.0,0.0,0.0,0.0,0.0,-1.5899,-1.6086,0.0,0.0,0.0,0.0,0.0,0.0,-1.73,-1.7447,-1.7569,-1.7582,-1.7448,-1.7206,-1.738,-1.7474,-1.7474,-1.7474,-1.7475,-1.7582,-1.7582,-1.7582,-1.7582,-1.7582,-1.7582,-1.7582,-1.7582,-1.7582,-1.7582,-1.7582,-1.7582,0.0,0.0,0.0,0.0,0.0,0.0,0.0,0.0,-1.3965,-1.2778,-1.3156,-1.2299,-1.1,-1.046,-1.0296,-1.0091,-0.9224,-0.915,-0.9344,-0.9303,-0.9422,-0.9659,-0.9863,-1.0012,-1.012,-1.0181,-1.0195,-1.0209,-1.027,-1.0446,-1.0575,-1.0575,-1.0656,-1.0717,-1.0717,-1.0717,-1.0717,-1.0717,-1.0717,-1.0717,-1.0717,-1.0717,-1.0717,-1.0717,-1.0717,-1.0717,-1.0717,-1.0717,-1.0717,-1.0717,-1.0717,-1.0717,-1.0717,-1.0717,-1.0717,-1.0724,-1.0968,-1.1111,-1.1241,-1.1416,-1.1511,-1.1477,-1.1477,-1.1355,-1.1158,-1.1063,-1.0907,-1.0717,-1.0717,-1.0717,-1.0717,-1.0717,-1.0717,-1.0717,0.0,0.0,0.0,0.0,0.0,0.0,0.0,0.0,-1.5784,0.0,0.0,0.0,0.0,-1.6032,0.0,0.0,0.0,0.0,-1.6898,-1.7099,-1.7286,-1.7487,-1.7528,-1.7488,-1.734,-1.7527,-1.7542,-1.7448,-1.7542,-1.7582,-1.7582,-1.7582,-1.7582,-1.7582,-1.7582,-1.7582,-1.7582,-1.7582,-1.7582,-1.7582,-1.7582,-1.7582,0.0,0.0,0.0,0.0,0.0,0.0,0.0,0.0,-1.2299,-1.1265,-1.2299,-1.1592,-1.0406,-1.0406,-1.0437,-1.0263,-0.9279,-0.9157,-0.935,-0.9296,-0.9381,-0.9585,-0.9774,-1.0025,-1.0222,-1.027,-1.0283,-1.0283,-1.0283,-1.0399,-1.0493,-1.0493,-1.0622,-1.0717,-1.0717,-1.0717,-1.0717,-1.0717,-1.0717,-1.0717,-1.0717,-1.0717,-1.0717,-1.0717,-1.0717,-1.0717,-1.0717,-1.0717,-1.0717,-1.0717,-1.0717,-1.0717,-1.0717,-1.0717,-1.0717,-1.0724,-1.0975,-1.1097,-1.1104,-1.1362,-1.1416,-1.1321,-1.1321,-1.1233,-1.109,-1.0989,-1.0793,-1.0717,-1.0717,-1.0717,-1.0717,-1.0717,-1.0717,-1.0717,0.0,0.0,0.0,0.0,0.0,0.0,0.0,0.0,-1.5784,-1.5784,-1.6086,0.0,0.0,0.0,0.0,0.0,0.0,0.0,-1.6321,-1.6871,-1.7192,-1.7206,-1.7474,-1.7582,-1.7582,-1.7582,-1.7487,-1.7206,-1.7487,-1.7582,-1.7582,-1.7582,-1.7582,-1.7582,-1.7582,-1.7582,-1.7582,-1.7582,-1.7582,-1.7582,-1.7582,-1.7582,-1.7582,0.0,0.0,0.0,0.0,0.0,0.0,0.0,-1.2299,-1.1055,-1.1055,-1.0076,-0.8885,-0.8885,-0.9042,-0.9207,-0.9207,-0.9207,-0.9248,-0.934,-0.9381,-0.9462,-0.9754,-0.9937,-1.0156,-1.0249,-1.0276,-1.0276,-1.0276,-1.0392,-1.0487,-1.0487,-1.0622,-1.0717,-1.0717,-1.0717,-1.0717,-1.0717,-1.0717,-1.0717,-1.0717,-1.0717,-1.0717,-1.0717,-1.0717,-1.0717,-1.0717,-1.0717,-1.0717,-1.0717,-1.0717,-1.0717,-1.0717,-1.0717,-1.0717,-1.0724,-1.0806,-1.088,-1.0887,-1.1097,-1.1234,-1.1227,-1.1227,-1.1084,-1.088,-1.088,-1.0793,-1.0717,-1.0717,-1.0717,-1.0717,-1.0717,-1.0717,-1.0717,0.0,0.0,0.0,0.0,0.0,0.0,0.0,0.0,-1.5784,-1.5784,-1.5912,0.0,0.0,0.0,0.0,0.0,0.0,0.0,-1.6321,-1.6482,-1.6764,-1.7179,-1.7286,-1.742,-1.7582,-1.7582,-1.7542,-1.7501,-1.7542,-1.7582,-1.7582,-1.7582,-1.7582,-1.7582,-1.7582,-1.7582,-1.7582,-1.7582,-1.7582,-1.7582,-1.7582,-1.7582,-1.7582,0.0,0.0,0.0,0.0,0.0,0.0,0.0,0.0,0.0,-0.9533,-0.9335,-0.9069,-0.8967,-0.9042,-0.9187,-0.9028,-0.9076,-0.9221,-0.9268,-0.9381,-0.9564,-0.9652,-0.9869,-1.0093,-1.0249,-1.0195,-1.012,-1.012,-1.0243,-1.0344,-1.0344,-1.0555,-1.0717,-1.0717,-1.0717,-1.0717,-1.0717,-1.0717,-1.0717,-1.0717,-1.0717,-1.0717,-1.0717,-1.0717,-1.0717,-1.0717,-1.0717,-1.0717,-1.0717,-1.0717,-1.0717,-1.0717,-1.0717,-1.0717,-1.0717,-1.0765,-1.0785,-1.0799,-1.105,-1.1104,-1.1016,-1.1016,-1.0989,-1.0873,-1.0833,-1.0758,-1.0717,-1.0717,-1.0717,-1.0717,-1.0717,-1.0717,-1.0717,0.0,0.0,0.0,0.0,0.0,0.0,-1.5744,-1.5784,-1.5784,-1.5784,-1.5784,-1.5899,0.0,0.0,0.0,-1.6099,-1.6099,0.0,-1.6099,-1.6206,-1.6536,-1.7005,-1.7139,-1.734,-1.7569,-1.7582,-1.7582,-1.7582,-1.7582,-1.7582,-1.7582,-1.7582,-1.7582,-1.7582,-1.7582,-1.7582,-1.7582,-1.7582,-1.7582,-1.7582,-1.7582,-1.7582,-1.7582,0.0,0.0,0.0,0.0,0.0,0.0,0.0,0.0,0.0,-0.8885,-0.8994,-0.9062,-0.9035,-0.9083,-0.9221,-0.9198,-0.9225,-0.933,-0.9388,-0.9517,-0.9625,-0.968,-0.9815,-1.0031,-1.0249,-1.0154,-0.9984,-0.9984,-1.0175,-1.0283,-1.0283,-1.0527,-1.0717,-1.0717,-1.0717,-1.0717,-1.0717,-1.0717,-1.0717,-1.0717,-1.0717,-1.0717,-1.0717,-1.0717,-1.0717,-1.0717,-1.0717,-1.0717,-1.0717,-1.0717,-1.0717,-1.0717,-1.0717,-1.0717,-1.0717,-1.0717,-1.0717,-1.0724,-1.0907,-1.0941,-1.0793,-1.0793,-1.0793,-1.0786,-1.0758,-1.0717,-1.0717,-1.0717,-1.0717,-1.0717,-1.0717,-1.0717,-1.0717,0.0,0.0,-1.4683,-1.4995,0.0,0.0,-1.5744,-1.5784,-1.5784,-1.5784,-1.5784,-1.5784,0.0,0.0,0.0,-1.5784,-1.5811,-1.5811,-1.5784,-1.6086,-1.638,-1.6687,-1.7021,-1.7367,-1.7569,-1.7582,-1.7582,-1.7582,-1.7582,-1.7582,-1.7582,-1.7582,-1.7582,-1.7582,-1.7582,-1.7582,-1.7582,-1.7582,-1.7582,-1.7582,-1.7582,-1.7582,-1.7582,-1.7582,0.0,0.0,0.0,0.0,0.0,0.0,0.0,0.0,-0.8885,-0.8892,-0.8981,-0.9096,-0.9207,-0.9289,-0.9496,-0.9476,-0.9449,-0.9734,-0.9713,-0.9659,-0.9788,-0.9869,-1.0004,-1.0209,-1.0127,-0.9963,-0.9963,-1.0168,-1.0283,-1.0283,-1.0527,-1.0717,-1.0717,-1.0717,-1.0717,-1.0717,-1.0717,-1.0717,-1.0717,-1.0717,-1.0717,-1.0717,-1.0717,-1.0717,-1.0717,-1.0717,-1.0717,-1.0717,-1.0717,-1.0717,-1.0717,-1.0717,-1.0717,-1.0717,-1.0717,-1.0717,-1.0717,-1.0717,-1.0717,-1.0717,-1.0717,-1.0717,-1.0717,-1.0717,-1.0717,-1.0717,-1.0717,-1.0717,-1.0717,-1.0717,-1.0717,-1.0717,0.0,0.0,-1.5231,-1.5297,0.0,0.0,-1.5771,-1.5784,-1.5784,-1.5784,-1.5784,-1.5784,-1.5784,-1.6032,0.0,-1.5798,-1.6046,-1.6072,-1.5798,-1.5885,-1.6152,-1.6687,-1.7208,-1.7515,-1.7582,-1.7582,-1.7582,-1.7582,-1.7582,-1.7582,-1.7582,-1.7582,-1.7582,-1.7582,-1.7582,-1.7582,-1.7582,-1.7582,-1.7582,-1.7582,-1.7582,-1.7582,-1.7582,-1.7582,-1.6009,0.0,0.0,0.0,0.0,0.0,0.0,0.0,-0.8885,-0.9015,-0.9089,-0.9008,-0.915,-0.932,-0.9323,-0.9313,-0.9422,-0.9612,-0.9713,-0.9781,-0.9815,-0.9849,-0.9876,-0.991,-0.989,-0.9869,-0.9869,-1.0093,-1.0283,-1.0283,-1.0527,-1.0717,-1.0717,-1.0717,-1.0717,-1.0717,-1.0717,-1.0717,-1.0717,-1.0717,-1.0717,-1.0717,-1.0717,-1.0717,-1.0717,-1.0717,-1.0717,-1.0717,-1.0717,-1.0717,-1.0717,-1.0717,-1.0717,-1.0717,-1.0717,-1.0717,-1.0717,-1.0717,-1.0717,-1.0717,-1.0717,-1.0717,-1.0717,-1.0717,-1.0717,-1.0717,-1.0717,-1.0717,-1.0717,-1.0717,-1.0717,-1.0717,0.0,0.0,0.0,0.0,0.0,0.0,0.0,0.0,-1.5992,-1.5798,-1.5784,-1.5731,-1.5631,-1.5765,0.0,0.0,-1.5765,-1.5845,-1.5784,-1.5784,-1.6086,-1.6673,-1.7275,-1.7582,-1.7582,-1.7582,-1.7582,-1.7582,-1.7582,-1.7582,-1.7582,-1.7582,-1.7582,-1.7582,-1.7582,-1.7582,-1.7582,-1.7582,-1.7582,-1.7582,-1.7582,-1.7582,-1.7582,-1.7582,-1.5796,-1.3318,-1.3318,0.0,0.0,0.0,0.0,0.0,0.0,0.0,-0.9049,-0.9042,-0.9103,-0.9198,-0.9334,-0.9374,-0.9435,-0.9652,-0.9768,-0.9822,-0.9822,-0.9822,-0.9822,-0.9822,-0.9822,-0.9822,-0.9822,-1.0073,-1.0283,-1.0283,-1.0527,-1.0717,-1.0717,-1.0717,-1.0717,-1.0717,-1.0717,-1.0717,-1.0717,-1.0717,-1.0717,-1.0717,-1.0717,-1.0717,-1.0717,-1.0717,-1.0717,-1.0717,-1.0717,-1.0717,-1.0717,-1.0717,-1.0717,-1.0717,-1.0717,-1.0717,-1.0717,-1.0717,-1.0717,-1.0717,-1.0717,-1.0717,-1.0717,-1.0717,-1.0717,-1.0717,-1.0717,-1.0717,-1.0717,-1.0717,-1.0717,-1.0717,0.0,0.0,0.0,0.0,0.0,0.0,0.0,0.0,0.0,-1.5858,-1.5784,-1.5712,-1.5431,-1.5391,-1.5378,0.0,0.0,0.0,-1.5738,-1.5845,-1.6139,-1.6687,-1.7221,-1.7528,-1.7582,-1.7582,-1.7582,-1.7582,-1.7582,-1.7609,-1.7662,-1.7609,-1.7582,-1.7582,-1.7582,-1.7582,-1.7582,-1.7582,-1.7582,-1.7582,-1.7582,-1.7582,-1.7582,-1.7582,-1.5796,-1.3318,-1.3318,-1.1374,-0.8885,-0.8885,0.0,0.0,0.0,0.0,-0.8905,-0.9083,-0.9049,-0.9055,-0.9429,-0.9476,-0.9483,-0.9754,-0.9822,-0.9822,-0.9822,-0.9822,-0.9822,-0.9822,-0.9822,-0.9829,-0.9856,-1.0093,-1.029,-1.031,-1.0541,-1.0717,-1.0717,-1.0717,-1.0717,-1.0717,-1.0717,-1.0717,-1.0717,-1.0717,-1.0717,-1.0717,-1.0717,-1.0717,-1.0717,-1.0717,-1.0717,-1.0717,-1.0717,-1.0717,-1.0717,-1.0717,-1.0717,-1.0717,-1.0717,-1.0717,-1.0717,-1.0717,-1.0717,-1.0717,-1.0717,-1.0717,-1.0717,-1.0717,-1.0717,-1.0717,-1.0717,-1.0717,-1.0717,-1.0717,-1.0717,-1.0717,0.0,0.0,0.0,0.0,0.0,0.0,0.0,0.0,0.0,0.0,-1.5784,-1.5712,-1.5431,-1.5391,-1.5297,-1.5089,-1.5257,-1.5418,-1.5444,0.0,0.0,-1.6687,-1.7072,-1.738,-1.7569,-1.7582,-1.7582,-1.7582,-1.7582,-1.7716,-1.7929,-1.7702,-1.7582,-1.7582,-1.7582,-1.7582,-1.7582,-1.7582,-1.7582,-1.7582,-1.7582,-1.7582,-1.7582,-1.7582,-1.5796,-1.3318,-1.3318,-1.1374,-0.8885,-0.8885,-0.8885,0.0,0.0,0.0,-0.8885,-0.8905,-0.9042,-0.9193,-0.9255,-0.9395,-0.9618,-0.9781,-0.9822,-0.9822,-0.9822,-0.9822,-0.9822,-0.9822,-0.9822,-0.9863,-0.993,-1.0161,-1.0324,-1.0446,-1.0609,-1.0717,-1.0717,-1.0717,-1.0717,-1.0717,-1.0717,-1.0717,-1.0717,-1.0717,-1.0717,-1.0717,-1.0717,-1.0717,-1.0717,-1.0717,-1.0717,-1.0717,-1.0717,-1.0717,-1.0717,-1.0717,-1.0717,-1.0717,-1.0717,-1.0717,-1.0717,-1.0717,-1.0717,-1.0717,-1.0717,-1.0717,-1.0717,-1.0717,-1.0717,-1.0717,-1.0717,-1.0717,-1.0717,-1.0717,-1.0717,-1.0717,0.0,0.0,0.0,0.0,0.0,0.0,0.0,0.0,0.0,0.0,0.0,-1.5712,-1.5431,-1.5257,-1.5156,-1.5022,-1.4923,-1.5044,-1.5378,-1.5952,-1.6326,-1.646,-1.6951,-1.7179,-1.7088,-1.7261,-1.7393,-1.7393,-1.7168,-1.7328,-1.7782,-1.7475,-1.7515,-1.7836,-1.7662,-1.7582,-1.7582,-1.7582,-1.7582,-1.7582,-1.7582,-1.7582,-1.7529,-1.6658,-1.5102,-1.321,-1.2354,-1.0672,-0.8885,-0.8885,-0.8885,-0.8885,-0.8885,0.0,0.0,0.0,-0.8981,-0.9069,-0.9232,-0.9442,-0.9646,-0.9788,-0.9822,-0.9822,-0.9822,-0.9822,-0.9822,-0.9822,-0.9822,-0.9869,-0.9957,-1.0175,-1.0324,-1.0466,-1.0622,-1.0717,-1.0717,-1.0717,-1.0717,-1.0717,-1.0717,-1.0717,-1.0717,-1.0717,-1.0717,-1.0717,-1.0717,-1.0717,-1.0717,-1.0717,-1.0717,-1.0717,-1.0717,-1.0717,-1.0717,-1.0717,-1.0717,-1.0717,-1.0717,-1.0717,-1.0717,-1.0717,-1.0717,-1.0717,-1.0717,-1.0717,-1.0717,-1.0717,-1.0717,-1.0717,-1.0717,-1.0717,-1.0717,-1.0717,-1.0717,-1.0717,0.0,0.0,0.0,0.0,0.0,0.0,0.0,0.0,0.0,0.0,0.0,-1.5712,-1.5431,0.0,0.0,0.0,-1.471,-1.4856,-1.5364,-1.5872,-1.6192,-1.6321,-1.6817,-1.6978,-1.6714,-1.7045,-1.7166,-1.7085,-1.6887,-1.7074,-1.7582,-1.742,-1.7542,-1.7982,-1.7716,-1.7582,-1.7582,-1.7582,-1.7582,-1.7582,-1.7582,-1.7582,-1.7424,-1.5956,-1.4556,-1.3102,-1.1647,-1.0131,-0.8885,-0.8885,-0.8885,-0.8885,-0.8885,-0.8885,0.0,0.0,0.0,-0.8939,-0.9252,-0.9408,-0.9537,-0.972,-0.9768,-0.9774,-0.9815,-0.9822,-0.9822,-0.9822,-0.9822,-0.9876,-1.0011,-1.0202,-1.0337,-1.0521,-1.0643,-1.0717,-1.0717,-1.0717,-1.0717,-1.0717,-1.0717,-1.0717,-1.0717,-1.0717,-1.0717,-1.0717,-1.0717,-1.0717,-1.0717,-1.0717,-1.0717,-1.0717,-1.0717,-1.0717,-1.0717,-1.0717,-1.0717,-1.0717,-1.0717,-1.0717,-1.0717,-1.0717,-1.0717,-1.0717,-1.0717,-1.0717,-1.0717,-1.0717,-1.0717,-1.0717,-1.0717,-1.0717,-1.0717,-1.0717,-1.0717,-1.0717,0.0,0.0,0.0,0.0,0.0,0.0,0.0,0.0,0.0,0.0,0.0,-1.5712,-1.5431,-1.5378,-1.515,-1.4589,-1.479,-1.5115,-1.5378,-1.5685,-1.5979,-1.6308,-1.6567,0.0,-1.67,-1.7045,-1.7058,-1.6727,-1.7045,-1.734,-1.7582,-1.7569,-1.7729,-1.7982,-1.7716,-1.7582,-1.7582,-1.7582,-1.7582,-1.7582,-1.7582,-1.7582,-1.7424,-1.5956,-1.4556,-1.3102,-1.1647,-1.0131,-0.8885,-0.8885,-0.8885,-0.8885,-0.8885,-0.8885,-0.8885,0.0,0.0,0.0,-0.918,-0.9228,-0.9303,-0.9544,-0.9618,-0.9652,-0.9788,-0.9822,-0.9822,-0.9822,-0.9822,-0.991,-1.0215,-1.0276,-1.0371,-1.0663,-1.0717,-1.0717,-1.0717,-1.0717,-1.0717,-1.0717,-1.0717,-1.0717,-1.0717,-1.0717,-1.0717,-1.0717,-1.0717,-1.0717,-1.0717,-1.0717,-1.0717,-1.0717,-1.0717,-1.0717,-1.0717,-1.0717,-1.0717,-1.0717,-1.0717,-1.0717,-1.0717,-1.0717,-1.0717,-1.0717,-1.0717,-1.0717,-1.0717,-1.0717,-1.0717,-1.0717,-1.0717,-1.0717,-1.0717,-1.0717,-1.0717,-1.0717,0.0,0.0,0.0,0.0,0.0,0.0,0.0,0.0,0.0,0.0,0.0,0.0,0.0,-1.5511,-1.5311,-1.5097,-1.5177,-1.5284,-1.5391,-1.5671,-1.5824,-1.5979,-1.6446,-1.662,-1.6433,-1.6951,-1.7152,-1.7045,-1.6901,-1.7114,-1.7582,-1.7447,-1.7514,-1.7742,-1.7635,-1.7582,-1.7582,-1.7582,-1.7582,-1.7582,-1.7582,-1.7582,-1.7358,-1.4931,-1.375,-1.2994,-1.0562,-0.9375,-0.8885,-0.8885,-0.8885,-0.8885,-0.8885,-0.8885,-0.8885,-0.8885,-0.8885,-0.8967,-0.9173,-0.9207,-0.9262,-0.9408,-0.9537,-0.9625,-0.9673,-0.9754,-0.9822,-0.9822,-0.9822,-0.9917,-1.0222,-1.0283,-1.0378,-1.067,-1.0717,-1.0758,-1.0786,-1.0799,-1.0799,-1.0799,-1.0799,-1.0759,-1.0731,-1.0717,-1.0717,-1.0717,-1.0717,-1.0717,-1.0717,-1.0717,-1.0717,-1.0717,-1.0717,-1.0717,-1.0717,-1.0717,-1.0717,-1.0717,-1.0717,-1.0717,-1.0717,-1.0717,-1.0717,-1.0717,-1.0717,-1.0717,-1.0717,-1.0717,-1.0717,-1.0717,-1.0717,-1.0717,-1.0717,-1.0717,-1.0717,-1.0717,0.0,0.0,0.0,-1.7582,0.0,-1.682,-1.6727,-1.6286,-1.5979,-1.5979,0.0,0.0,0.0,0.0,-1.5618,-1.5418,-1.5391,-1.5391,-1.5391,-1.5671,-1.5872,-1.5979,-1.6446,-1.662,-1.642,-1.6857,-1.7058,-1.7058,-1.6807,-1.6954,-1.7435,-1.7393,-1.7447,-1.7582,-1.7582,-1.7582,-1.7582,-1.7582,-1.7582,-1.7582,-1.7582,-1.7582,-1.7358,-1.4931,-1.3696,-1.2994,-1.0515,-0.932,-0.8885,-0.8885,-0.8885,-0.8885,-0.8885,-0.8885,-0.8885,-0.8885,-0.8885,-0.8905,-0.9055,-0.9083,-0.913,-0.9327,-0.9422,-0.9496,-0.9646,-0.972,-0.9761,-0.9808,-0.9822,-0.9917,-1.0222,-1.0283,-1.0378,-1.067,-1.0717,-1.0772,-1.086,-1.088,-1.09,-1.1016,-1.1023,-1.0962,-1.0812,-1.0799,-1.0778,-1.0724,-1.0717,-1.0717,-1.0717,-1.0717,-1.0717,-1.0717,-1.0717,-1.0717,-1.0717,-1.0717,-1.0717,-1.0717,-1.0717,-1.0717,-1.0717,-1.0717,-1.0717,-1.0717,-1.0717,-1.0717,-1.0717,-1.0717,-1.0717,-1.0717,-1.0717,-1.0717,-1.0717,-1.0717,-1.0717,-1.0717,-1.7582,-1.7582,-1.7582,-1.7582,-1.7393,-1.7099,-1.6767,-1.6473,-1.6286,-1.6286,0.0,0.0,0.0,0.0,0.0,-1.5484,-1.5431,-1.5431,-1.5431,-1.5698,-1.5979,-1.6321,-1.6567,-1.6714,-1.6714,-1.6727,-1.6727,-1.6727,-1.6727,-1.6874,-1.7219,-1.7501,-1.7582,-1.7582,-1.7582,-1.7582,-1.7582,-1.7582,-1.7582,-1.7582,-1.7582,-1.7582,-1.7358,-1.5902,-1.4449,-1.3048,-1.1538,-1.0131,-0.8885,-0.8885,-0.8885,-0.8885,-0.8885,-0.8885,-0.8885,-0.8885,-0.8885,-0.8885,0.0,0.0,0.0,-0.9293,-0.9316,-0.9323,-0.97,-0.97,-0.9646,-0.9788,-0.9815,-0.991,-1.0222,-1.0283,-1.0378,-1.067,-1.0717,-1.0772,-1.0867,-1.0887,-1.1009,-1.1151,-1.1241,-1.1111,-1.09,-1.0887,-1.0826,-1.0738,-1.0724,-1.0724,-1.0717,-1.0717,-1.0717,-1.0717,-1.0717,-1.0717,-1.0717,-1.0717,-1.0717,-1.0717,-1.0717,-1.0717,-1.0717,-1.0717,-1.0717,-1.0717,-1.0717,-1.0717,-1.0717,-1.0717,-1.0717,-1.0717,-1.0717,-1.0717,-1.0717,-1.0717,-1.0717,-1.0717,-1.7582,-1.7582,-1.7582,-1.7582,-1.7393,-1.7166,-1.7085,-1.678,-1.658,0.0,0.0,0.0,-1.658,-1.658,-1.6526,-1.6353,-1.6339,-1.6339,-1.6339,-1.642,-1.65,-1.658,-1.6874,-1.7072,-1.7072,-1.7235,-1.7341,-1.7341,-1.7341,-1.7382,-1.7514,-1.7542,-1.7582,-1.7582,-1.7582,-1.7582,-1.7582,-1.7582,-1.7582,-1.7582,-1.7582,-1.6988,-1.5849,-1.4395,-1.2994,-1.1538,-1.0021,-0.9265,-0.8885,-0.8885,-0.8885,-0.8885,-0.8885,-0.8885,-0.8885,-0.8885,-0.8885,-0.8885,-0.8885,0.0,0.0,0.0,0.0,0.0,-0.9364,-0.9395,-0.949,-0.9639,-0.9666,-0.9795,-1.0202,-1.0283,-1.0378,-1.067,-1.0717,-1.0812,-1.107,-1.1104,-1.1158,-1.1307,-1.1328,-1.1267,-1.1118,-1.1104,-1.1043,-1.0826,-1.082,-1.0772,-1.0724,-1.0717,-1.0717,-1.0717,-1.0717,-1.0717,-1.0717,-1.0717,-1.0717,-1.0717,-1.0717,-1.0717,-1.0717,-1.0717,-1.0717,-1.0717,-1.0717,-1.0717,-1.0717,-1.0717,-1.0717,-1.0717,-1.0717,-1.0717,-1.0717,-1.0717,-1.0717,-1.0717,-1.7582,-1.7582,-1.7582,-1.7582,-1.7487,-1.734,-1.7219,-1.7058,-1.6887,0.0,0.0,0.0,-1.6887,-1.678,-1.67,-1.67,-1.67,-1.67,-1.67,-1.67,-1.6767,-1.6887,-1.7112,-1.7259,-1.738,-1.7434,-1.7514,-1.7582,-1.7514,-1.7514,-1.7582,-1.7582,-1.7582,-1.7582,-1.7582,-1.7582,-1.7582,-1.7582,-1.7582,-1.7582,-1.7582,-1.7094,-1.6168,-1.4716,-1.3264,-1.181,-1.0351,-0.943,-0.8885,-0.8885,-0.8885,-0.8885,-0.8885,-0.8885,-0.8885,-0.8885,-0.8885,-0.8885,-0.8885,-0.8885,-0.8898,-0.9015,0.0,0.0,-0.93,-0.9361,-0.9442,-0.9652,-0.97,-0.9795,-1.0127,-1.0236,-1.0358,-1.0588,-1.0731,-1.0894,-1.1131,-1.1234,-1.1246,-1.1463,-1.1484,-1.1423,-1.1274,-1.126,-1.1199,-1.105,-1.0982,-1.0813,-1.0731,-1.0717,-1.0717,-1.0717,-1.0717,-1.0717,-1.0717,-1.0717,-1.0717,-1.0717,-1.0717,-1.0717,-1.0717,-1.0717,-1.0717,-1.0717,-1.0717,-1.0717,-1.0717,-1.0717,-1.0717,-1.0717,-1.0717,-1.0717,-1.0717,-1.0717,-1.0717,-1.0717,0.0,-1.7582,-1.7582,-1.7582,-1.7582,-1.7502,-1.7286,-1.7246,-1.7246,0.0,-1.7246,-1.7246,-1.7246,-1.6954,-1.6807,-1.6807,-1.6807,-1.6807,-1.6807,-1.6807,-1.6927,-1.7233,-1.7246,-1.7367,-1.7569,-1.738,-1.738,-1.7582,-1.738,-1.738,-1.7582,-1.7582,-1.7582,-1.7582,-1.7582,-1.7582,-1.7582,-1.7582,-1.7582,-1.7582,-1.7582,-1.7477,-1.7199,-1.5902,-1.4395,-1.2886,-1.1592,-1.0131,-0.8885,-0.8885,-0.8885,-0.8885,-0.8885,-0.8885,-0.8885,-0.8885,-0.8885,-0.8885,-0.8885,-0.8885,-0.8967,-0.9096,-0.9049,0.0,-0.9449,-0.9442,-0.9429,-0.9693,-0.9747,-0.9802,-0.993,-1.0134,-1.0283,-1.0439,-1.0724,-1.0982,-1.1138,-1.1179,-1.1294,-1.1586,-1.1619,-1.1565,-1.143,-1.1416,-1.1355,-1.1199,-1.1036,-1.082,-1.0751,-1.0731,-1.0717,-1.0717,-1.0717,-1.0717,-1.0717,-1.0717,-1.0717,-1.0717,-1.0717,-1.0717,-1.0717,-1.0717,-1.0717,-1.0717,-1.0717,-1.0717,-1.0717,-1.0717,-1.0717,-1.0717,-1.0717,-1.0717,-1.0717,-1.0717,-1.0717,-1.0717,-1.7582,-1.7582,-1.7582,-1.7582,-1.7582,-1.7569,-1.7502,-1.7502,-1.7502,-1.7502,-1.7502,-1.7502,-1.7502,-1.7448,-1.7408,-1.7408,-1.7408,-1.7408,-1.7408,-1.7408,-1.7435,-1.7502,-1.7502,-1.7528,-1.7582,-1.7528,-1.7528,-1.7582,-1.7528,-1.7528,-1.7582,-1.7582,-1.7582,-1.7582,-1.7582,-1.7582,-1.7582,-1.7582,-1.7582,-1.7582,-1.7582,-1.6869,-1.5796,-1.553,-1.3804,-1.1483,-1.121,-1.0131,-0.8885,-0.8885,-0.8885,-0.8885,-0.8885,-0.8885,-0.8885,-0.8885,-0.8885,-0.8885,-0.8885,-0.8885,-0.8892,-0.8974,-0.9049,0.0,-0.9076,-0.9137,-0.9268,-0.933,-0.9344,-0.9401,-0.9795,-0.989,-0.9998,-1.0276,-1.0568,-1.086,-1.1193,-1.1267,-1.1416,-1.1599,-1.1619,-1.1606,-1.1579,-1.1572,-1.1511,-1.1355,-1.1097,-1.0867,-1.084,-1.0785,-1.0717,-1.0717,-1.0717,-1.0717,-1.0717,-1.0717,-1.0717,-1.0717,-1.0717,-1.0717,-1.0717,-1.0717,-1.0717,-1.0717,-1.0717,-1.0717,-1.0717,-1.0717,-1.0717,-1.0717,-1.0717,-1.0717,-1.0717,-1.0717,-1.0717,-1.0717,-1.7582,-1.7582,-1.7582,-1.7582,-1.7582,-1.7582,-1.7582,-1.7582,-1.7582,-1.7582,-1.7582,-1.7582,-1.7582,-1.7582,-1.7582,-1.7582,-1.7582,-1.7582,-1.7582,-1.7582,-1.7582,-1.7582,-1.7582,-1.7582,-1.7582,-1.7582,-1.7582,-1.7582,-1.7582,-1.7582,-1.7582,-1.7582,-1.7582,-1.7582,-1.7582,-1.7582,-1.7582,-1.7582,-1.7582,-1.7582,-1.7582,-1.7147,-1.6446,-1.5689,-1.4502,-1.3156,-1.2453,-1.1265,-0.9864,-0.9154,-0.9375,-0.9879,-0.9245,-0.9538,-0.9976,-0.9266,-0.9049,-0.9028,-0.8905,-0.8885,-0.8898,-0.9028,-0.9049,0.0,0.0,-0.9157,-0.9228,-0.9309,-0.9323,-0.9334,-0.9557,-0.972,-0.9897,-1.0127,-1.048,-1.0772,-1.0921,-1.1199,-1.145,-1.1599,-1.1619,-1.1619,-1.1619,-1.1619,-1.1558,-1.1402,-1.1253,-1.1104,-1.0887,-1.0806,-1.0799,-1.0724,-1.0717,-1.0717,-1.0717,-1.0717,-1.0717,-1.0717,-1.0717,-1.0717,-1.0717,-1.0717,-1.0717,-1.0717,-1.0717,-1.0717,-1.0717,-1.0717,-1.0717,-1.0717,-1.0717,-1.0717,-1.0717,-1.0717,-1.0717,-1.0717,-1.7582,-1.7582,-1.7582,-1.7582,-1.7582,-1.7582,-1.7582,-1.7582,-1.7609,-1.7662,-1.7675,-1.7689,-1.7756,-1.7756,-1.7756,-1.7756,-1.7756,-1.7729,-1.7675,-1.7662,-1.7635,-1.7582,-1.7582,-1.7582,-1.7582,-1.7582,-1.7582,-1.7582,-1.7582,-1.7582,-1.7582,-1.7582,-1.7582,-1.7582,-1.7582,-1.7582,-1.7582,-1.7582,-1.7582,-1.7582,-1.7582,-1.7582,-1.7477,-1.6287,-1.5636,-1.5198,-1.3804,-1.2507,-1.1319,-1.0131,-1.0562,-1.1345,-1.0285,-1.0571,-1.1083,-0.9898,-0.9412,-0.918,-0.8981,-0.8905,-0.9001,-0.9089,-0.9069,-0.9069,0.0,0.0,0.0,-0.9279,-0.9293,-0.9306,-0.9334,-0.953,-0.9754,-0.9876,-1.0253,-1.0609,-1.067,-1.1036,-1.1355,-1.1477,-1.1538,-1.1572,-1.1572,-1.1572,-1.1538,-1.1443,-1.1382,-1.1253,-1.1043,-1.0934,-1.0921,-1.0772,-1.0765,-1.0751,-1.0717,-1.0717,-1.0717,-1.0717,-1.0717,-1.0717,-1.0717,-1.0717,-1.0717,-1.0717,-1.0717,-1.0717,-1.0717,-1.0717,-1.0717,-1.0717,-1.0717,-1.0717,-1.0717,-1.0717,-1.0717,-1.0717,-1.7582,-1.7582,-1.7582,-1.7582,-1.7582,-1.7582,-1.7582,-1.7582,-1.7689,-1.7902,-1.7942,-1.809,-1.8357,-1.8384,-1.8384,-1.8384,-1.8384,-1.8277,-1.7955,-1.7983,-1.7849,-1.7595,-1.7582,-1.7582,-1.7582,-1.7582,-1.7582,-1.7582,-1.7582,-1.7582,-1.7582,-1.7582,-1.7582,-1.7582,-1.7582,-1.7582,-1.7582,-1.7582,-1.7582,-1.7582,-1.7582,-1.7582,-1.7582,-1.7424,-1.6552,-1.5198,-1.3804,-1.321,-1.2994,-1.2832,-1.2886,-1.3004,-1.2861,-1.2119,-1.1226,-1.0965,-1.0095,-0.918,-0.8981,-0.9028,-0.9103,-0.8988,-0.915,-0.9273,-0.9042,0.0,-0.918,-0.9015,0.0,-0.9028,-0.9214,0.0,0.0,-0.9612,-0.9862,-1.0152,-1.048,-1.0799,-1.0934,-1.0954,-1.1253,-1.1416,-1.1416,-1.1416,-1.1463,-1.1586,-1.1341,-1.1233,-1.1335,-1.1212,-1.107,-1.086,-1.0853,-1.0793,-1.0724,-1.0717,-1.0717,-1.0717,-1.0717,-1.0717,-1.0717,-1.0717,-1.0717,-1.0717,-1.0717,-1.0717,-1.0717,-1.0717,-1.0717,-1.0717,-1.0717,-1.0717,-1.0717,-1.0717,-1.0717,-1.0717,-1.7582,-1.7582,-1.7582,-1.7582,-1.7582,-1.7582,-1.7582,-1.7729,-1.7943,-1.8263,-1.8303,-1.841,-1.8704,-1.8597,-1.8557,-1.8731,-1.8584,-1.8437,-1.8317,-1.813,-1.8063,-1.8103,-1.7769,-1.7662,-1.7849,-1.7675,-1.7582,-1.7582,-1.6764,-1.634,-1.634,-1.634,-1.634,-1.634,-1.634,-1.6817,-1.7529,-1.6711,-1.6817,-1.7582,-1.7582,-1.7582,-1.7582,-1.7582,-1.7199,-1.6499,-1.5037,-1.4502,-1.4395,-1.3588,-1.3857,-1.4439,-1.3844,-1.3739,-1.3709,-1.2981,-1.2236,-1.1449,-1.0453,-1.0302,-1.0194,-0.93,-0.9157,-0.9275,-0.9089,-0.9049,-0.9015,-0.8898,0.0,0.0,0.0,0.0,0.0,0.0,-0.9795,-1.0031,-1.0215,-1.0426,-1.069,-1.1029,-1.1185,-1.126,-1.126,-1.126,-1.1321,-1.1477,-1.1369,-1.1321,-1.1389,-1.1246,-1.1097,-1.0887,-1.0793,-1.0785,-1.0717,-1.0717,-1.0717,-1.0717,-1.0717,-1.0717,-1.0717,-1.0717,-1.0717,-1.0717,-1.0717,-1.0717,-1.0717,-1.0717,-1.0717,-1.0717,-1.0717,-1.0717,-1.0731,-1.0819,-1.0853,-1.0799,-1.7582,-1.7582,-1.7582,-1.7582,-1.7582,-1.7609,-1.7702,-1.7889,-1.817,-1.8557,-1.8611,-1.8758,-1.9118,-1.8971,-1.8971,-1.9252,-1.9092,-1.8905,-1.8744,-1.845,-1.8123,-1.7854,-1.7767,-1.7595,-1.7373,-1.7609,-1.7503,-1.6988,-1.5902,-1.5198,-1.4824,-1.4824,-1.4824,-1.4824,-1.4824,-1.5423,-1.634,-1.5263,-1.5423,-1.6446,-1.6829,-1.7252,-1.7582,-1.7582,-1.7582,-1.7477,-1.6393,-1.6009,-1.5849,-1.4824,-1.5156,-1.588,-1.5221,-1.5355,-1.5516,-1.4686,-1.4009,-1.3226,-1.2028,-1.1504,-1.1027,-0.9988,-0.9455,-0.92,-0.9103,-0.9042,-0.8994,-0.8994,-0.9028,0.0,0.0,0.0,-0.9435,-0.9585,0.0,-0.9896,-0.9977,-1.0148,-1.0392,-1.0867,-1.1029,-1.1118,-1.1158,-1.1124,-1.1165,-1.1314,-1.1294,-1.1287,-1.1328,-1.1219,-1.1097,-1.0887,-1.0839,-1.0765,-1.0717,-1.0717,-1.0717,-1.0717,-1.0717,-1.0717,-1.0717,-1.0717,-1.0717,-1.0717,-1.0717,-1.0717,-1.0717,-1.0717,-1.0717,-1.0717,-1.0717,-1.0744,-1.0799,-1.084,-1.088,-1.09,-1.7582,-1.7582,-1.7582,-1.7582,-1.7582,-1.7689,-1.7929,-1.7982,-1.8195,-1.8838,-1.8905,-1.9132,-1.9706,-1.976,-1.988,-2.01,-2.0127,-1.9933,-1.943,-1.9065,-1.8069,-1.6266,-1.7351,-1.7306,-1.5822,-1.7252,-1.7165,-1.5476,-1.5411,-1.4716,-1.3372,-1.3372,-1.3372,-1.3372,-1.3372,-1.3372,-1.3426,-1.3372,-1.3372,-1.3534,-1.4931,-1.634,-1.7582,-1.7582,-1.7582,-1.7582,-1.7529,-1.7529,-1.7529,-1.7477,-1.7477,-1.7583,-1.7794,-1.6884,-1.5701,-1.5822,-1.4713,-1.3447,-1.3271,-1.2275,-1.1273,-1.1105,-1.0095,-0.9173,-0.8981,-0.9049,-0.92,-0.92,-0.9323,-0.9367,-0.9367,-0.9374,-0.9435,-0.9585,-0.9618,0.0,0.0,-0.999,-1.012,-1.029,-1.069,-1.1009,-1.1151,-1.1036,-1.1016,-1.1158,-1.1043,-1.1023,-1.1234,-1.1165,-1.1097,-1.0887,-1.0873,-1.0799,-1.0724,-1.0717,-1.0717,-1.0717,-1.0717,-1.0717,-1.0717,-1.0717,-1.0717,-1.0717,-1.0717,-1.0717,-1.0717,-1.0717,-1.0717,-1.0717,-1.0717,-1.0812,-1.0873,-1.088,-1.088,-1.09,-1.8183,-1.8183,-1.805,-1.7649,-1.7582,-1.7756,-1.8263,-1.8504,-1.8781,-1.9426,-1.9506,-1.9733,-2.0321,-2.0201,-2.0201,-2.0494,-2.0347,-2.0147,-1.9947,-1.9492,-1.8564,-1.7149,-1.7881,-1.7725,-1.6459,-1.6525,-1.632,-1.5724,-1.3606,-1.229,-1.1864,-1.1864,-1.1864,-1.1864,-1.1864,-1.2408,-1.3221,-1.2376,-1.2551,-1.3552,-1.5198,-1.616,-1.6673,-1.7343,-1.7716,-1.7836,-1.7836,-1.8009,-1.8183,-1.8183,-1.8183,-1.8196,-1.8303,-1.7814,-1.721,-1.7265,-1.6788,-1.606,-1.5212,-1.4757,-1.4239,-1.3328,-1.1968,-1.0842,-1.0667,-0.9898,-0.9207,-0.9207,-0.933,-0.9381,-0.9381,-0.9462,-0.9551,-0.9598,-0.9686,-0.9781,0.0,-0.9923,-1.0004,-1.012,-1.0432,-1.0704,-1.0853,-1.0826,-1.086,-1.1009,-1.0907,-1.1009,-1.1158,-1.107,-1.0995,-1.088,-1.0786,-1.0772,-1.0717,-1.0717,-1.0717,-1.0717,-1.0717,-1.0717,-1.0717,-1.0717,-1.0717,-1.0717,-1.0717,-1.0717,-1.0717,-1.0717,-1.0717,-1.0731,-1.0833,-1.0833,-1.0894,-1.1056,-1.1151,-1.126,-1.6906,-1.677,-1.6827,-1.7025,-1.707,-1.7399,-1.8459,-1.8891,-1.9252,-1.9733,-1.9893,-2.0134,-2.0628,-2.0508,-2.0508,-2.0802,-2.0655,-2.0454,-2.018,-1.927,-1.808,-1.6669,-1.6915,-1.6495,-1.5123,-1.5268,-1.5009,-1.4251,-1.2192,-1.0894,-1.0296,-1.0296,-1.0296,-1.0296,-1.0296,-1.0869,-1.1808,-1.0939,-1.1141,-1.2167,-1.3815,-1.4781,-1.5367,-1.6599,-1.7523,-1.821,-1.821,-1.833,-1.849,-1.849,-1.849,-1.8504,-1.8611,-1.837,-1.8009,-1.8115,-1.7983,-1.7569,-1.6876,-1.6397,-1.5962,-1.5108,-1.3752,-1.2596,-1.2458,-1.1248,-1.0219,-1.0219,-0.9837,-0.9537,-0.9537,-0.9618,-0.9686,-0.9686,-0.9761,-0.9822,0.0,-0.9842,-0.995,-1.012,-1.0344,-1.0527,-1.0629,-1.069,-1.0758,-1.0793,-1.0799,-1.0907,-1.1002,-1.0921,-1.0799,-1.0799,-1.0772,-1.0717,-1.0717,-1.0717,-1.0717,-1.0717,-1.0717,-1.0717,-1.0717,-1.0717,-1.0717,-1.0717,-1.0717,-1.0717,-1.0717,-1.0717,-1.0717,-1.0738,-1.082,-1.0914,-1.1043,-1.1192,-1.1341,-1.1484,-1.4127,-1.3688,-1.4153,-1.5761,-1.6009,-1.6654,-1.8494,-1.9097,-1.9447,-1.98,-2.0107,-2.0401,-2.0695,-2.0722,-2.0828,-2.1082,-2.1109,-2.0869,-2.0247,-1.8582,-1.6786,-1.4912,-1.4709,-1.3821,-1.207,-1.3536,-1.3343,-1.1358,-1.1212,-1.0404,-0.8892,-0.8885,-0.8885,-0.8885,-0.8885,-0.9022,-0.9207,-0.9221,-0.9316,-0.9518,-1.0944,-1.2364,-1.3781,-1.5434,-1.7042,-1.8419,-1.8517,-1.8517,-1.8531,-1.8531,-1.8531,-1.8584,-1.8838,-1.8488,-1.8089,-1.841,-1.829,-1.8022,-1.8035,-1.7262,-1.6434,-1.6446,-1.5254,-1.4102,-1.4102,-1.2952,-1.1871,-1.1871,-1.0778,-0.9822,-0.9822,-0.9822,-0.9822,-0.9822,-0.9822,-0.9822,-0.9822,-0.9822,-0.993,-1.0222,-1.0385,-1.0473,-1.0487,-1.0616,-1.0704,-1.0711,-1.0711,-1.0711,-1.0717,-1.0717,-1.0717,-1.0717,-1.0717,-1.0717,-1.0717,-1.0717,-1.0717,-1.0717,-1.0717,-1.0717,-1.0717,-1.0717,-1.0717,-1.0717,-1.0717,-1.0717,-1.0717,-1.0717,-1.0724,-1.0744,-1.0833,-1.105,-1.1275,-1.1348,-1.1497,-1.1619,-1.464,-1.3653,-1.345,-1.5034,-1.4969,-1.5286,-1.7077,-1.7863,-1.8811,-2.0292,-2.0895,-2.1243,-2.1387,-2.1387,-2.1269,-2.1122,-2.1109,-2.1042,-2.0895,-1.9025,-1.7263,-1.5714,-1.516,-1.4232,-1.2708,-1.2725,-1.2499,-1.1997,-1.0448,-0.9525,-0.9096,-0.8988,-0.8885,-0.8885,-0.8885,-0.9022,-0.9214,-0.933,-0.9469,-0.9827,-1.1359,-1.2251,-1.2776,-1.4368,-1.5948,-1.7514,-1.8481,-1.8958,-1.9145,-1.9145,-1.9145,-1.9118,-1.8971,-1.8768,-1.8677,-1.8531,-1.8437,-1.8424,-1.8582,-1.8463,-1.8272,-1.855,-1.646,-1.429,-1.429,-1.2197,-1.0191,-1.0191,-1.0021,-0.9822,-0.9822,-0.9822,-0.9822,-0.9822,-0.9822,-0.9822,-0.9822,-0.9822,-0.9849,-0.993,-1.0073,-1.0249,-1.0473,-1.0432,-1.0439,-1.0541,-1.0548,-1.0602,-1.0717,-1.0717,-1.0717,-1.0717,-1.0717,-1.0717,-1.0717,-1.0717,-1.0717,-1.0717,-1.0717,-1.0717,-1.0717,-1.0717,-1.0717,-1.0717,-1.0717,-1.0717,-1.0717,-1.0717,-1.0785,-1.084,-1.105,-1.1267,-1.1504,-1.1545,-1.1586,-1.1619,-1.3021,-1.2264,-1.2004,-1.2885,-1.2815,-1.3708,-1.6861,-1.7631,-1.8201,-1.9486,-2.0676,-2.1093,-2.0426,-2.1188,-2.1345,-2.0385,-2.0243,-1.9807,-1.8792,-1.7055,-1.5659,-1.4622,-1.3658,-1.2708,-1.1895,-1.1618,-1.1364,-1.114,-1.0037,-0.9347,-0.9207,-0.9069,-0.9001,-0.8885,-0.8885,-0.9055,-0.9323,-0.9483,-0.9673,-0.9883,-1.0778,-1.114,0.0,-1.2928,-1.4123,-1.5112,-1.6518,-1.8043,-1.943,-1.943,-1.943,-1.939,-1.9172,-1.9025,-1.8891,-1.8731,-1.8677,-1.8718,-1.8878,-1.9025,-1.9158,-1.9332,-1.745,-1.5518,-1.5518,-1.3063,-1.0771,-1.0771,-1.0244,-0.9822,-0.9822,-0.9822,-0.9822,-0.9822,-0.9822,-0.9822,-0.9822,-0.9822,-0.9842,-0.9849,-0.9876,-1.0066,-1.0371,-1.0385,-1.0405,-1.0487,-1.0555,-1.0629,-1.0717,-1.0717,-1.0717,-1.0717,-1.0717,-1.0717,-1.0717,-1.0717,-1.0717,-1.0717,-1.0717,-1.0717,-1.0717,-1.0717,-1.0717,-1.0717,-1.0717,-1.0717,-1.0717,-1.0717,-1.0812,-1.09,-1.1179,-1.1409,-1.1619,-1.1619,-1.1619,-1.1619,-1.0713,-1.0466,-1.0548,-1.0527,-1.0649,-1.2274,-1.6839,-1.7326,-1.7321,-1.7978,-1.9507,-2.0066,-1.8589,-2.0195,-2.0668,-1.8953,-1.8808,-1.7962,-1.5904,-1.4409,-1.3361,-1.3043,-1.1534,-1.069,-1.0555,-1.0514,-1.029,-0.9883,-0.9842,-0.9612,-0.9268,-0.9228,-0.9089,-0.8967,-0.8892,-0.9103,-0.9401,-0.968,-0.9802,-0.9822,-0.9822,-0.9822,-0.9943,-1.1345,-1.201,-1.2432,-1.3842,-1.6383,-1.9068,-1.9068,-1.9243,-1.943,-1.943,-1.9185,-1.8985,-1.8985,-1.8985,-1.8985,-1.8985,-1.9172,-1.943,-1.943,-1.8169,-1.6962,-1.6727,-1.4351,-1.2157,-1.1916,-1.0778,-0.9822,-0.9822,-0.9822,-0.9822,-0.9822,-0.9822,-0.9822,-0.9822,-0.9822,-0.9869,-0.9943,-0.9903,0.0,-1.0195,-1.0351,-1.0446,-1.0487,-1.0616,-1.0697,-1.0717,-1.0717,-1.0717,-1.0717,-1.0717,-1.0717,-1.0717,-1.0717,-1.0717,-1.0717,-1.0717,-1.0717,-1.0717,-1.0717,-1.0717,-1.0717,-1.0717,-1.0717,-1.0724,-1.0744,-1.0853,-1.1036,-1.1314,-1.1504,-1.1619,-1.1619,-1.1619,-1.1619,-1.086,-1.0786,-1.0826,-1.0704,-1.0806,-1.1738,-1.432,-1.4647,-1.5166,-1.6532,-1.7376,-1.7702,-1.7219,-1.7476,-1.7523,-1.6928,-1.6918,-1.6742,-1.6335,-1.4679,-1.373,-1.3663,-1.1887,-1.0826,-1.0799,-1.0622,-1.0399,-1.0202,-0.9944,-0.972,-0.9523,-0.933,-0.9193,-0.9166,-0.8994,-0.9103,-0.9395,-0.9571,-0.9713,-0.9822,-0.9822,-0.9822,-0.9836,-1.0265,-1.1233,-1.2409,-1.2862,-1.4902,-1.7443,-1.7443,-1.8286,-1.943,-1.943,-1.939,-1.9292,-1.9292,-1.9292,-1.9292,-1.9292,-1.939,-1.943,-1.943,-1.8169,-1.6668,-1.5311,-1.3586,-1.1796,-1.0482,-0.9997,-0.9822,-0.9822,-0.9822,-0.9822,-0.9822,-0.9822,-0.9822,-0.9822,-0.9822,-0.9829,-0.9856,-0.9836,-0.9842,-0.9897,-1.0039,-1.0229,-1.0473,-1.0514,-1.0588,-1.0711,-1.0717,-1.0717,-1.0717,-1.0717,-1.0717,-1.0717,-1.0717,-1.0717,-1.0717,-1.0717,-1.0717,-1.0717,-1.0717,-1.0717,-1.0717,-1.0717,-1.0717,-1.0731,-1.0793,-1.107,-1.1328,-1.1511,-1.1599,-1.1619,-1.1619,-1.1619,-1.1619,-1.107,-1.1056,-1.1036,-1.0962,-1.1077,-1.1476,-1.2512,-1.2734,-1.3346,-1.4923,-1.6079,-1.6451,-1.5453,-1.6323,-1.655,-1.5482,-1.5334,-1.4952,-1.3888,-1.2997,-1.2543,-1.2452,-1.157,-1.1056,-1.1056,-1.0839,-1.0616,-1.0392,-1.0168,-0.9903,-0.9605,-0.9374,-0.9282,-0.9207,-0.9164,-0.9245,-0.9401,-0.9707,-0.9815,-0.9883,-1.0025,-1.0059,-1.0066,-1.0141,-1.0664,-1.1298,-1.1437,-1.2897,-1.5034,-1.6552,-1.76,-1.8416,-1.9179,-1.943,-1.943,-1.943,-1.943,-1.943,-1.943,-1.943,-1.943,-1.943,-1.8169,-1.6786,-1.602,-1.3944,-1.1952,-1.1144,-1.0304,-0.9822,-0.9822,-0.9822,-0.9822,-0.9822,-0.9822,-0.9822,-0.9822,-0.9822,-0.9822,-0.9822,-0.9822,-0.9883,-1.0046,-1.0127,-1.0229,-1.0371,-1.0521,-1.0643,-1.0717,-1.0717,-1.0717,-1.0717,-1.0717,-1.0717,-1.0717,-1.0717,-1.0717,-1.0717,-1.0717,-1.0717,-1.0717,-1.0717,-1.0717,-1.0717,-1.0717,-1.0717,-1.0738,-1.0968,-1.1192,-1.1409,-1.1558,-1.1619,-1.1619,-1.1619,-1.1619,-1.1619,-1.1219,-1.1212,-1.1199,-1.1165,-1.1287,-1.1389,-1.1389,-1.1518,-1.2023,-1.329,-1.4611,-1.4886,-1.3664,-1.5034,-1.5425,-1.3943,-1.38,-1.3113,-1.1514,-1.1443,-1.1389,-1.1267,-1.1226,-1.1212,-1.1212,-1.107,-1.0846,-1.0541,-1.0426,-1.0141,-0.97,-0.9544,-0.9381,-0.9262,-0.9361,-0.9449,-0.9496,-0.9822,-1.0004,-1.0107,-1.0229,-1.0283,-1.0283,-1.0317,-1.0324,-1.0331,-1.0365,-1.119,-1.267,-1.5391,-1.6508,-1.6914,-1.8111,-1.8425,-1.8491,-1.8855,-1.8933,-1.8939,-1.9301,-1.943,-1.943,-1.943,-1.846,-1.7443,-1.7091,-1.4767,-1.2585,-1.2141,-1.0868,-0.9822,-0.9822,-0.9822,-0.9822,-0.9822,-0.9849,-0.9869,-0.9869,-0.9897,-0.9917,-0.9917,-0.989,-0.9964,-1.0209,-1.0263,-1.0283,-1.0283,-1.0555,-1.0704,-1.067,-1.0704,-1.0704,-1.067,-1.0704,-1.0717,-1.0717,-1.0717,-1.0717,-1.0717,-1.0717,-1.0717,-1.0717,-1.0717,-1.0717,-1.0717,-1.0717,-1.0738,-1.0792,-1.109,-1.128,-1.1409,-1.1558,-1.1619,-1.1619,-1.1619,-1.1619,-1.1619,-1.1396,-1.1369,-1.1328,-1.1185,-1.1287,-1.1389,-1.1389,-1.1518,-1.1678,-1.1794,-1.193,-1.2001,-1.1858,-1.2022,-1.2043,-1.19,-1.1828,-1.1756,-1.1599,-1.1599,-1.1592,-1.1579,-1.1443,-1.1369,-1.1369,-1.1219,-1.0995,-1.0697,-1.0683,-1.0446,-0.9943,-0.9849,-0.9632,-0.9367,-0.9517,-0.9659,-0.9788,-0.9909,-1.0134,-1.0263,-1.0276,-1.0283,-1.0297,-1.0426,-1.0473,-1.0487,-1.0629,-1.0743,-1.111,-1.2741,-1.414,-1.5216,-1.5381,-1.536,-1.5498,-1.6954,-1.7339,-1.756,-1.901,-1.943,-1.943,-1.943,-1.9301,-1.8765,-1.7325,-1.5666,-1.3944,-1.2491,-1.0884,-0.9822,-0.9822,-0.9822,-0.9822,-0.9822,-0.9876,-0.9963,-0.9963,-1.0148,-1.0236,-1.0236,-1.0114,-0.9977,-1.0004,-1.0202,-1.0283,-1.0283,-1.0555,-1.0663,-1.0521,-1.0643,-1.0656,-1.0521,-1.0649,-1.0717,-1.0717,-1.0717,-1.0717,-1.0717,-1.0717,-1.0717,-1.0717,-1.0717,-1.0717,-1.0717,-1.0717,-1.0799,-1.088,-1.1246,-1.1382,-1.1409,-1.1558,-1.1619,-1.1619,-1.1619,-1.1619,-1.1619,-1.1538,-1.1457,-1.1402,-1.143,-1.1409,-1.1423,-1.1511,-1.1579,-1.1619,-1.1619,-1.1619,-1.1619,-1.1619,-1.1619,-1.1619,-1.1619,-1.1619,-1.1619,-1.1619,-1.1619,-1.1619,-1.1619,-1.1558,-1.1531,-1.1531,-1.1382,-1.1199,-1.0989,-1.0806,-1.0582,-1.031,-1.0066,-0.9842,-0.9652,-0.9802,-0.9842,-0.9909,-1.0215,-1.0351,-1.0419,-1.0507,-1.0541,-1.0555,-1.0609,-1.0629,-1.0636,-1.0697,-1.0717,-1.0777,-1.1366,-1.2516,-1.3861,-1.4735,-1.4948,-1.5063,-1.5678,-1.586,-1.5968,-1.6574,-1.6714,-1.666,-1.666,-1.6547,-1.6326,-1.5725,-1.4302,-1.2961,-1.2243,-1.0815,-0.972,-0.9802,-0.9822,-0.9822,-0.9822,-0.9889,-0.9984,-0.9984,-1.0181,-1.0283,-1.0283,-1.0141,-1.0024,-1.0181,-1.0243,-1.0283,-1.0283,-1.0555,-1.0697,-1.0629,-1.0602,-1.0595,-1.0629,-1.0602,-1.0629,-1.0717,-1.0717,-1.0717,-1.0717,-1.0717,-1.0717,-1.0717,-1.0717,-1.0717,-1.0717,-1.0717,-1.0853,-1.1084,-1.1206,-1.1362,-1.1531,-1.1592,-1.1619,-1.1619,-1.1619,-1.1619,-1.1619,-1.1619,-1.1531,-1.1491,-1.1599,-1.1531,-1.1497,-1.1606,-1.1619,-1.1619,-1.1619,-1.1619,-1.1619,-1.1619,-1.1619,-1.1619,-1.1619,-1.1619,-1.1619,-1.1619,-1.1619,-1.1619,-1.1619,-1.1619,-1.1619,-1.1619,-1.1511,-1.1382,-1.1226,-1.1023,-1.0792,-1.0555,-1.0297,-1.012,-1.0025,-1.0166,-1.0247,-1.0267,-1.0582,-1.069,-1.0697,-1.0806,-1.0853,-1.0853,-1.0853,-1.0853,-1.0853,-1.0853,-1.0826,-1.0785,-1.0785,-1.1402,-1.2402,-1.3416,-1.3708,-1.3789,-1.4229,-1.437,-1.4447,-1.4883,-1.495,-1.483,-1.483,-1.4731,-1.463,-1.463,-1.3393,-1.2055,-1.1454,-1.0435,-0.97,-0.9802,-0.9822,-0.9836,-0.9883,-1.0019,-1.0134,-1.0112,-1.031,-1.0392,-1.0344,-1.0209,-1.0141,-1.0209,-1.0215,-1.0215,-1.0215,-1.0446,-1.0568,-1.0527,-1.0507,-1.0521,-1.0588,-1.0527,-1.0568,-1.0717,-1.0717,-1.0717,-1.0717,-1.0717,-1.0717,-1.0717,-1.0717,-1.0717,-1.0724,-1.0812,-1.0948,-1.1111,-1.1246,-1.1396,-1.1558,-1.1599,-1.1619,-1.1619,-1.1619,-1.1619,-1.1619,-1.1619,-1.1619,-1.1619,-1.1619,-1.1619,-1.1619,-1.1619,-1.1619,-1.1619,-1.1619,-1.1619,-1.1619,-1.1619,-1.1619,-1.1619,-1.1619,-1.1619,-1.1619,-1.1619,-1.1619,-1.1619,-1.1619,-1.1619,-1.1619,-1.1619,-1.1619,-1.1545,-1.1389,-1.1382,-1.1151,-1.0717,-1.0561,-1.0487,-1.0493,-1.0806,-1.0873,-1.088,-1.109,-1.122,-1.122,-1.1158,-1.1158,-1.1158,-1.1158,-1.1158,-1.1158,-1.1158,-1.1063,-1.088,-1.088,-1.0846,-1.0717,-1.0784,-1.0674,-1.0876,-1.2467,-1.2847,-1.308,-1.4572,-1.5008,-1.4998,-1.4998,-1.49,-1.4791,-1.4791,-1.3425,-1.1736,-1.0179,-0.9815,-0.9822,-0.9822,-0.9822,-0.9869,-0.9957,-1.0175,-1.0324,-1.0466,-1.0616,-1.0656,-1.0507,-1.0365,-1.0215,-1.0004,-0.999,-0.999,-0.999,-1.0195,-1.0215,-1.0004,-1.0331,-1.0426,-1.029,-1.0419,-1.0568,-1.0717,-1.0717,-1.0717,-1.0717,-1.0717,-1.0717,-1.0717,-1.0717,-1.0717,-1.0738,-1.1029,-1.1077,-1.0921,-1.143,-1.1525,-1.1409,-1.1558,-1.1619,-1.1619,-1.1619,-1.1619,-1.1619,-1.1619,-1.1619,-1.1647,-1.1748,-1.1762,-1.1796,-1.1904,-1.1918,-1.1918,-1.1918,-1.183,-1.1762,-1.1762,-1.1681,-1.1619,-1.1619,-1.1619,-1.1619,-1.1619,-1.1619,-1.1619,-1.1619,-1.1619,-1.1619,-1.1619,-1.1619,-1.1592,-1.1545,-1.1443,-1.1267,-1.1023,-1.0975,-1.0948,-1.0955,-1.105,-1.1097,-1.1097,-1.1145,-1.1234,-1.1234,-1.1234,-1.1234,-1.1234,-1.1234,-1.1234,-1.1234,-1.1234,-1.1131,-1.1097,-1.1097,-1.1063,-1.1023,-1.1023,-1.0846,-1.0709,-1.1235,-1.1388,-1.141,-1.193,-1.1968,-1.1939,-1.1939,-1.1728,-1.151,-1.151,-1.1019,-1.0422,-0.9883,-0.9822,-0.9822,-0.9822,-0.9849,-0.993,-0.9977,-1.0263,-1.0439,-1.0487,-1.0622,-1.0663,-1.0507,-1.0365,-1.0222,-1.0004,-0.9984,-0.9984,-0.9984,-1.0283,-1.0365,-1.0215,-1.0297,-1.0371,-1.0426,-1.0466,-1.0568,-1.0717,-1.0717,-1.0717,-1.0717,-1.0717,-1.0772,-1.0806,-1.0806,-1.0928,-1.1029,-1.1124,-1.1199,-1.126,-1.1402,-1.1497,-1.1552,-1.1599,-1.1619,-1.1619,-1.1619,-1.1619,-1.1619,-1.1789,-1.1789,-1.1816,-1.1904,-1.1918,-1.1952,-1.2047,-1.2135,-1.2135,-1.2135,-1.1925,-1.183,-1.183,-1.1701,-1.1619,-1.1619,-1.1619,-1.1619,-1.1619,-1.1619,-1.1619,-1.1619,-1.1619,-1.1619,-1.1619,-1.1619,-1.1619,-1.1619,-1.1463,-1.1341,-1.1246,-1.1246,-1.1246,-1.1253,-1.1307,-1.1335,-1.1335,-1.1335,-1.1335,-1.1335,-1.1335,-1.1335,-1.1335,-1.1335,-1.1335,-1.1335,-1.1335,-1.1301,-1.1246,-1.1246,-1.1212,-1.1234,-1.1234,-1.1036,-1.0873,-1.0819,-1.0806,-1.0725,-1.0738,-1.0649,-1.0575,-1.0575,-1.0399,-1.0125,-1.0011,-0.9869,-0.9822,-0.9822,-0.9822,-0.9836,-0.9897,-0.9923,-1.0024,-1.0195,-1.0371,-1.0514,-1.0568,-1.0663,-1.0643,-1.0439,-1.0337,-1.0222,-1.0004,-0.9984,-0.9984,-0.9984,-1.0276,-1.0351,-1.0202,-1.0297,-1.0378,-1.0412,-1.0466,-1.0568,-1.0717,-1.0717,-1.0717,-1.0717,-1.0778,-1.0786,-1.088,-1.1002,-1.1077,-1.1165,-1.1226,-1.1301,-1.1396,-1.145,-1.1531,-1.1619,-1.1619,-1.1619,-1.1619,-1.1619,-1.1619,-1.1619,-1.2135,-1.2135,-1.2067,-1.2074,-1.2081,-1.2155,-1.2169,-1.2169,-1.2169,-1.2169,-1.1959,-1.1864,-1.1864,-1.1735,-1.1647,-1.1633,-1.1626,-1.1619,-1.1619,-1.1619,-1.1619,-1.1619,-1.1619,-1.1619,-1.1619,-1.1619,-1.1619,-1.1619,-1.1477,-1.1409,-1.1409,-1.1409,-1.1409,-1.1416,-1.1558,-1.1619,-1.1619,-1.1619,-1.1619,-1.1619,-1.1619,-1.1619,-1.1619,-1.1619,-1.1619,-1.1619,-1.1619,-1.1531,-1.1409,-1.1409,-1.1314,-1.1261,-1.1261,-1.1261,-1.1165,-1.1009,-1.0894,-1.086,-1.0778,-1.0738,-1.0731,-1.0724,-1.0602,-1.0419,-1.0065,-0.9958,-0.9849,-0.9836,-0.9842,-0.989,-0.9963,-1.0004,-1.0168,-1.0446,-1.05,-1.0555,-1.0704,-1.0711,-1.0602,-1.0317,-1.0283,-1.0222,-1.0004,-0.9984,-0.9997,-1.0017,-1.0202,-1.0222,-1.0024,-1.0351,-1.0439,-1.0297,-1.0432,-1.0575,-1.0717,-1.0717,-1.0724,-1.0738,-1.0826,-1.09,-1.0914,-1.1118,-1.1255,-1.1206,-1.1348,-1.1409,-1.1416,-1.1558,-1.1619,-1.1619,-1.1619,-1.1619,-1.1619,-1.1619,-1.1619,-1.1619,-1.2135,-1.2135,-1.2101,-1.2216,-1.2237,-1.2271,-1.2379,-1.24,-1.24,-1.24,-1.2271,-1.2182,-1.2182,-1.2047,-1.1911,-1.1789,-1.1681,-1.1619,-1.1619,-1.1619,-1.1619,-1.1619,-1.1619,-1.1619,-1.1619,-1.1619,-1.1619,-1.1619,-1.1586,-1.1565,-1.1565,-1.1565,-1.1565,-1.1565,-1.1606,-1.1619,-1.1619,-1.1619,-1.1619,-1.1619,-1.1619,-1.1619,-1.1619,-1.1619,-1.1619,-1.1619,-1.1619,-1.1599,-1.1565,-1.1565,-1.1545,-1.1511,-1.1511,-1.1511,-1.1457,-1.1192,-1.1111,-1.1084,-1.0867,-1.0826,-1.0799,-1.0751,-1.0602,-1.0446,-1.0263,-1.0195,-1.0141,-0.9957,-1.0086,-1.0148,-1.0004,-1.0236,-1.0412,-1.048,-1.0588,-1.0677,-1.0717,-1.0622,-1.048,-1.0304,-1.0283,-1.0222,-1.0004,-0.9984,-1.0078,-1.0371,-1.0324,-1.031,-1.0385,-1.0568,-1.0595,-1.0446,-1.0588,-1.0683,-1.0717,-1.0717,-1.0778,-1.0826,-1.1043,-1.1172,-1.1287,-1.1321,-1.1402,-1.1511,-1.1552,-1.1565,-1.1565,-1.1606,-1.1619,-1.1619,-1.1619,-1.1619,-1.1619,-1.1619,-1.1619,-1.1619,-1.2264,-1.2264,-1.2291,-1.2372,-1.2386,-1.2413,-1.2488,-1.2501,-1.2501,-1.2501,-1.2379,-1.2291,-1.2291,-1.2155,-1.2026,-1.1945,-1.1803,-1.1687,-1.1619,-1.1619,-1.1619,-1.1619,-1.1619,-1.1619,-1.1619,-1.1619,-1.1619,-1.1619,-1.1619,-1.1619,-1.1619,-1.1619,-1.1619,-1.1619,-1.1619,-1.1619,-1.1619,-1.1619,-1.1619,-1.1619,-1.1619,-1.1619,-1.1619,-1.1619,-1.1619,-1.1619,-1.1619,-1.1619,-1.1619,-1.1619,-1.1619,-1.1619,-1.1619,-1.1619,-1.1586,-1.1423,-1.1321,-1.1233,-1.109,-1.0995,-1.0847,-1.0758,-1.0602,-1.0473,-1.0392,-1.0324,-1.0256,-1.0175,-1.0222,-1.0276,-1.0256,-1.0385,-1.0514,-1.0582,-1.0609,-1.0616,-1.0616,-1.0487,-1.0337,-1.0195,-1.0236,-1.0249,-1.0161,-1.0215,-1.0317,-1.048,-1.0487,-1.0487,-1.0493,-1.0636,-1.0649,-1.0493,-1.0643,-1.0751,-1.0759,-1.0887,-1.0962,-1.105,-1.1199,-1.1307,-1.1396,-1.1463,-1.1538,-1.1619,-1.1619,-1.1619,-1.1619,-1.1619,-1.1619,-1.1619,-1.1619,-1.1619,-1.1619,-1.1619,-1.1619,-1.1619,-1.2501,-1.2501,-1.2501,-1.2501,-1.2501,-1.2501,-1.2501,-1.2501,-1.2501,-1.2501,-1.24,-1.2325,-1.2325,-1.2203,-1.2121,-1.2101,-1.1979,-1.1837,-1.1694,-1.1687,-1.1674,-1.1653,-1.1653,-1.164,-1.1619,-1.1619,-1.1619,-1.1619,-1.1619,-1.1619,-1.1619,-1.1619,-1.1619,-1.1619,-1.1619,-1.1619,-1.1619,-1.1619,-1.1619,-1.1619,-1.1619,-1.1619,-1.1619,-1.1619,-1.1619,-1.1619,-1.1619,-1.1619,-1.1619,-1.1619,-1.1619,-1.1619,-1.1619,-1.1619,-1.1619,-1.1619,-1.1531,-1.1396,-1.124,-1.1077,-1.0847,-1.0758,-1.0622,-1.0527,-1.0527,-1.0432,-1.0337,-1.0317,-1.0331,-1.0378,-1.0473,-1.0514,-1.0568,-1.0697,-1.0609,-1.0521,-1.0493,-1.0371,-1.0236,-1.01,-1.0202,-1.029,-1.031,-1.0419,-1.05,-1.0527,-1.0622,-1.0636,-1.0534,-1.0649,-1.067,-1.0561,-1.0683,-1.0826,-1.0914,-1.1124,-1.1199,-1.1199,-1.1355,-1.1423,-1.143,-1.1558,-1.1619,-1.1619,-1.1619,-1.1619,-1.1619,-1.1619,-1.1619,-1.1619,-1.1619,-1.1619,-1.1619,-1.1619,-1.1619,-1.1619,-1.2501,-1.2501,-1.2501,-1.2501,-1.2501,-1.2501,-1.2501,-1.2501,-1.2501,-1.2501,-1.2481,-1.2467,-1.2467,-1.2447,-1.2386,-1.2264,-1.223,-1.2155,-1.2006,-1.1993,-1.1932,-1.1803,-1.1796,-1.1742,-1.1619,-1.1619,-1.1619,-1.1619,-1.1619,-1.1619,-1.1619,-1.1619,-1.1619,-1.1619,-1.1619,-1.1619,-1.1619,-1.1619,-1.1619,-1.1619,-1.1619,-1.1619,-1.1619,-1.1619,-1.1619,-1.1619,-1.1619,-1.1619,-1.1619,-1.1619,-1.1619,-1.1619,-1.1619,-1.1619,-1.1619,-1.1619,-1.1599,-1.1552,-1.1396,-1.1158,-1.0847,-1.0758,-1.0704,-1.0683,-1.0683,-1.067,-1.0616,-1.0487,-1.0561,-1.0622,-1.0514,-1.0595,-1.069,-1.0717,-1.0704,-1.0636,-1.0507,-1.0371,-1.027,-1.0249,-1.0263,-1.0331,-1.0446,-1.048,-1.0548,-1.0677,-1.0588,-1.0575,-1.0677,-1.0711,-1.0772,-1.0806,-1.0833,-1.0982,-1.1131,-1.128,-1.1355,-1.1355,-1.1511,-1.1586,-1.1586,-1.1606,-1.1619,-1.1619,-1.1619,-1.1619,-1.1619,-1.1619,-1.1619,-1.1619,-1.1619,-1.1619,-1.1619,-1.1619,-1.1619,-1.1619,-1.2501,-1.2501,-1.2501,-1.2501,-1.2501,-1.2501,-1.2501,-1.2501,-1.2501,-1.2501,-1.2501,-1.2501,-1.2501,-1.2501,-1.2474,-1.2413,-1.2406,-1.2372,-1.2305,-1.2149,-1.1993,-1.1837,-1.183,-1.1762,-1.1619,-1.1619,-1.1619,-1.1619,-1.1619,-1.1619,-1.1619,-1.1619,-1.1619,-1.1619,-1.1619,-1.1619,-1.1619,-1.1619,-1.1619,-1.1619,-1.1619,-1.1619,-1.1619,-1.1619,-1.1619,-1.1619,-1.1619,-1.1619,-1.1619,-1.1619,-1.1619,-1.1619,-1.1619,-1.1619,-1.1619,-1.1619,-1.1619,-1.1586,-1.1436,-1.1294,-1.1131,-1.09,-1.0846,-1.0819,-1.0738,-1.0717,-1.0704,-1.0629,-1.067,-1.0697,-1.0629,-1.067,-1.0717,-1.0717,-1.0649,-1.0575,-1.05,-1.0371,-1.0283,-1.0283,-1.0344,-1.0419,-1.0487,-1.0568,-1.0643,-1.0717,-1.0656,-1.0643,-1.0717,-1.0799,-1.0907,-1.1056,-1.1145,-1.1219,-1.1287,-1.1436,-1.1511,-1.1518,-1.1586,-1.1619,-1.1619,-1.1619,-1.1619,-1.1619,-1.1619,-1.1619,-1.1619,-1.1619,-1.1619,-1.1619,-1.1619,-1.1619,-1.1619,-1.1619,-1.1619,-1.1619,-1.2596,-1.2576,-1.2569,-1.2603,-1.261,-1.2596,-1.2562,-1.2556,-1.2542,-1.2508,-1.2501,-1.2501,-1.2501,-1.2501,-1.2501,-1.2501,-1.2501,-1.2501,-1.2501,-1.2291,-1.2094,-1.1945,-1.187,-1.1782,-1.1674,-1.164,-1.1619,-1.1619,-1.1619,-1.1619,-1.1619,-1.1619,-1.1619,-1.1619,-1.1619,-1.1619,-1.1619,-1.1619,-1.1619,-1.1619,-1.1619,-1.1619,-1.1619,-1.1619,-1.1619,-1.1619,-1.1619,-1.1619,-1.1619,-1.1619,-1.1619,-1.1619,-1.1619,-1.1619,-1.1619,-1.1619,-1.1619,-1.1586,-1.1436,-1.1389,-1.1328,-1.1063,-1.0995,-1.0968,-1.0846,-1.0799,-1.0772,-1.0772,-1.0744,-1.0717,-1.0717,-1.0717,-1.0717,-1.0717,-1.0622,-1.0534,-1.0493,-1.0399,-1.0331,-1.0331,-1.0426,-1.0507,-1.0541,-1.0649,-1.0717,-1.0717,-1.0717,-1.0738,-1.0772,-1.082,-1.1029,-1.1212,-1.1362,-1.1443,-1.1443,-1.1558,-1.1619,-1.1619,-1.1619,-1.1619,-1.1619,-1.1619,-1.1619,-1.1619,-1.1619,-1.1619,-1.1619,-1.1619,-1.1619,-1.1619,-1.1619,-1.1619,-1.1619,-1.1619,-1.1619,-1.1619,-1.2874,-1.2813,-1.2759,-1.2901,-1.2929,-1.2881,-1.2732,-1.2712,-1.2664,-1.2522,-1.2501,-1.2501,-1.2501,-1.2501,-1.2501,-1.2501,-1.2501,-1.2501,-1.2501,-1.2481,-1.2406,-1.2264,-1.1986,-1.1823,-1.1816,-1.1687,-1.1619,-1.1619,-1.1619,-1.1619,-1.1619,-1.1619,-1.1619,-1.1619,-1.1619,-1.1619,-1.1619,-1.1619,-1.1619,-1.1619,-1.1619,-1.1619,-1.1619,-1.1619,-1.1619,-1.1619,-1.1619,-1.1619,-1.1619,-1.1619,-1.1619,-1.1619,-1.1619,-1.1619,-1.1619,-1.1619,-1.1619,-1.1586,-1.1436,-1.1389,-1.1355,-1.1185,-1.1145,-1.1214,-1.12,-1.1029,-1.086,-1.086,-1.0819,-1.0717,-1.0717,-1.0717,-1.0717,-1.0717,-1.0711,-1.0656,-1.0514,-1.048,-1.0473,-1.0473,-1.0487,-1.0548,-1.069,-1.0711,-1.0717,-1.0717,-1.0717,-1.0778,-1.0853,-1.0873,-1.1077,-1.1362,-1.1525,-1.1599,-1.1599,-1.1613,-1.1619,-1.1619,-1.1619,-1.1619,-1.1619,-1.1619,-1.1619,-1.1619,-1.1619,-1.1619,-1.1619,-1.1619,-1.1619,-1.1619,-1.1619,-1.1619,-1.1619,-1.1619,-1.1619,-1.1619,-1.2935,-1.2915,-1.2895,-1.2949,-1.2881,-1.28,-1.2739,-1.2651,-1.2569,-1.2508,-1.2501,-1.2501,-1.2501,-1.2501,-1.2501,-1.2501,-1.2501,-1.2501,-1.2501,-1.2501,-1.244,-1.2298,-1.2088,-1.1972,-1.1972,-1.183,-1.1748,-1.1748,-1.166,-1.1619,-1.1619,-1.1619,-1.1619,-1.1619,-1.1619,-1.1619,-1.1619,-1.1619,-1.1619,-1.1619,-1.1619,-1.1619,-1.1619,-1.1619,-1.1619,-1.1619,-1.1619,-1.1619,-1.1619,-1.1619,-1.1619,-1.1619,-1.1619,-1.1619,-1.1619,-1.1619,-1.1619,-1.1606,-1.1552,-1.1531,-1.1497,-1.1341,-1.1307,-1.128,-1.1255,-1.1118,-1.1056,-1.09,-1.0975,-1.0941,-1.0751,-1.0799,-1.0833,-1.0738,-1.0717,-1.0697,-1.0643,-1.0636,-1.0636,-1.0636,-1.0636,-1.0656,-1.0717,-1.0717,-1.0717,-1.0717,-1.0806,-1.082,-1.088,-1.1124,-1.1321,-1.1525,-1.1592,-1.1619,-1.1619,-1.1619,-1.1619,-1.1619,-1.1619,-1.1619,-1.1619,-1.1619,-1.1619,-1.1619,-1.1619,-1.1619,-1.1619,-1.1619,-1.1619,-1.1619,-1.1619,-1.1619,-1.1619,-1.1619,-1.1619,-1.1619,-1.3078,-1.3057,-1.3044,-1.3091,-1.301,-1.2922,-1.2874,-1.2739,-1.263,-1.2576,-1.2528,-1.2501,-1.2501,-1.2501,-1.2501,-1.2501,-1.2501,-1.2501,-1.2501,-1.2501,-1.2461,-1.2359,-1.221,-1.2135,-1.2135,-1.1979,-1.1877,-1.183,-1.1735,-1.166,-1.1619,-1.1619,-1.1619,-1.1619,-1.1667,-1.166,-1.1619,-1.1667,-1.166,-1.1619,-1.1667,-1.166,-1.1626,-1.1667,-1.166,-1.1619,-1.1619,-1.1619,-1.1619,-1.1619,-1.1619,-1.1619,-1.1619,-1.1619,-1.1619,-1.1619,-1.1619,-1.1619,-1.1619,-1.1619,-1.1592,-1.1491,-1.1463,-1.1436,-1.1328,-1.1267,-1.1206,-1.1111,-1.1131,-1.1104,-1.0894,-1.0941,-1.0982,-1.0873,-1.086,-1.086,-1.086,-1.0819,-1.0792,-1.0792,-1.0751,-1.0717,-1.0717,-1.0765,-1.0792,-1.0792,-1.0934,-1.1036,-1.1015,-1.1328,-1.1511,-1.1613,-1.1619,-1.1619,-1.1619,-1.1619,-1.1619,-1.1619,-1.1619,-1.1619,-1.1619,-1.1619,-1.1619,-1.1619,-1.1619,-1.1619,-1.1619,-1.1619,-1.1619,-1.1619,-1.1619,-1.1619,-1.1619,-1.1619,-1.1619,-1.1619,-1.3342,-1.3275,-1.322,-1.3376,-1.3397,-1.3349,-1.3193,-1.3051,-1.2908,-1.2752,-1.2596,-1.2501,-1.2501,-1.2501,-1.2501,-1.2501,-1.2501,-1.2501,-1.2501,-1.2501,-1.2501,-1.2501,-1.2366,-1.2291,-1.2291,-1.2142,-1.1986,-1.1837,-1.183,-1.1762,-1.1619,-1.1619,-1.1619,-1.1626,-1.1769,-1.1755,-1.1633,-1.1775,-1.1748,-1.1633,-1.1775,-1.1748,-1.164,-1.1782,-1.1742,-1.1619,-1.1619,-1.1619,-1.1619,-1.1619,-1.1619,-1.1619,-1.1619,-1.1619,-1.1619,-1.1619,-1.1619,-1.1619,-1.1619,-1.1619,-1.1619,-1.1619,-1.1619,-1.1619,-1.1619,-1.1504,-1.1396,-1.1389,-1.1274,-1.1165,-1.1234,-1.1234,-1.1234,-1.1234,-1.1234,-1.1234,-1.1234,-1.1036,-1.088,-1.088,-1.0745,-1.0724,-1.0724,-1.0793,-1.088,-1.088,-1.1084,-1.1233,-1.1382,-1.1538,-1.1619,-1.1619,-1.1619,-1.1619,-1.1619,-1.1619,-1.1619,-1.1619,-1.1619,-1.1619,-1.1619,-1.1619,-1.1619,-1.1619,-1.1619,-1.1619,-1.1619,-1.1619,-1.1619,-1.1619,-1.1619,-1.1619,-1.1619,-1.1619,-1.1619,-1.1619,-1.3383,-1.3363,-1.3349,-1.339,-1.3308,-1.3227,-1.318,-1.3051,-1.2942,-1.2901,-1.2759,-1.2664,-1.2664,-1.2569,-1.2501,-1.2501,-1.2501,-1.2501,-1.2501,-1.2501,-1.2501,-1.2501,-1.2461,-1.244,-1.244,-1.2298,-1.2196,-1.2155,-1.2047,-1.1972,-1.1932,-1.1932,-1.1932,-1.1932,-1.1972,-1.1972,-1.1932,-1.1972,-1.1965,-1.1932,-1.1979,-1.1965,-1.1932,-1.1979,-1.1898,-1.1769,-1.1769,-1.1701,-1.1619,-1.1619,-1.1619,-1.1619,-1.1619,-1.1619,-1.1619,-1.1619,-1.1619,-1.1619,-1.1619,-1.1619,-1.1619,-1.1619,-1.1619,-1.1619,-1.1619,-1.1586,-1.1518,-1.1416,-1.1443,-1.1416,-1.1206,-1.1253,-1.1287,-1.1248,-1.1234,-1.1234,-1.1234,-1.1124,-1.1063,-1.0894,-1.084,-1.0813,-1.0813,-1.0853,-1.0989,-1.109,-1.124,-1.1389,-1.1545,-1.1592,-1.1619,-1.1619,-1.1619,-1.1619,-1.1619,-1.1619,-1.1619,-1.1619,-1.1619,-1.1619,-1.1619,-1.1619,-1.1619,-1.1619,-1.1619,-1.1619,-1.1619,-1.1619,-1.1619,-1.1619,-1.1619,-1.1619,-1.1619,-1.1619,-1.1619,-1.1619,-1.3403,-1.3403,-1.3403,-1.3403,-1.3322,-1.3261,-1.3261,-1.3139,-1.3024,-1.305,-1.2827,-1.2705,-1.2644,-1.2556,-1.2501,-1.2501,-1.2501,-1.2501,-1.2501,-1.2501,-1.2501,-1.2501,-1.2501,-1.2501,-1.2501,-1.242,-1.2345,-1.2291,-1.2196,-1.2121,-1.2135,-1.2135,-1.2135,-1.2067,-1.2128,-1.2121,-1.2067,-1.2128,-1.2121,-1.2067,-1.2128,-1.2115,-1.2142,-1.2128,-1.2054,-1.1925,-1.1925,-1.1864,-1.1796,-1.1796,-1.1755,-1.1694,-1.164,-1.1619,-1.1619,-1.1619,-1.1619,-1.1619,-1.1619,-1.1619,-1.1619,-1.1619,-1.1619,-1.1619,-1.1619,-1.1619,-1.1592,-1.1497,-1.1552,-1.1565,-1.1375,-1.1416,-1.145,-1.1355,-1.1341,-1.1341,-1.1341,-1.1294,-1.1219,-1.1131,-1.107,-1.1029,-1.1029,-1.109,-1.1185,-1.1335,-1.143,-1.1518,-1.1613,-1.1619,-1.1619,-1.1619,-1.1619,-1.1619,-1.1619,-1.1619,-1.1619,-1.1619,-1.1619,-1.1619,-1.1619,-1.1619,-1.1619,-1.1619,-1.1619,-1.1619,-1.1619,-1.1619,-1.1619,-1.1619,-1.1619,-1.1619,-1.1619,-1.1619,-1.1619,-1.1619,-1.3403,-1.3403,-1.3403,-1.3403,-1.3403,-1.3403,-1.3403,-1.3268,-1.3125,-1.2996,-1.2834,-1.2678,-1.2535,-1.2508,-1.2501,-1.2501,-1.2501,-1.2501,-1.2501,-1.2501,-1.2501,-1.2501,-1.2501,-1.2501,-1.2501,-1.2501,-1.244,-1.2311,-1.2311,-1.2237,-1.2176,-1.2176,-1.2176,-1.2108,-1.2244,-1.223,-1.2108,-1.225,-1.223,-1.2115,-1.225,-1.2223,-1.2115,-1.2257,-1.2216,-1.2081,-1.2081,-1.2074,-1.2135,-1.2135,-1.1959,-1.1809,-1.1681,-1.1633,-1.1619,-1.1619,-1.1619,-1.1619,-1.1619,-1.1619,-1.1619,-1.1619,-1.1619,-1.1619,-1.1619,-1.1619,-1.1619,-1.1619,-1.1619,-1.1619,-1.1619,-1.1619,-1.1619,-1.1619,-1.1619,-1.1619,-1.1619,-1.1497,-1.1409,-1.1396,-1.1267,-1.1255,-1.1255,-1.1321,-1.147,-1.1606,-1.1619,-1.1619,-1.1619,-1.1619,-1.1619,-1.1619,-1.1619,-1.1619,-1.1619,-1.1619,-1.1619,-1.1619,-1.1619,-1.1619,-1.1619,-1.1619,-1.1619,-1.1619,-1.1619,-1.1619,-1.1619,-1.1619,-1.1619,-1.1619,-1.1619,-1.1619,-1.1619,-1.1619,-1.1619,-1.1619,-1.3403,-1.3403,-1.3403,-1.3403,-1.3403,-1.3403,-1.3403,-1.3268,-1.3159,-1.3132,-1.2895,-1.2718,-1.2684,-1.2576,-1.2501,-1.2501,-1.2501,-1.2501,-1.2501,-1.2501,-1.2501,-1.2501,-1.2501,-1.2501,-1.2501,-1.2501,-1.2488,-1.2454,-1.2454,-1.244,-1.2406,-1.2406,-1.2406,-1.2406,-1.244,-1.2433,-1.2406,-1.244,-1.2433,-1.2406,-1.244,-1.2433,-1.2413,-1.244,-1.2366,-1.2244,-1.2244,-1.2162,-1.2135,-1.2135,-1.1959,-1.1823,-1.1796,-1.1708,-1.1619,-1.1619,-1.1619,-1.1619,-1.1619,-1.1619,-1.1619,-1.1619,-1.1619,-1.1619,-1.1619,-1.1619,-1.1619,-1.1619,-1.1619,-1.1619,-1.1619,-1.1619,-1.1619,-1.1619,-1.1619,-1.1619,-1.1619,-1.1592,-1.1525,-1.1402,-1.1362,-1.1341,-1.1341,-1.1484,-1.1586,-1.1619,-1.1619,-1.1619,-1.1619,-1.1619,-1.1619,-1.1619,-1.1619,-1.1619,-1.1619,-1.1619,-1.1619,-1.1619,-1.1619,-1.1619,-1.1619,-1.1619,-1.1619,-1.1619,-1.1619,-1.1619,-1.1619,-1.1619,-1.1619,-1.1619,-1.1619,-1.1619,-1.1619,-1.1619,-1.1619,-1.1619,-1.3403,-1.3403,-1.3403,-1.3403,-1.3403,-1.3376,-1.3302,-1.322,-1.3119,-1.2976,-1.2827,-1.2705,-1.263,-1.2549,-1.2501,-1.2501,-1.2501,-1.2501,-1.2501,-1.2501,-1.2535,-1.261,-1.2542,-1.2535,-1.261,-1.2535,-1.2501,-1.2501,-1.2501,-1.2501,-1.2501,-1.2501,-1.2501,-1.2501,-1.2501,-1.2501,-1.2501,-1.2501,-1.2501,-1.2501,-1.2501,-1.2501,-1.2501,-1.2501,-1.2454,-1.2393,-1.2393,-1.2338,-1.2264,-1.2196,-1.2115,-1.204,-1.1965,-1.1891,-1.1816,-1.1742,-1.1721,-1.1708,-1.164,-1.1619,-1.1619,-1.1619,-1.1619,-1.1619,-1.1619,-1.1619,-1.1619,-1.1619,-1.1619,-1.1619,-1.1619,-1.1619,-1.1619,-1.1619,-1.1619,-1.1619,-1.1619,-1.1619,-1.1592,-1.1511,-1.1497,-1.1497,-1.1497,-1.1572,-1.1619,-1.1619,-1.1619,-1.1619,-1.1619,-1.1619,-1.1619,-1.1619,-1.1619,-1.1619,-1.1619,-1.1619,-1.1619,-1.1619,-1.1619,-1.1619,-1.1619,-1.1619,-1.1619,-1.1619,-1.1619,-1.1619,-1.1619,-1.1619,-1.1619,-1.1619,-1.1619,-1.1619,-1.1619,-1.1619,-1.1619,-1.1619,-1.3403,-1.3403,-1.3403,-1.3403,-1.3376,-1.3315,-1.3193,-1.3152,-1.3051,-1.28,-1.2766,-1.2712,-1.2556,-1.2542,-1.2528,-1.2501,-1.2528,-1.2528,-1.2501,-1.2501,-1.2556,-1.2684,-1.2569,-1.2576,-1.2725,-1.2583,-1.2501,-1.2501,-1.2501,-1.2501,-1.2501,-1.2501,-1.2501,-1.2501,-1.2501,-1.2501,-1.2501,-1.2501,-1.2501,-1.2501,-1.2501,-1.2501,-1.2501,-1.2501,-1.2501,-1.2501,-1.2501,-1.2501,-1.2481,-1.2366,-1.2311,-1.2271,-1.2142,-1.2081,-1.204,-1.1904,-1.185,-1.1803,-1.1687,-1.164,-1.1619,-1.1619,-1.1619,-1.1619,-1.1619,-1.1619,-1.1619,-1.1619,-1.1619,-1.1619,-1.1619,-1.1619,-1.1619,-1.1619,-1.1619,-1.1619,-1.1619,-1.1619,-1.1619,-1.1619,-1.1619,-1.1619,-1.1619,-1.1619,-1.1619,-1.1619,-1.1619,-1.1619,-1.1619,-1.1619,-1.1619,-1.1619,-1.1619,-1.1619,-1.1619,-1.1619,-1.1619,-1.1619,-1.1619,-1.1619,-1.1619,-1.1619,-1.1619,-1.1619,-1.1619,-1.1619,-1.1619,-1.1619,-1.1619,-1.1619,-1.1619,-1.1619,-1.1619,-1.1619,-1.1619,-1.1619,-1.3403,-1.3403,-1.3403,-1.3403,-1.3295,-1.32,-1.3173,-1.3071,-1.2976,-1.2935,-1.2929,-1.2868,-1.2718,-1.2698,-1.2644,-1.2515,-1.2623,-1.2644,-1.2508,-1.2501,-1.2508,-1.2528,-1.2515,-1.2576,-1.2725,-1.2583,-1.2501,-1.2501,-1.2501,-1.2501,-1.2501,-1.2501,-1.2501,-1.2501,-1.2501,-1.2501,-1.2501,-1.2501,-1.2501,-1.2501,-1.2501,-1.2501,-1.2501,-1.2501,-1.2501,-1.2501,-1.2501,-1.2501,-1.2501,-1.2481,-1.2393,-1.2284,-1.2264,-1.2169,-1.206,-1.204,-1.1938,-1.183,-1.1809,-1.1714,-1.1619,-1.1619,-1.1619,-1.1619,-1.1619,-1.1619,-1.1619,-1.1619,-1.1619,-1.1619,-1.1619,-1.1619,-1.1619,-1.1619,-1.1619,-1.1619,-1.1619,-1.1619,-1.1619,-1.1619,-1.1619,-1.1619,-1.1619,-1.1619,-1.1619,-1.1619,-1.1619,-1.1619,-1.1619,-1.1619,-1.1619,-1.1619,-1.1619,-1.1619,-1.1619,-1.1619,-1.1619,-1.1619,-1.1619,-1.1619,-1.1619,-1.1619,-1.1619,-1.1619,-1.1619,-1.1619,-1.1619,-1.1619,-1.1619,-1.1619,-1.1619,-1.1619,-1.1619,-1.1619,-1.1619,-1.1619,-1.3403,-1.3403,-1.3403,-1.3403,-1.3342,-1.3268,-1.3186,-1.3119,-1.3051,-1.2969,-1.2963,-1.2901,-1.2745,-1.2732,-1.2739,-1.2759,-1.282,-1.2793,-1.2637,-1.263,-1.2664,-1.2752,-1.2678,-1.2698,-1.2854,-1.2705,-1.2589,-1.2501,-1.2501,-1.2501,-1.2501,-1.2501,-1.2501,-1.2501,-1.2501,-1.2501,-1.2501,-1.2501,-1.2501,-1.2501,-1.2501,-1.2501,-1.2501,-1.2501,-1.2501,-1.2501,-1.2501,-1.2501,-1.2501,-1.2501,-1.2461,-1.2406,-1.2406,-1.2366,-1.2291,-1.221,-1.2142,-1.2067,-1.1986,-1.185,-1.1735,-1.1735,-1.1681,-1.1619,-1.1619,-1.1619,-1.1619,-1.1619,-1.1619,-1.1619,-1.1619,-1.1619,-1.1619,-1.1619,-1.1619,-1.1619,-1.1619,-1.1619,-1.1619,-1.1619,-1.1619,-1.1619,-1.1619,-1.1619,-1.1619,-1.1619,-1.1619,-1.1619,-1.1619,-1.1619,-1.1619,-1.1619,-1.1619,-1.1619,-1.1619,-1.1619,-1.1619,-1.1619,-1.1619,-1.1619,-1.1619,-1.1619,-1.1619,-1.1619,-1.1619,-1.1619,-1.1619,-1.1619,-1.1619,-1.1619,-1.1619,-1.1619,-1.1619,-1.1619,-1.1619,-1.1619]},{"header":{"parameterUnit":"m.s-1","parameterCategory":1,"la1":30.6,"la2":28.766,"lo1":-90.7593,"lo2":-88.6598,"dy":0.0162,"dx":0.0183,"nx":116,"ny":114,"refTime":"2024-06-16T18:00:00:Z","depth":0,"parameterNumber":3,"parameterNumberName":"V-component_of_WINDS"},"data":[0.0,0.0,0.0,0.0,0.0,0.0,0.0,0.0,0.0,0.0,0.0,0.0,0.0,0.0,0.0,0.0,0.0,0.0,0.0,0.0,0.0,0.0,0.0,0.0,0.0,0.0,0.0,0.0,0.0,0.0,0.0,0.0,0.0,0.0,0.0,0.0,0.0,0.0,0.0,0.0,0.0,0.0,0.0,0.0,0.0,0.0,0.0,0.0,0.0,0.0,0.0,0.0,0.0,0.0,0.0,0.0,0.0,0.0,0.0,0.0,0.0,0.0,0.0,0.0,0.0,0.0,0.0,0.0,0.0,0.0,0.0,0.0,0.0,0.0,0.0,0.0,0.0,0.0,0.0,0.0,0.0,0.0,0.0,0.0,0.0,0.0,0.0,0.0,0.0,0.0,0.0,0.0,0.0,0.0,0.0,0.0,0.0,0.0,0.0,0.0,0.0,0.0,0.0,0.0,0.0,0.0,0.0,0.0,0.0,0.0,0.0,0.0,0.0,0.0,0.0,0.0,0.0,0.0,0.0,0.0,0.0,0.0,0.0,0.0,0.0,0.0,0.0,0.0,0.0,0.0,0.0,0.0,0.0,0.0,0.0,0.0,0.0,0.0,0.0,0.0,0.0,0.0,0.0,0.0,0.0,0.0,0.0,0.0,0.0,0.0,0.0,0.0,0.0,0.0,0.0,0.0,0.0,0.0,0.0,0.0,0.0,0.0,0.0,0.0,0.0,0.0,0.0,0.0,0.0,0.0,0.0,0.0,0.0,0.0,0.0,0.0,0.0,0.0,0.0,0.0,0.0,0.0,0.0,0.0,0.0,0.0,0.0,0.0,0.0,0.0,0.0,0.0,0.0,0.0,0.0,0.0,0.0,0.0,0.0,0.0,0.0,0.0,0.0,0.0,0.0,0.0,0.0,0.0,0.0,0.0,0.0,0.0,0.0,0.0,0.0,0.0,0.0,0.0,0.0,0.0,0.0,0.0,0.0,0.0,0.0,0.0,0.0,0.0,0.0,0.0,0.0,0.0,0.0,0.0,0.0,0.0,0.0,0.0,0.0,0.0,0.0,0.0,0.0,0.0,0.0,0.0,0.0,0.0,0.0,0.0,0.0,0.0,0.0,0.0,0.0,0.0,0.0,0.0,0.0,0.0,0.0,0.0,0.0,0.0,0.0,0.0,0.0,0.0,0.0,0.0,0.0,0.0,0.0,0.0,0.0,0.0,0.0,0.0,0.0,0.0,0.0,0.0,0.0,0.0,0.0,0.0,0.0,0.0,0.0,0.0,0.0,0.0,0.0,0.0,0.0,0.0,0.0,0.0,0.0,0.0,0.0,0.0,0.0,0.0,0.0,0.0,0.0,0.0,0.0,0.0,0.0,0.0,0.0,0.0,0.0,0.0,0.0,0.0,0.0,0.0,0.0,0.0,0.0,0.0,0.0,0.0,0.0,0.0,0.0,0.0,0.0,0.0,0.0,0.0,0.0,0.0,0.0,0.0,0.0,0.0,0.0,0.0,0.0,0.0,0.0,0.0,0.0,0.0,0.0,0.0,0.0,0.0,0.0,0.0,0.0,0.0,0.0,0.0,0.0,0.0,0.0,0.0,0.0,0.0,0.0,0.0,0.0,0.0,0.0,0.0,0.0,0.0,0.0,0.0,0.0,0.0,0.0,0.0,0.0,0.0,0.0,0.0,0.0,0.0,0.0,0.0,0.0,0.0,0.0,0.0,0.0,0.0,0.0,0.0,0.0,0.0,0.0,0.0,0.0,0.0,0.0,0.0,0.0,0.0,0.0,0.0,0.0,0.0,0.0,0.0,0.0,0.0,0.0,0.0,0.0,0.0,0.0,0.0,0.0,0.0,0.0,0.0,0.0,0.0,0.0,0.0,0.0,0.0,0.0,0.0,0.0,0.0,0.0,0.0,0.0,0.0,0.0,0.0,0.0,0.0,0.0,0.0,0.0,0.0,0.0,0.0,0.0,0.0,0.0,0.0,0.0,0.0,0.0,0.0,0.0,0.0,0.0,0.0,0.0,0.0,0.0,0.0,0.0,0.0,0.0,0.0,0.0,0.0,0.0,0.0,0.0,0.0,0.0,0.0,0.0,0.0,0.0,0.0,0.0,0.0,0.0,0.0,0.0,0.0,0.0,0.0,0.0,0.0,0.0,0.0,0.0,0.0,0.0,0.0,0.0,0.0,0.0,0.0,0.0,0.0,0.0,0.0,0.0,0.0,0.0,0.0,0.0,0.0,0.0,0.0,0.0,0.0,0.0,0.0,0.0,0.0,0.0,0.0,0.0,0.0,0.0,0.0,0.0,0.0,0.0,0.0,0.0,0.0,0.0,0.0,0.0,0.0,0.0,0.0,0.0,0.0,0.0,0.0,0.0,0.0,0.0,0.0,0.0,0.0,0.0,0.0,0.0,0.0,0.0,0.0,0.0,0.0,0.0,0.0,0.0,0.0,0.0,0.0,0.0,0.0,0.0,0.0,0.0,0.0,0.0,0.0,0.0,0.0,0.0,0.0,0.0,0.0,0.0,0.0,0.0,0.0,0.0,0.0,0.0,0.0,0.0,0.0,0.0,0.0,0.0,0.0,0.0,0.0,0.0,0.0,0.0,0.0,0.0,0.0,0.0,0.0,0.0,0.0,0.0,0.0,0.0,0.0,0.0,0.0,0.0,0.0,0.0,0.0,0.0,0.0,0.0,0.0,0.0,0.0,0.0,0.0,0.0,0.0,0.0,0.0,0.0,0.0,0.0,0.0,0.0,0.0,0.0,0.0,0.0,0.0,0.0,0.0,0.0,0.0,0.0,0.0,0.0,0.0,0.0,0.0,0.0,0.0,0.0,0.0,0.0,0.0,0.0,0.0,0.0,0.0,0.0,0.0,0.0,0.0,0.0,0.0,0.0,0.0,0.0,0.0,0.0,0.0,0.0,0.0,0.0,0.0,0.0,0.0,0.0,0.0,0.0,0.0,0.0,0.0,0.0,0.0,0.0,0.0,0.0,0.0,0.0,0.0,0.0,0.0,0.0,0.0,0.0,0.0,0.0,0.0,0.0,0.0,0.0,0.0,0.0,0.0,0.0,0.0,0.0,0.0,0.0,0.0,0.0,0.0,0.0,0.0,0.0,0.0,0.0,0.0,0.0,0.0,0.0,0.0,0.0,0.0,0.0,0.0,0.0,0.0,0.0,0.0,0.0,0.0,0.0,0.0,0.0,0.0,0.0,0.0,0.0,0.0,0.0,0.0,0.0,0.0,0.0,0.0,0.0,0.0,0.0,0.0,0.0,0.0,0.0,0.0,0.0,0.0,0.0,0.0,0.0,0.0,0.0,0.0,0.0,0.0,0.0,0.0,0.0,0.0,0.0,0.0,0.0,0.0,0.0,0.0,0.0,0.0,0.0,0.0,0.0,0.0,0.0,0.0,0.0,0.0,0.0,0.0,0.0,0.0,0.0,0.0,0.0,0.0,0.0,0.0,0.0,0.0,0.0,0.0,0.0,0.0,0.0,0.0,0.0,0.0,0.0,0.0,0.0,0.0,0.0,0.0,0.0,0.0,0.0,0.0,0.0,0.0,0.0,0.0,0.0,0.0,0.0,0.0,0.0,0.0,0.0,0.0,0.0,0.0,0.0,0.0,0.0,0.0,0.0,0.0,0.0,0.0,0.0,0.0,0.0,0.0,0.0,0.0,0.0,0.0,0.0,0.0,0.0,0.0,0.0,0.0,0.0,0.0,0.0,0.0,0.0,0.0,0.0,0.0,0.0,0.0,0.0,0.0,0.0,0.0,0.0,0.0,0.0,0.0,0.0,0.0,0.0,0.0,0.0,0.0,0.0,0.0,0.0,0.0,0.0,0.0,0.0,0.0,0.0,0.0,0.0,0.0,0.0,0.0,0.0,0.0,0.0,0.0,0.0,0.0,0.0,0.0,0.0,0.0,0.0,0.0,0.0,0.0,0.0,0.0,0.0,0.0,0.0,0.0,0.0,0.0,0.0,0.0,0.0,0.0,0.0,0.0,0.0,0.0,0.0,0.0,0.0,0.0,0.0,0.0,0.0,0.0,0.0,0.0,0.0,0.0,0.0,0.0,0.0,0.0,0.0,0.0,0.0,0.0,0.0,0.0,0.0,0.0,0.0,0.0,0.0,0.0,0.0,0.0,0.0,0.0,0.0,0.0,0.0,0.0,0.0,0.0,0.0,0.0,0.0,0.0,0.0,0.0,0.0,0.0,0.0,0.0,0.0,0.0,0.0,0.0,0.0,0.0,0.0,0.0,0.0,0.0,0.0,0.0,0.0,0.0,0.0,0.0,0.0,0.0,0.0,0.0,0.0,0.0,0.0,0.0,0.0,0.0,0.0,0.0,0.0,0.0,0.0,0.0,0.0,0.0,0.0,0.0,0.0,0.0,0.0,0.0,0.0,0.0,0.0,0.0,0.0,0.0,0.0,0.0,0.0,0.0,0.0,0.0,0.0,0.0,0.0,0.0,0.0,0.0,0.0,0.0,0.0,0.0,0.0,0.0,0.0,0.0,0.0,0.0,0.0,0.0,0.0,0.0,0.0,0.0,0.0,0.0,0.0,0.0,0.0,0.0,0.0,0.0,0.0,0.0,0.0,0.0,0.0,0.0,0.0,0.0,0.0,0.0,0.0,0.0,0.0,0.0,0.0,0.0,0.0,0.0,0.0,0.0,0.0,0.0,0.0,0.0,0.0,0.0,0.0,0.0,0.0,0.0,0.0,0.0,0.0,0.0,0.0,0.0,0.0,0.0,0.0,0.0,0.0,0.0,0.0,0.0,0.0,0.0,0.0,0.0,0.0,0.0,0.0,0.0,0.0,0.0,0.0,0.0,0.0,0.0,0.0,0.0,0.0,0.0,0.0,0.0,0.0,0.0,0.0,0.0,0.0,0.0,0.0,0.0,0.0,0.0,0.0,0.0,0.0,0.0,0.0,0.0,0.0,0.0,0.0,0.0,0.0,0.0,0.0,0.0,0.0,0.0,0.0,0.0,0.0,0.0,0.0,0.0,0.0,0.0,0.0,0.0,0.0,0.0,0.0,0.0,0.0,0.0,0.0,0.0,0.0,0.0,0.0,0.0,0.0,0.0,0.0,0.0,0.0,0.0,0.0,0.0,0.0,0.0,0.0,0.0,0.0,0.0,0.0,0.0,0.0,0.0,0.0,0.0,0.0,0.0,0.0,0.0,0.0,0.0,0.0,0.0,0.0,0.0,0.0,0.0,0.0,0.0,0.0,0.0,0.0,0.0,0.0,0.0,0.0,0.0,0.0,0.0,0.0,0.0,0.0,0.0,0.0,0.0,0.0,0.0,0.0,0.0,0.0,0.0,0.0,0.0,0.0,0.0,0.0,0.0,0.0,0.0,0.0,0.0,0.0,0.0,0.0,0.0,0.0,0.0,0.0,0.0,0.0,0.0,0.0,0.0,0.0,0.0,0.0,0.0,0.0,0.0,0.0,0.0,0.0,0.0,0.0,0.0,0.0,0.0,0.0,0.0,0.0,0.0,0.0,0.0,0.0,0.0,0.0,0.0,0.0,0.0,0.0,0.0,0.0,0.0,0.0,0.0,0.0,0.0,0.0,0.0,0.0,0.0,0.0,0.0,0.0,0.0,0.0,0.0,0.0,0.0,0.0,0.0,0.0,0.0,0.0,0.0,0.0,0.0,0.0,0.0,0.0,0.0,0.0,0.0,0.0,0.0,0.0,0.0,0.0,0.0,0.0,0.0,0.0,0.0,0.0,0.0,0.0,0.0,0.0,0.0,0.0,0.0,0.0,0.0,0.0,0.0,0.0,0.0,0.0,0.0,0.0,0.0,0.0,0.0,0.0,0.0,0.0,0.0,0.0,0.0,0.0,0.0,0.0,0.0,0.0,0.0,0.0,0.0,0.0,0.0,0.0,0.0,0.0,0.0,0.0,0.0,0.0,0.0,0.0,0.0,0.0,0.0,0.0,0.0,0.0,0.0,0.0,0.0,0.0,0.0,0.0,0.0,0.0,0.0,0.0,0.0,0.0,0.0,0.0,0.0,0.0,0.0,0.0,0.0,0.0,0.0,0.0,0.0,0.0,0.0,0.0,0.0,0.0,0.0,3.5082,3.414,0.0,0.0,0.0,0.0,0.0,0.0,0.0,0.0,0.0,0.0,0.0,0.0,0.0,0.0,0.0,0.0,0.0,0.0,0.0,0.0,0.0,0.0,0.0,3.165,3.2733,3.3829,3.4269,3.4641,3.5013,3.4745,3.4387,3.3943,3.2629,3.1691,3.1299,2.9675,2.8864,2.8864,2.8246,2.7929,2.7924,2.7297,2.6642,2.6063,0.0,0.0,0.0,0.0,0.0,0.0,0.0,0.0,0.0,0.0,0.0,0.0,0.0,0.0,0.0,0.0,0.0,0.0,0.0,0.0,0.0,0.0,0.0,0.0,0.0,0.0,0.0,0.0,0.0,0.0,0.0,0.0,0.0,0.0,0.0,0.0,0.0,0.0,0.0,0.0,0.0,0.0,0.0,0.0,0.0,0.0,0.0,0.0,0.0,0.0,0.0,0.0,0.0,0.0,0.0,0.0,0.0,0.0,0.0,0.0,0.0,0.0,0.0,0.0,0.0,0.0,0.0,0.0,0.0,0.0,3.6778,3.5869,0.0,0.0,0.0,0.0,0.0,0.0,0.0,0.0,0.0,0.0,0.0,0.0,0.0,0.0,0.0,0.0,0.0,0.0,0.0,0.0,0.0,2.9447,3.0119,3.1633,3.3121,3.4392,3.4607,3.4945,3.5566,3.56,3.5261,3.4539,3.4506,3.4134,3.3423,3.2086,3.1407,3.1407,3.0184,2.9155,2.8372,2.792,2.7452,2.6903,2.6327,0.0,0.0,0.0,0.0,0.0,0.0,0.0,0.0,0.0,0.0,0.0,0.0,0.0,0.0,0.0,0.0,0.0,0.0,0.0,0.0,0.0,0.0,0.0,0.0,0.0,0.0,0.0,0.0,0.0,0.0,0.0,0.0,0.0,0.0,0.0,0.0,0.0,0.0,0.0,0.0,0.0,0.0,0.0,0.0,0.0,0.0,0.0,0.0,0.0,0.0,0.0,0.0,0.0,0.0,0.0,0.0,0.0,0.0,0.0,0.0,0.0,0.0,0.0,4.0915,4.0805,4.0805,4.0805,4.0504,3.9968,3.8996,3.8142,3.7441,3.751,0.0,0.0,0.0,0.0,0.0,0.0,0.0,0.0,0.0,0.0,0.0,0.0,0.0,0.0,0.0,0.0,0.0,0.0,0.0,3.0183,3.049,3.2524,3.4034,3.4447,3.5081,3.5498,3.56,3.56,3.5261,3.4539,3.4506,3.4134,3.3423,3.2086,3.1407,3.1407,3.0575,2.9544,2.8426,2.8845,2.8721,2.8166,2.8071,2.8399,2.8944,0.0,0.0,0.0,0.0,0.0,0.0,0.0,0.0,0.0,0.0,0.0,0.0,0.0,0.0,0.0,0.0,0.0,0.0,0.0,0.0,0.0,0.0,0.0,0.0,0.0,0.0,0.0,0.0,0.0,0.0,0.0,0.0,0.0,0.0,0.0,0.0,0.0,0.0,0.0,0.0,0.0,3.9646,3.9807,0.0,0.0,0.0,0.0,0.0,0.0,0.0,0.0,0.0,0.0,0.0,0.0,0.0,4.29,4.357,4.357,4.3602,4.3663,4.2864,4.2469,4.2469,4.2469,4.2443,4.2386,4.304,0.0,3.905,3.8506,0.0,0.0,0.0,0.0,0.0,0.0,0.0,0.0,0.0,0.0,0.0,0.0,0.0,0.0,0.0,0.0,0.0,0.0,0.0,0.0,0.0,3.2669,3.4012,3.4569,3.4911,3.5152,3.5364,3.5377,3.5318,3.5115,3.5115,3.4979,3.4619,3.3256,3.2144,3.1286,3.0951,3.0516,2.998,3.0236,3.0236,2.998,2.998,2.977,2.9352,2.8785,0.0,0.0,0.0,0.0,0.0,0.0,0.0,0.0,0.0,0.0,0.0,0.0,0.0,0.0,0.0,0.0,0.0,0.0,0.0,0.0,0.0,0.0,0.0,0.0,0.0,0.0,0.0,0.0,0.0,0.0,0.0,0.0,0.0,0.0,0.0,0.0,0.0,0.0,0.0,4.0992,4.1898,4.1882,4.1195,4.07,0.0,0.0,0.0,0.0,0.0,0.0,0.0,0.0,0.0,4.3713,4.3713,4.3873,4.4194,4.4194,4.4387,4.4737,4.436,4.4152,4.4152,4.4152,4.393,4.3617,4.4026,4.3182,4.1457,4.1146,4.0803,4.0395,0.0,0.0,0.0,0.0,3.9752,3.9628,0.0,0.0,0.0,0.0,0.0,0.0,0.0,0.0,0.0,0.0,0.0,0.0,3.1438,3.2863,3.3949,3.4376,3.457,3.4813,3.5064,3.5253,3.5475,3.5664,3.5869,3.586,3.5538,3.3927,3.2476,3.119,3.119,3.119,3.119,3.119,3.119,3.119,3.119,3.0716,2.9848,2.9695,2.8941,2.7738,0.0,0.0,0.0,0.0,0.0,0.0,0.0,0.0,0.0,0.0,0.0,0.0,0.0,0.0,0.0,0.0,0.0,0.0,0.0,0.0,0.0,0.0,0.0,0.0,0.0,0.0,0.0,0.0,0.0,0.0,0.0,0.0,0.0,0.0,0.0,0.0,0.0,4.3037,4.3889,4.3676,4.3337,4.3007,0.0,0.0,0.0,0.0,0.0,0.0,4.3719,4.4397,4.5015,4.544,4.5603,4.5798,4.5994,4.5798,4.5961,4.6449,4.6016,4.5818,4.5818,4.5818,4.5527,4.5109,4.5341,4.4984,4.4269,4.3427,4.2686,4.1981,4.1981,4.1725,4.1309,4.1789,4.1498,4.1093,0.0,0.0,0.0,0.0,0.0,0.0,0.0,0.0,0.0,0.0,0.0,3.2361,3.2011,3.3342,3.4103,3.3686,3.4306,3.4712,3.4711,3.5435,3.5858,3.5875,3.6689,3.6533,3.5342,3.3393,3.1989,3.119,3.119,3.119,3.119,3.119,3.119,3.119,3.119,3.1171,3.1092,3.0497,2.9827,2.9095,2.7936,0.0,0.0,0.0,0.0,0.0,0.0,0.0,0.0,0.0,0.0,0.0,0.0,0.0,0.0,0.0,0.0,0.0,0.0,0.0,0.0,0.0,0.0,0.0,0.0,0.0,0.0,0.0,0.0,0.0,0.0,0.0,0.0,0.0,0.0,0.0,0.0,0.0,0.0,4.4626,4.4993,0.0,0.0,0.0,0.0,4.4066,4.4098,4.4495,4.5334,4.6089,4.7201,4.8726,4.9466,5.0141,5.0851,5.0143,4.9837,4.9805,4.8231,4.7473,4.7473,4.7473,4.744,4.7474,4.8348,4.8354,4.7423,4.4333,4.2686,4.1981,4.1981,4.1981,4.1949,4.1981,4.2488,4.3131,0.0,0.0,0.0,2.927,2.9346,2.9397,2.9259,2.9942,3.0394,3.0233,3.1592,3.253,3.2411,3.3332,3.3894,3.3763,3.3951,3.4212,3.4429,3.4698,3.4956,3.5136,3.5914,3.6159,3.5782,3.4014,3.2903,3.2399,3.1879,3.1451,3.119,3.119,3.119,3.119,3.119,3.1481,3.1901,3.1685,3.1435,3.116,3.038,2.9469,0.0,0.0,0.0,0.0,0.0,0.0,0.0,0.0,0.0,0.0,0.0,0.0,0.0,0.0,0.0,0.0,0.0,0.0,0.0,0.0,0.0,0.0,0.0,0.0,0.0,0.0,0.0,0.0,0.0,0.0,0.0,0.0,0.0,0.0,0.0,0.0,0.0,4.5331,4.5909,0.0,4.5995,4.589,4.607,4.6568,4.7,4.7625,4.8411,4.9149,4.9814,5.0407,5.0676,5.0947,5.1185,5.0947,5.0811,5.0811,4.9714,4.9184,4.9184,4.8714,4.8513,4.8513,4.8861,4.8578,4.7808,4.6653,4.5471,4.4378,4.4378,4.4079,4.368,4.368,4.3856,4.4121,2.9514,2.9616,0.0,2.9514,2.9616,2.9671,2.9504,3.042,3.1069,3.0887,3.23,3.3265,3.3142,3.3609,3.3902,3.382,3.3807,3.3904,3.4141,3.4401,3.4749,3.523,3.5881,3.6203,3.6292,3.4534,3.353,3.3316,3.2441,3.1914,3.1638,3.1638,3.1545,3.1408,3.1701,3.2148,3.2679,3.2936,3.2903,3.2604,3.2064,3.1359,3.0634,0.0,0.0,0.0,0.0,0.0,0.0,0.0,0.0,0.0,0.0,0.0,0.0,0.0,0.0,0.0,0.0,0.0,0.0,0.0,0.0,0.0,0.0,0.0,0.0,0.0,0.0,0.0,0.0,0.0,0.0,0.0,0.0,0.0,0.0,4.55,4.6346,4.6109,4.7158,4.78,4.7564,4.8003,4.8511,4.8954,4.9492,4.9965,5.0439,5.1183,5.1589,5.1589,5.186,5.1995,5.1995,5.1725,5.1589,5.1589,5.0811,5.0473,5.0439,4.9695,4.9357,4.9357,4.912,4.8714,4.8274,4.8274,4.7564,4.6413,4.5906,4.5399,4.4925,4.4716,4.4615,4.4615,2.9695,2.9741,2.9703,2.9695,2.9703,2.9741,2.9732,3.1137,3.2241,3.2232,3.3656,3.4572,3.4246,3.4211,3.4117,3.3837,3.3834,3.3847,3.3847,3.4555,3.5385,3.6266,3.6614,3.6805,3.6841,3.4844,3.3788,3.3771,3.2941,3.2535,3.2483,3.2483,3.2282,3.1877,3.2692,3.3201,3.3533,3.4232,3.4164,3.3457,3.2862,3.295,3.3394,0.0,0.0,0.0,0.0,0.0,0.0,0.0,0.0,0.0,0.0,0.0,0.0,0.0,0.0,0.0,0.0,0.0,0.0,0.0,0.0,0.0,0.0,0.0,0.0,0.0,0.0,0.0,0.0,0.0,0.0,0.0,0.0,0.0,4.596,4.7018,4.7695,4.6955,4.8781,4.983,4.9154,5.0371,5.1185,5.1219,5.1219,5.1219,5.1252,5.1961,5.2334,5.2334,5.3078,5.3518,5.3518,5.2739,5.2334,5.2334,5.1589,5.1219,5.1217,5.0473,5.0135,5.0067,4.9357,4.9052,4.9052,4.9018,4.8578,4.777,4.6346,4.5737,4.5602,4.4919,4.4615,4.4615,2.9954,3.0073,3.0168,2.9947,3.008,3.0359,3.0792,3.1749,3.2564,3.3025,3.4006,3.4645,3.4572,3.4561,3.4529,3.4453,3.4442,3.4716,3.53,3.4758,3.4979,3.6244,3.6384,3.6997,3.8167,3.6453,3.5432,3.5058,3.4287,3.3378,3.2483,3.2483,3.2751,3.3195,3.3406,3.418,3.5314,3.5524,3.5805,3.6057,3.512,3.4858,3.4991,0.0,0.0,0.0,0.0,0.0,0.0,0.0,0.0,0.0,0.0,0.0,0.0,0.0,0.0,0.0,0.0,0.0,0.0,0.0,0.0,0.0,0.0,0.0,0.0,0.0,0.0,0.0,0.0,0.0,0.0,0.0,4.8055,4.8886,4.7437,4.8058,4.8586,4.8402,4.939,5.0236,5.0574,5.0948,5.142,5.1961,5.1995,5.2266,5.2841,5.3078,5.3179,5.3179,5.3382,5.3518,5.3518,5.3281,5.3179,5.3179,5.2367,5.1995,5.1961,5.1251,5.0913,5.0879,5.0101,4.9796,4.9763,4.9221,4.8883,4.8612,4.7665,4.665,4.5669,4.5466,4.506,4.4615,3.0221,3.0279,3.0355,3.0177,3.0593,3.1046,3.1409,3.2467,3.3341,3.3696,3.4501,3.499,3.4889,3.4529,3.4415,3.4685,3.4713,3.5025,3.5838,3.5931,3.6248,3.6939,3.7295,3.7874,3.8689,3.7441,3.6692,3.6391,3.5575,3.4836,3.4099,3.4099,3.4255,3.4503,3.4827,3.5366,3.6041,3.636,3.6767,3.7135,3.6504,3.627,3.6326,3.6636,3.6774,3.6719,3.6401,3.6532,3.6795,3.6152,0.0,0.0,0.0,0.0,0.0,0.0,0.0,0.0,0.0,0.0,0.0,0.0,0.0,0.0,0.0,0.0,0.0,0.0,0.0,0.0,0.0,0.0,0.0,0.0,4.9818,5.0665,5.0165,4.9963,4.9861,4.9907,5.0592,5.1183,5.1623,5.1995,5.2334,5.2773,5.3078,5.345,5.3923,5.4262,5.4296,5.3957,5.3957,5.3822,5.3518,5.3518,5.3685,5.3979,5.35,5.3418,5.3698,5.2632,5.2167,5.2101,5.1038,5.0371,5.0067,4.9627,4.944,4.9304,0.0,0.0,0.0,0.0,4.4987,4.4615,3.0385,3.0385,3.0385,3.0385,3.1115,3.1737,3.1814,3.316,3.4244,3.4321,3.5007,3.5398,3.5182,3.4432,3.4205,3.4746,3.4878,3.5256,3.6041,3.7656,3.838,3.7978,3.8736,3.9073,3.8788,3.8103,3.7698,3.7587,3.6844,3.6448,3.6338,3.6332,3.6142,3.584,3.6479,3.6623,3.6346,3.7075,3.736,3.736,3.736,3.7356,3.7404,3.8238,3.8593,3.8656,3.8874,3.896,3.8942,3.8413,0.0,0.0,0.0,0.0,0.0,0.0,0.0,0.0,0.0,0.0,0.0,0.0,0.0,0.0,0.0,0.0,0.0,0.0,0.0,0.0,0.0,0.0,0.0,0.0,5.1857,5.2688,5.3445,5.2493,5.1685,5.1599,5.2149,5.2594,5.2662,5.341,5.3886,5.3886,5.4499,5.4873,5.4873,5.5379,0.0,0.0,0.0,5.4568,5.4056,5.4056,5.428,5.4865,5.4865,5.5159,5.566,5.436,5.3753,5.3688,5.2227,5.1165,5.045,5.0382,5.0262,4.9992,4.8675,4.7695,4.6844,4.5478,4.4844,4.472,3.0385,3.0385,3.0385,3.0385,3.1115,3.1929,3.2583,3.3545,3.443,3.5154,3.5385,3.5486,3.5412,3.5259,3.5206,3.5354,3.5929,3.6594,3.7232,3.8842,3.9319,3.8354,3.9084,3.9462,3.9439,3.9251,3.8888,3.8211,3.779,3.7238,3.6606,3.6422,3.6604,3.7131,3.7262,3.7656,3.8198,3.8344,3.8417,3.8417,3.8417,3.8274,3.816,3.8978,3.9686,4.0212,4.0276,4.0694,4.1075,4.0412,4.0074,3.9933,3.9933,3.9532,0.0,0.0,0.0,0.0,0.0,0.0,0.0,0.0,0.0,0.0,0.0,0.0,0.0,0.0,0.0,0.0,0.0,0.0,0.0,5.1894,5.363,5.4965,5.5147,5.4978,5.4625,5.4012,5.4099,5.4407,5.4981,5.5748,5.6234,5.6234,5.6391,5.6457,5.6457,5.5996,5.5928,5.6458,5.6457,5.6741,5.7284,5.7314,5.7022,5.647,5.647,0.0,5.566,5.5376,5.5248,5.5213,5.4323,5.3493,5.2727,5.2094,5.1473,5.0806,4.9934,4.9135,4.8301,4.7412,4.6358,4.5399,3.0962,3.1038,3.1038,3.1038,3.2083,3.3083,3.3506,3.4276,3.5007,3.5423,3.55,3.55,3.55,3.5122,3.5045,3.5462,3.7046,3.8508,3.964,4.0504,4.0625,3.9872,3.9851,3.9775,3.958,3.958,3.9403,3.8988,3.8836,3.8564,3.8151,3.8028,3.8162,3.8534,3.8382,3.852,3.8898,3.878,3.8946,3.9313,3.9313,3.9442,3.9752,4.0167,4.0546,4.0923,4.1522,4.1924,4.2149,4.1476,4.125,4.125,4.125,4.1271,4.1292,0.0,0.0,0.0,0.0,0.0,0.0,0.0,0.0,0.0,0.0,0.0,0.0,0.0,0.0,5.0554,5.1355,0.0,5.3417,5.3818,5.4869,5.5721,5.6124,5.6218,5.597,5.5238,5.5158,5.5469,5.6248,5.6637,5.7091,5.7517,5.7902,5.8114,5.8114,5.8055,5.8092,5.8083,5.8114,5.8154,5.8184,5.8184,5.8174,5.8085,5.7691,5.7496,5.7454,5.6653,5.6313,5.625,5.5466,5.4477,5.3343,5.2539,5.1951,5.1582,5.1622,5.0713,4.9235,4.8125,4.7234,4.6565,3.1545,3.1814,3.1929,3.1929,3.3199,3.4205,3.4205,3.493,3.55,3.55,3.5654,3.5731,3.5731,3.5276,3.5276,3.6154,3.8277,4.0162,4.1692,4.1962,4.1925,4.1667,4.1036,4.0557,4.0301,4.029,4.029,4.029,4.0197,4.0174,4.0174,4.0106,4.0082,4.0071,3.9814,3.9685,3.9672,3.9443,3.9711,4.0225,4.0225,4.0567,4.1132,4.1279,4.1315,4.1449,4.2505,4.2882,4.277,4.2286,4.2144,4.2144,4.2144,4.27,4.3328,4.3328,4.39,0.0,0.0,0.0,0.0,0.0,0.0,0.0,0.0,4.893,4.9664,5.0986,5.2013,5.2894,5.3555,5.4326,5.5097,5.5721,5.5941,5.6271,5.6932,5.7042,5.6859,5.6441,5.6384,5.6633,5.7303,5.7624,5.8116,5.8795,5.94,5.9775,5.9775,6.017,6.0205,5.9746,5.9775,5.9514,5.9081,5.9081,5.9318,5.974,5.9098,5.8917,5.9184,5.7921,5.7235,5.7065,5.6241,5.5107,5.3768,5.2919,5.2444,5.2381,5.2959,5.2146,5.0448,4.9043,4.8259,4.7785,3.1545,3.2275,3.2776,3.2776,3.3545,3.4205,3.4205,3.493,3.55,3.55,3.6115,3.6577,3.6577,3.7161,3.793,3.8815,3.9785,4.0777,4.1731,4.2508,4.2962,4.2898,4.2821,4.2727,4.271,4.271,4.271,4.271,4.2422,4.2273,4.2273,4.1973,4.1805,4.1805,4.1769,4.1756,4.1756,4.1719,4.159,4.1398,4.1398,4.1274,4.1168,4.1882,4.2176,4.2286,4.3115,4.3391,4.3391,4.3339,4.3321,4.3321,4.3321,4.3852,4.451,4.451,4.5059,4.5699,4.5792,4.6323,4.7056,4.7846,4.86,4.9243,0.0,5.1096,5.269,5.2873,5.4142,5.5207,5.5317,5.5978,5.6565,5.6638,5.7262,5.774,5.785,5.7886,5.812,5.8723,5.8798,5.8847,5.892,6.0237,6.1103,6.1213,6.1308,6.1348,6.1348,6.0754,6.0695,6.132,6.1348,6.1652,6.2285,6.2285,6.197,6.1349,6.1239,6.0494,5.9184,5.9003,5.854,5.7807,5.7042,5.6177,5.5285,5.4474,5.3704,5.3082,5.3146,5.3066,5.2739,5.1846,5.0249,4.8576,3.216,3.266,3.3237,3.4231,3.4699,3.4968,3.4968,3.5284,3.554,3.5514,3.63,3.6848,3.672,3.7469,3.8354,3.9207,4.0508,4.1623,4.2508,4.3355,4.3816,4.3816,4.3355,4.3085,4.3085,4.3085,4.3085,4.3085,4.2961,4.2878,4.2869,4.2728,4.2679,4.2679,4.2487,4.2384,4.2373,4.2191,4.2297,4.2607,4.2607,4.28,4.3183,4.3519,4.3468,4.3294,4.3453,4.3515,0.0,4.3515,4.3515,4.3515,4.3515,4.4048,4.4764,4.5259,4.5993,4.6709,4.7168,4.7535,4.8012,4.8857,4.9353,4.9867,5.0785,5.2123,5.3335,5.3812,5.517,5.6308,5.6308,5.7336,5.8194,5.8194,5.8877,5.9391,5.9391,5.8988,5.8841,5.9148,5.9588,6.0089,6.0566,6.119,6.1777,6.2254,6.2307,6.2298,6.2298,6.1969,6.1942,6.2298,6.2298,6.2464,6.278,6.278,6.2658,6.2291,6.1814,6.1006,5.9905,5.9404,5.8767,5.796,5.7152,5.6345,5.5559,5.473,5.3922,5.3203,5.3203,5.3203,5.3093,5.2307,5.1412,5.0477,3.2583,3.2891,3.3468,3.5192,3.55,3.552,3.5528,3.556,3.5604,3.5575,3.6608,3.7463,3.7802,3.8395,3.9013,3.967,4.1247,4.25,4.3096,4.4137,4.4691,4.4671,4.4085,4.3778,4.3778,4.3778,4.3778,4.3778,4.3778,4.3893,4.4162,4.4162,4.4278,4.4462,4.4231,4.4115,4.4105,4.3602,4.3684,4.412,4.3892,4.4134,4.4612,4.4612,4.4414,4.4102,4.3775,4.358,4.3515,4.3515,4.3515,4.3515,4.3515,4.4048,4.4856,4.5663,4.6617,4.7553,4.8159,4.8306,4.8526,4.939,4.9757,5.0308,5.1683,5.2784,5.3775,5.4583,5.5831,5.6859,5.7079,5.8253,5.9184,5.9184,5.9905,6.0419,6.0419,5.9698,5.9368,5.9832,6.0199,6.0786,6.1814,6.1924,6.2181,6.2768,6.278,6.278,6.278,6.278,6.278,6.278,6.278,6.278,6.278,6.278,6.278,6.278,6.2218,6.1374,6.0382,5.9355,5.8547,5.796,5.7373,5.6675,5.5868,5.506,5.4252,5.3518,5.3277,5.3203,5.3151,5.2564,5.2197,5.183,3.2583,3.2891,3.3468,3.5192,3.55,3.5522,3.5599,3.5586,3.5636,3.5705,3.7202,3.8875,4.0497,4.0692,4.0731,4.0731,4.2365,4.3326,4.3208,4.4796,4.5694,4.5565,4.5556,4.5518,4.5518,4.5518,4.5518,4.5518,4.5518,4.597,4.6769,4.6769,4.7201,4.7971,4.7923,4.7923,4.7885,4.7106,4.6541,4.6145,4.5371,4.4858,4.4612,4.4612,4.4599,4.4546,4.4117,4.3791,4.3515,4.3515,4.3515,4.3515,4.3515,4.4048,4.4856,4.5663,4.7021,4.8269,4.8306,4.8306,4.8526,4.939,5.0178,5.0986,5.1793,5.3225,5.4583,5.539,5.6235,5.7042,5.7813,5.8657,5.9184,5.9184,5.9905,6.0419,6.0419,5.9698,5.9795,6.1337,6.086,6.1043,6.2597,6.2768,6.2743,6.278,6.278,6.278,6.278,6.278,6.278,6.278,6.278,6.278,6.278,6.278,6.278,6.278,6.278,6.1924,6.0346,5.8767,5.8033,5.7997,5.796,5.7519,5.6712,5.5904,5.5097,5.4289,5.3518,5.3203,5.3203,5.3167,5.2674,5.1977,3.2583,3.2891,3.3468,3.5192,3.55,3.5522,3.5604,3.5624,3.5885,3.6466,3.8065,0.0,0.0,0.0,0.0,0.0,4.1867,4.2745,4.3287,4.4409,4.5287,4.5786,4.578,4.6057,4.6645,4.6563,4.68,4.7395,4.7281,4.7394,4.7702,4.7702,4.7855,4.8086,4.8086,4.8086,4.8086,4.7817,4.7616,4.7462,4.7194,4.6722,4.6181,4.6717,4.6102,4.4995,0.0,4.4974,4.4242,4.4242,4.4242,4.4273,4.4544,4.4819,4.53,4.6689,4.7876,4.8692,4.8692,4.8477,4.8526,4.939,5.0178,5.1022,5.183,5.3225,5.4473,5.473,5.5427,5.6235,5.7079,5.8327,5.9368,5.9905,6.1117,6.1998,6.1998,6.13,6.1006,6.152,6.1374,6.141,6.1961,6.2511,6.278,6.278,6.278,6.278,6.278,6.278,6.278,6.278,6.278,6.278,6.278,6.278,6.278,6.278,6.2254,6.1447,6.0382,5.9281,5.851,5.7997,5.7997,5.7556,5.6785,5.6528,5.5611,5.4363,5.4106,5.3665,5.3203,5.3203,5.3041,5.2711,3.3083,3.3622,3.4269,3.5692,3.5923,0.0,0.0,0.0,0.0,0.0,0.0,0.0,0.0,0.0,0.0,0.0,0.0,4.2418,4.2971,4.4101,4.4943,4.5451,4.5763,4.6156,4.6705,4.6652,4.7028,4.7893,4.7774,4.8017,4.8634,4.8585,4.874,4.9048,4.9048,4.9048,4.9009,4.8702,4.8548,4.8548,4.824,4.7778,4.7394,4.7894,4.729,0.0,4.6766,4.6468,4.5729,4.489,4.48,4.5063,4.534,4.5829,4.6503,4.7588,4.8487,4.9108,4.9108,4.8932,4.8932,4.9785,5.0509,5.1189,5.2001,5.3093,5.4069,5.4326,5.4803,5.55,5.6602,5.7886,5.9134,6.0236,6.152,6.2475,6.2768,6.2108,6.1704,6.1998,6.1777,6.1704,6.1998,6.2511,6.278,6.278,6.278,6.278,6.278,6.278,6.278,6.278,6.278,6.278,6.278,6.278,6.278,6.2805,6.1704,6.0896,6.0382,5.9281,5.851,5.7997,5.7997,5.7703,5.7226,5.6932,5.6198,5.5207,5.462,5.4069,5.3592,5.3314,5.3203,5.3151,3.409,3.493,3.5731,0.0,0.0,0.0,0.0,0.0,0.0,0.0,0.0,0.0,0.0,0.0,0.0,0.0,0.0,0.0,4.2305,4.3825,4.4738,4.4729,4.5507,4.5935,4.5978,4.6009,4.6472,4.7328,4.7248,4.8048,4.9635,4.9542,4.9894,5.0712,5.0712,5.0712,5.0635,4.9817,4.9471,4.9394,4.8586,4.8202,4.8163,4.824,4.8202,4.8125,4.8163,4.8125,4.7742,4.553,4.5292,4.5959,4.5959,4.7068,4.8404,4.8404,4.8942,4.9518,4.9518,4.9504,4.9678,5.0455,5.0986,5.1523,5.2305,5.2877,5.3472,5.4222,5.4369,5.4825,5.6381,5.7409,5.851,6.0089,6.108,6.1924,6.267,6.2144,6.1924,6.2732,6.2144,6.1961,6.2732,6.278,6.278,6.278,6.278,6.278,6.278,6.278,6.278,6.278,6.278,6.278,6.278,6.278,6.278,6.278,6.1227,6.0456,6.0346,5.8767,5.8033,5.7997,5.7997,5.7997,5.7923,5.7189,5.6859,5.6638,5.506,5.4436,5.4289,5.3518,5.3203,5.3203,0.0,0.0,0.0,0.0,0.0,0.0,0.0,0.0,0.0,0.0,0.0,0.0,0.0,0.0,0.0,0.0,0.0,0.0,4.2341,4.3395,4.4253,4.491,4.5731,4.6512,4.7137,4.7689,4.8369,4.9143,4.9653,5.007,5.042,5.0394,5.0481,5.0712,5.0712,5.0712,5.0712,5.0481,5.0366,5.0366,5.0125,4.9663,4.9125,4.9779,4.924,4.8202,4.8856,4.8663,4.8029,4.7404,4.7586,4.8035,4.8035,4.877,4.9657,4.9657,4.9797,4.9949,4.9949,4.9714,4.9565,4.9753,5.0809,5.1876,5.2086,5.317,5.4123,5.3962,5.3959,5.4175,5.4868,5.6638,5.8327,5.9331,6.119,6.2585,6.2743,6.2622,6.2585,6.278,6.2622,6.2585,6.278,6.278,6.278,6.278,6.278,6.278,6.278,6.278,6.278,6.278,6.278,6.278,6.278,6.278,6.278,6.278,6.1777,6.097,6.0382,5.9355,5.8584,5.7997,5.7997,5.7997,5.796,5.7776,5.7336,5.6712,5.5684,5.4913,5.4289,5.3518,5.3203,5.3203,0.0,0.0,0.0,0.0,0.0,0.0,0.0,0.0,0.0,0.0,0.0,0.0,0.0,0.0,0.0,0.0,0.0,0.0,0.0,4.3443,4.4185,4.4304,4.5475,4.6383,4.6945,4.7677,4.8256,4.8748,4.9801,5.0287,5.0212,5.0567,5.0519,5.0125,5.0125,5.0125,5.0125,5.0125,5.0366,0.0,0.0,5.0404,5.001,5.0519,5.0087,4.9317,4.9779,4.9663,4.924,4.924,4.9181,4.9122,4.9505,4.9975,5.0358,5.0358,5.0358,5.0358,5.0358,5.0195,5.0012,5.0012,5.0886,5.1712,5.1712,5.268,5.3539,5.3292,5.3365,5.3723,5.428,5.5794,5.7446,5.8927,6.0615,6.1998,6.267,6.278,6.278,6.278,6.278,6.278,6.278,6.278,6.278,6.278,6.278,6.278,6.278,6.278,6.278,6.278,6.278,6.278,6.278,6.278,6.278,6.278,6.1998,6.119,6.0382,5.9551,5.8767,5.7997,5.7997,5.7997,5.7997,5.7997,5.774,5.7262,5.6455,5.5868,5.5317,5.4142,5.3739,5.3702,0.0,0.0,0.0,0.0,0.0,0.0,0.0,0.0,0.0,3.8305,3.9803,4.109,4.1993,4.2188,0.0,0.0,0.0,0.0,0.0,0.0,4.4357,4.3622,4.5062,4.5963,4.6075,4.682,4.7241,4.7351,4.8738,4.9434,4.942,5.0073,4.9933,4.924,4.924,4.9279,4.9394,4.9394,4.9894,5.0712,5.0712,5.0712,5.0712,0.0,5.0712,5.0712,5.0712,5.0712,5.0712,5.0712,5.0212,4.9702,5.0481,5.0712,5.0712,5.0712,5.0712,5.0712,5.0712,5.0712,5.075,5.0827,5.113,5.1407,5.1521,5.2054,5.2522,5.2654,5.2899,5.3366,5.4175,5.5104,5.6492,5.8671,5.9905,6.108,6.256,6.278,6.278,6.278,6.278,6.278,6.278,6.278,6.278,6.278,6.278,6.278,6.278,6.278,6.278,6.278,6.278,6.278,6.278,6.278,6.278,6.278,6.1998,6.119,6.0382,5.9551,5.8767,5.7997,5.7997,5.7997,5.7997,5.7997,5.7997,5.7923,5.7116,5.6822,5.6638,5.5097,5.4473,5.4289,0.0,0.0,0.0,0.0,0.0,0.0,0.0,0.0,3.8106,3.9024,3.9957,4.0945,4.1922,4.2592,0.0,0.0,0.0,0.0,0.0,0.0,0.0,4.447,4.5373,4.5927,4.5948,4.6753,4.7165,4.7054,4.805,4.8485,4.8381,4.8489,4.8471,4.8317,4.8317,4.874,4.9394,4.9394,4.9894,5.0712,5.0712,5.0712,5.0712,5.0712,5.0712,0.0,5.0712,5.0712,5.0712,5.0712,5.0596,5.0519,5.0635,5.0712,5.0712,5.0712,5.0712,5.0712,5.0712,5.0712,5.0856,5.1548,5.1739,5.1966,5.2707,5.2702,5.2762,5.3456,5.3107,5.294,5.3776,5.5397,5.6969,5.8033,6.0015,6.1704,6.267,6.278,6.278,6.278,6.278,6.278,6.278,6.278,6.278,6.278,6.278,6.278,6.278,6.278,6.278,6.278,6.278,6.278,6.278,6.278,6.278,6.278,6.1998,6.119,6.0382,5.9551,5.8767,5.7997,5.7997,5.7997,5.7997,5.7997,5.7997,5.7923,5.7116,5.6822,5.6712,5.5721,5.495,5.4363,0.0,0.0,0.0,0.0,0.0,0.0,0.0,3.743,3.8315,3.9207,4.0392,4.1547,4.2486,4.3303,4.3996,0.0,0.0,0.0,0.0,0.0,0.0,4.4525,4.5299,4.577,4.5853,4.7056,4.7428,4.7002,0.0,4.905,4.8125,4.9048,4.8971,4.8086,4.8086,4.8317,4.8702,4.8279,4.8856,5.001,5.001,5.0289,5.0712,5.0712,5.0712,0.0,5.0712,5.0712,5.0712,5.0712,5.0712,5.0712,5.0712,5.0712,5.0712,5.0712,5.0712,5.0712,5.0712,5.101,5.1433,5.1808,5.1885,5.2,5.2423,5.2052,5.1909,5.2958,5.2853,5.2845,5.3646,5.4941,5.6193,5.7198,5.8694,6.0309,6.1924,6.2181,6.2328,6.2743,6.278,6.278,6.278,6.278,6.278,6.278,6.278,6.278,6.278,6.278,6.278,6.278,6.278,6.278,6.278,6.278,6.278,6.278,6.2401,6.1594,6.0382,6.0015,5.9171,5.7997,5.7997,5.7997,5.7997,5.7997,5.7997,5.796,5.7593,5.7409,5.7336,5.6528,5.5978,5.5537,0.0,0.0,0.0,0.0,0.0,0.0,3.6808,3.7546,3.8354,3.9438,4.1046,4.2354,4.3047,4.3816,4.4662,0.0,0.0,0.0,0.0,0.0,0.0,0.0,4.5248,4.5748,4.6025,0.0,0.0,4.7248,4.9178,0.0,0.0,0.0,0.0,0.0,4.7932,4.7932,4.8048,4.7432,4.8048,0.0,0.0,5.0087,5.0712,0.0,0.0,0.0,0.0,5.0712,5.0712,5.0712,5.0712,5.0712,5.0712,5.0712,5.0712,5.0712,5.0827,5.0971,5.0971,5.1548,5.2231,5.2423,5.2192,5.1962,5.2154,5.1471,5.1192,5.245,5.2711,5.3023,5.3896,5.4686,5.5565,5.6719,5.7773,5.9164,6.1288,6.1741,6.2108,6.2707,6.278,6.278,6.278,6.278,6.278,6.278,6.278,6.278,6.278,6.278,6.278,6.278,6.278,6.278,6.278,6.278,6.278,6.278,6.278,6.1961,6.0419,6.0419,5.9538,5.7997,5.7997,5.7997,5.7997,5.7997,5.7997,5.802,5.8097,5.8164,5.809,5.7442,5.7074,5.6742,0.0,0.0,0.0,0.0,0.0,0.0,3.7623,3.7969,3.8584,4.0169,4.1893,4.3008,4.3085,4.3816,4.4662,0.0,0.0,0.0,0.0,0.0,0.0,0.0,0.0,0.0,0.0,0.0,0.0,4.7998,4.8249,0.0,0.0,0.0,0.0,0.0,0.0,4.7432,4.8086,4.8009,0.0,0.0,0.0,0.0,0.0,0.0,0.0,0.0,0.0,5.0712,5.0712,5.0712,5.0712,5.0712,5.0712,5.0712,5.0712,5.0712,5.1202,5.1769,5.1769,5.2423,5.328,5.4049,5.3087,5.2115,5.2895,5.212,5.1622,5.2878,5.3147,5.3543,5.4766,5.5352,5.6021,5.7146,5.8681,6.0181,6.141,6.2218,6.2707,6.278,6.278,6.278,6.278,6.278,6.278,6.278,6.278,6.278,6.278,6.278,6.278,6.278,6.278,6.278,6.278,6.278,6.278,6.278,6.278,6.1961,6.0419,6.0419,5.9538,5.7997,5.7997,5.7997,5.7997,5.7997,5.7997,5.8065,5.8482,5.8632,5.8632,5.8557,5.8057,5.7232,0.0,0.0,0.0,0.0,0.0,0.0,3.7224,3.7627,3.8363,4.0039,4.1464,4.2508,4.3047,4.3816,4.4662,4.5518,0.0,0.0,0.0,0.0,0.0,0.0,0.0,0.0,0.0,0.0,4.8548,4.8894,4.9394,0.0,0.0,0.0,0.0,0.0,0.0,4.8586,4.8856,4.8317,0.0,0.0,0.0,0.0,0.0,0.0,0.0,0.0,0.0,0.0,5.0712,5.0712,5.0712,5.0712,5.0712,5.0712,5.0712,5.0712,5.1279,5.1885,5.1885,5.2933,5.4087,5.4395,5.3587,5.2779,5.3126,5.2219,5.167,5.2948,5.3415,5.393,5.4928,5.5213,5.5724,5.6903,5.7416,5.8347,6.0307,6.1037,6.1557,6.2034,6.2511,6.278,6.278,6.278,6.278,6.278,6.278,6.278,6.278,6.278,6.278,6.278,6.278,6.278,6.278,6.278,6.278,6.278,6.278,6.2218,6.1117,6.0639,5.9795,5.8694,5.8217,5.7997,5.7997,5.7997,5.8186,5.8439,5.8632,5.8874,5.9102,5.9102,5.8915,5.8446,0.0,0.0,0.0,0.0,0.0,3.5505,3.6874,3.7495,3.8413,4.0103,4.1227,4.224,4.3203,4.4057,4.4929,4.5893,4.5748,0.0,0.0,0.0,0.0,0.0,0.0,0.0,0.0,0.0,4.9471,4.9621,5.0207,5.0207,0.0,0.0,5.0084,4.9583,0.0,0.0,0.0,0.0,0.0,0.0,0.0,0.0,0.0,0.0,0.0,0.0,0.0,0.0,0.0,0.0,0.0,5.0712,5.0712,5.0712,5.0712,5.0712,5.1433,5.2269,5.2269,5.3549,5.4857,5.4857,5.4203,5.3587,5.3587,5.29,5.2503,5.3392,5.405,5.4586,5.5186,5.5492,5.5986,5.6951,5.7212,5.8016,5.998,6.0633,6.1198,6.1875,6.2254,6.2622,6.2977,6.3038,6.2965,6.2805,6.278,6.278,6.278,6.278,6.278,6.278,6.278,6.278,6.278,6.278,6.278,6.2805,6.2941,6.2485,6.1439,6.1032,6.0248,5.9248,5.8677,5.8418,5.8418,5.8418,5.8611,5.8932,5.9047,5.9302,5.9592,5.9592,5.9592,5.9412,0.0,0.0,0.0,0.0,0.0,3.6174,3.6988,3.7796,3.8904,4.0563,4.1568,4.2532,4.3662,4.4582,4.5576,4.6789,4.6086,0.0,0.0,0.0,0.0,0.0,0.0,0.0,0.0,0.0,4.9611,5.0073,5.0111,5.0111,5.0073,4.9687,4.9714,5.0023,0.0,0.0,0.0,0.0,0.0,0.0,0.0,0.0,5.0712,0.0,0.0,0.0,0.0,0.0,0.0,0.0,0.0,0.0,0.0,5.0712,5.0712,5.0712,5.1895,5.3203,5.3203,5.4395,5.5703,5.5703,5.5088,5.4472,5.4472,5.4472,5.4472,5.4472,5.5126,5.5665,5.5703,5.6395,5.7102,5.7537,5.8916,6.0205,6.0978,6.18,6.2398,6.2745,6.2108,6.2153,6.3468,6.3609,6.3363,6.283,6.278,6.278,6.278,6.278,6.278,6.278,6.278,6.278,6.278,6.278,6.278,6.2805,6.3317,6.2715,6.1114,6.1657,6.0956,5.941,5.9372,5.9372,5.9372,5.9372,5.9389,5.9424,5.9901,6.0103,6.0103,6.0103,6.0103,5.9892,0.0,0.0,0.0,0.0,0.0,0.0,3.6427,3.7379,3.8602,4.0221,4.1431,4.2447,4.3364,4.4221,4.5141,4.6061,4.6375,0.0,0.0,0.0,0.0,0.0,0.0,0.0,0.0,4.9163,4.9529,4.9673,4.9673,4.9673,4.9673,4.9547,4.9561,4.9673,4.9282,4.9074,0.0,0.0,0.0,0.0,4.9732,4.9885,4.9885,0.0,0.0,0.0,0.0,0.0,0.0,0.0,0.0,0.0,0.0,0.0,0.0,5.0712,5.1471,5.2308,5.2308,5.3126,5.3972,5.3972,5.3818,5.3626,5.3626,5.4087,5.4511,5.4511,5.5126,5.5703,5.5703,5.6406,5.7412,5.8678,5.957,6.0533,6.1911,6.254,6.2915,6.2997,6.3314,6.3695,6.4119,6.4138,6.4059,6.3934,6.3876,6.3876,6.3876,6.3876,6.355,6.283,6.278,6.2965,6.334,6.334,6.3543,6.3913,6.4059,6.3555,6.2446,6.207,6.1296,6.0202,5.9653,5.9389,5.9389,5.9389,5.9576,5.9885,6.0059,6.0311,6.0597,6.0597,6.0597,6.047,0.0,0.0,0.0,0.0,0.0,0.0,3.6597,3.7585,3.8688,3.997,4.1078,4.2094,4.3018,4.3871,4.4866,4.6156,4.6666,0.0,0.0,0.0,0.0,0.0,0.0,0.0,4.8659,4.9225,4.9431,4.928,4.928,4.928,4.9265,4.9108,4.9123,4.9265,4.9108,4.9027,0.0,0.0,0.0,0.0,4.9431,4.9489,4.9489,0.0,0.0,0.0,0.0,0.0,0.0,0.0,0.0,0.0,0.0,0.0,0.0,0.0,5.1048,5.151,5.1808,5.2538,5.328,5.3626,5.3703,5.378,5.4087,5.4549,5.4934,5.4934,5.5357,5.5703,5.5703,5.6665,5.7819,5.8896,5.9805,6.0884,6.2368,6.2781,6.2962,6.3086,6.4024,6.4476,6.3954,6.4365,6.459,6.4389,6.4389,6.4389,6.4389,6.4068,6.3608,6.2925,6.3222,6.355,6.3913,6.3913,6.4059,6.4389,6.4251,6.3734,6.2883,6.2271,6.1498,6.0661,6.0144,5.9916,0.0,5.9916,6.0103,6.0351,6.0351,6.0533,6.0781,6.0781,6.0781,6.0757,0.0,0.0,0.0,0.0,0.0,0.0,0.0,3.8138,3.8909,3.979,4.0598,4.1514,4.2634,4.3468,4.4774,4.6751,4.693,0.0,0.0,0.0,0.0,0.0,0.0,0.0,4.9378,4.9416,4.9234,4.8864,4.8864,4.8864,4.8864,4.8477,4.8514,4.8847,4.8477,4.8306,0.0,0.0,0.0,0.0,4.9265,4.9416,0.0,0.0,0.0,0.0,0.0,0.0,0.0,0.0,0.0,0.0,0.0,0.0,0.0,0.0,0.0,0.0,0.0,5.2374,5.3203,5.401,5.4318,5.4587,5.5357,5.5588,0.0,5.5703,5.5703,5.5703,5.578,5.7165,5.8357,5.8473,5.9858,6.1287,6.2466,6.2711,6.2893,6.3268,6.4389,6.466,6.3419,6.4427,6.4987,6.4518,6.4519,6.4519,6.4519,6.3669,6.3216,6.3216,6.3952,6.4312,6.4275,6.4275,6.4293,6.433,6.3949,6.3337,6.2536,6.226,6.1639,6.0781,6.0781,6.0781,6.0781,6.0781,6.0781,6.0781,6.0781,6.0781,6.0781,6.0781,6.0781,6.0781,0.0,0.0,0.0,0.0,0.0,0.0,0.0,0.0,0.0,0.0,4.0598,4.1438,4.2325,4.3152,4.4291,0.0,0.0,0.0,0.0,0.0,0.0,0.0,0.0,0.0,4.8568,4.8568,4.855,4.8439,4.8439,4.8439,4.8439,4.8363,4.8363,4.8439,4.8344,4.8306,0.0,0.0,0.0,0.0,4.8532,4.8568,0.0,0.0,0.0,0.0,4.8568,4.8779,0.0,0.0,0.0,0.0,0.0,0.0,0.0,0.0,4.9987,5.0268,5.0459,0.0,5.1318,5.1558,5.2549,5.3549,0.0,5.478,5.5703,5.5703,5.5703,5.5895,5.656,5.755,5.8704,6.0012,6.1089,6.2103,6.3015,6.3693,6.4396,6.5172,6.5534,6.56,6.5287,6.5534,6.5663,6.5542,6.5542,6.5542,6.5542,6.4723,6.4263,6.4263,6.3803,6.3379,6.3019,6.3019,6.3192,6.3573,6.3462,6.3002,6.2209,6.2142,6.1639,6.0781,6.0781,6.0781,6.0781,6.0781,6.0781,6.0781,6.0781,6.0781,6.0781,6.0781,6.0781,6.0781,0.0,0.0,0.0,0.0,0.0,0.0,0.0,0.0,0.0,0.0,4.0598,4.1389,4.2213,4.302,4.4176,0.0,0.0,0.0,0.0,0.0,0.0,0.0,0.0,4.748,4.8269,4.8306,4.8306,4.8306,4.8306,4.8306,4.8306,4.8306,4.8306,4.8306,4.8306,4.8306,0.0,0.0,4.8306,4.8306,4.8306,0.0,0.0,0.0,0.0,0.0,4.8306,4.8439,0.0,4.8847,4.9043,4.9265,0.0,0.0,0.0,0.0,5.0037,5.0369,5.0369,5.0783,5.1356,5.1741,5.2818,5.3895,5.4241,5.5049,5.5703,5.5703,5.5703,5.5818,5.6329,5.7434,5.8588,5.9511,6.0704,6.1781,6.2627,6.382,6.4782,6.5243,6.5667,6.5897,6.5897,6.5897,6.5897,6.5897,6.5897,6.5743,6.532,6.4474,6.382,6.3474,6.2627,6.2375,6.2905,6.2905,6.3052,6.3308,6.2935,6.2704,6.2627,6.2293,6.205,6.1935,6.155,6.1408,6.1358,6.0973,6.0781,6.0781,6.0781,6.0781,6.0781,6.0781,6.0781,6.0781,0.0,0.0,0.0,0.0,0.0,0.0,0.0,0.0,0.0,0.0,0.0,0.0,0.0,0.0,0.0,0.0,0.0,0.0,0.0,0.0,0.0,0.0,4.7626,4.759,4.8306,4.8306,4.8306,4.8306,4.8306,4.8306,4.8306,4.8306,4.8306,4.8306,4.8306,4.8306,4.8306,4.8306,4.8306,4.8306,4.8306,0.0,0.0,0.0,0.0,0.0,0.0,0.0,0.0,4.8674,4.8813,4.8898,4.928,0.0,0.0,0.0,0.0,0.0,5.0768,5.1441,5.2231,5.2856,5.378,5.4664,5.5357,5.5588,5.5703,5.5703,5.5703,5.578,5.6049,5.7319,5.8396,5.8627,5.9858,6.1089,6.1985,6.332,6.4243,6.4397,6.5051,6.5513,6.5513,6.5513,6.5513,6.5513,6.5513,6.5166,6.4436,6.3589,6.282,6.2139,6.1243,6.1473,6.2897,6.2935,6.2935,6.2897,6.2243,6.232,6.3089,6.2397,6.2551,6.3281,6.2589,6.2216,6.2062,6.1281,6.0935,6.0781,6.0781,6.0781,6.0781,6.0781,6.0781,6.0781,0.0,0.0,0.0,0.0,0.0,0.0,0.0,0.0,0.0,0.0,0.0,0.0,0.0,0.0,0.0,0.0,0.0,0.0,0.0,0.0,0.0,4.8306,4.8196,4.8196,4.8306,4.8306,4.8306,4.8306,4.8306,4.8306,4.8306,4.8306,4.8306,4.8306,4.8306,4.8306,4.8306,4.8306,4.8306,4.8306,4.8306,0.0,0.0,0.0,0.0,0.0,0.0,0.0,0.0,4.8345,4.8383,4.8477,4.8881,0.0,0.0,0.0,0.0,0.0,5.1035,5.2099,5.2856,5.2231,5.3318,5.4511,5.4664,5.5203,5.5703,5.5703,5.5703,5.6165,5.7627,5.8127,5.8781,6.0204,6.0627,6.1089,6.1985,6.2332,6.2743,6.3435,6.3628,6.3705,6.3705,6.3705,6.3705,6.3705,6.3705,6.3628,6.3512,6.2743,6.2216,6.2101,6.1243,6.0935,6.1166,6.1166,6.1166,6.1166,6.105,6.1435,6.2281,6.2178,6.2551,6.3269,6.3166,6.2743,6.2101,6.1947,6.1485,6.0781,6.0781,6.0781,6.0781,6.0781,6.0781,6.0781,0.0,0.0,0.0,0.0,0.0,0.0,0.0,0.0,0.0,0.0,0.0,0.0,0.0,0.0,0.0,0.0,0.0,0.0,0.0,0.0,4.8306,4.8306,4.8306,4.8306,4.8306,4.8306,4.8306,4.8306,4.8306,4.8306,4.8306,4.8306,4.8306,4.8306,4.8306,4.8306,4.8306,4.8306,4.8306,4.8306,0.0,0.0,0.0,0.0,0.0,0.0,0.0,0.0,0.0,0.0,4.8439,4.8622,4.8586,0.0,0.0,0.0,0.0,0.0,5.0818,5.2071,5.3087,5.2692,5.4241,5.5742,5.5241,5.578,5.6291,5.578,5.5703,5.6088,5.7357,5.7973,5.8858,6.0512,6.0781,6.0935,6.1331,6.1793,6.2255,6.2589,6.3051,6.3308,6.3308,6.3308,6.3308,6.3308,6.3308,6.3128,6.2666,6.2293,6.187,6.1408,6.1012,6.0781,6.0781,6.0781,6.105,6.1512,6.1512,6.2204,6.3435,6.3435,6.3897,6.4666,6.4205,6.3512,6.2704,6.2293,6.1601,6.0781,6.0781,6.0781,6.0781,6.0781,6.0781,6.0781,0.0,0.0,0.0,0.0,0.0,0.0,0.0,0.0,0.0,0.0,0.0,0.0,0.0,0.0,0.0,0.0,0.0,0.0,0.0,4.8196,4.8306,4.8306,4.8306,4.8233,4.7993,4.7993,4.7993,4.7993,4.7993,4.8122,4.8306,4.8306,4.8306,4.8306,4.8306,4.8306,4.8306,4.8306,4.8306,4.8306,0.0,0.0,0.0,0.0,0.0,0.0,0.0,0.0,0.0,0.0,0.0,0.0,0.0,0.0,0.0,4.9741,4.9987,5.0352,5.0845,5.1933,5.2933,5.3164,5.4818,5.6329,5.6049,5.6368,5.656,5.6088,5.6011,5.628,5.7137,5.8165,5.9319,6.0589,6.0781,6.0781,6.0781,6.1358,6.1793,6.1793,6.2358,6.2704,6.2704,6.2704,6.2704,6.2704,6.2704,6.2435,6.1831,6.1793,6.1473,6.0819,6.0781,6.0781,6.0781,6.0781,6.1127,6.1793,6.1985,6.2858,6.432,6.4512,6.5089,6.5859,6.5205,6.4282,6.3231,6.2627,6.1743,6.0781,6.0781,6.0781,6.0781,6.0781,6.0781,6.0781,0.0,0.0,0.0,0.0,0.0,0.0,0.0,0.0,0.0,0.0,0.0,0.0,0.0,0.0,0.0,0.0,0.0,0.0,0.0,4.7902,4.8306,4.8306,4.8306,4.7976,4.7186,4.7186,4.7186,4.7186,4.7186,4.7553,4.8306,4.8306,4.8306,4.8306,4.8306,4.8306,4.8306,4.8306,4.8306,4.8306,4.8306,0.0,0.0,0.0,0.0,0.0,0.0,0.0,0.0,0.0,0.0,0.0,0.0,0.0,5.0135,5.0493,5.0624,5.0836,5.1615,5.1885,5.2192,5.301,5.3933,5.5049,5.656,5.6329,5.6011,5.6753,5.6907,5.7165,5.805,5.9511,6.0666,6.0781,6.0781,6.0781,6.0781,6.0858,6.0896,6.0896,6.0935,6.0973,6.0973,6.0973,6.0973,6.0973,6.0973,6.0935,6.0896,6.0896,6.0858,6.0781,6.0781,6.0781,6.0781,6.0781,6.0819,6.0896,6.1716,6.2551,6.3423,6.4243,6.5089,6.5897,6.582,6.4859,6.3308,6.3243,6.2243,6.0781,6.0781,6.0781,6.0781,6.0781,6.0781,6.0781,0.0,0.0,0.0,0.0,0.0,0.0,0.0,0.0,0.0,0.0,0.0,4.3681,4.4195,0.0,0.0,0.0,0.0,0.0,0.0,4.7369,4.7773,4.8269,4.8306,4.7939,4.7113,4.759,4.7846,4.7846,4.7846,4.8012,4.8306,4.8306,4.8306,4.8306,4.8306,4.8306,4.8306,4.8306,4.8306,4.8306,4.8306,4.8306,0.0,0.0,0.0,0.0,0.0,0.0,0.0,0.0,4.9311,4.9631,4.9532,4.9792,5.0135,5.0291,5.0325,5.0446,5.1009,5.1895,5.2654,5.2423,5.3433,5.478,5.5934,5.678,5.7396,5.7742,5.7819,5.7896,5.8242,5.9242,5.9973,5.9973,6.0435,6.0781,6.0781,6.0781,6.0781,6.0781,6.0781,6.0781,6.0781,6.0781,6.0781,6.0781,6.0781,6.0781,6.0781,6.0781,6.0781,6.0781,6.0781,6.0781,6.0781,6.0781,6.0781,6.0819,6.2204,6.3012,6.3346,6.4743,6.5282,6.5089,6.5089,6.4397,6.3281,6.2743,6.1858,6.0781,6.0781,6.0781,6.0781,6.0781,6.0781,6.0781,0.0,0.0,0.0,0.0,0.0,0.0,0.0,0.0,4.3515,0.0,0.0,0.0,0.0,4.4048,0.0,0.0,0.0,0.0,4.6269,4.6819,4.7333,4.7883,4.8159,4.8049,4.748,4.7993,4.8196,4.7939,4.8196,4.8306,4.8306,4.8306,4.8306,4.8306,4.8306,4.8306,4.8306,4.8306,4.8306,4.8306,4.8306,4.8306,0.0,0.0,0.0,0.0,0.0,0.0,0.0,0.0,4.9792,5.0037,4.9792,4.9962,5.0302,5.0302,5.0455,5.073,5.0998,5.1933,5.2692,5.2385,5.3203,5.4357,5.5434,5.6857,5.7973,5.8242,5.8319,5.8319,5.8319,5.8973,5.9511,5.9511,6.0242,6.0781,6.0781,6.0781,6.0781,6.0781,6.0781,6.0781,6.0781,6.0781,6.0781,6.0781,6.0781,6.0781,6.0781,6.0781,6.0781,6.0781,6.0781,6.0781,6.0781,6.0781,6.0781,6.0819,6.2243,6.2935,6.2974,6.4436,6.4743,6.4205,6.4205,6.3705,6.2897,6.232,6.1601,6.0781,6.0781,6.0781,6.0781,6.0781,6.0781,6.0781,0.0,0.0,0.0,0.0,0.0,0.0,0.0,0.0,4.3515,4.3515,4.4195,0.0,0.0,0.0,0.0,0.0,0.0,0.0,4.4691,4.6195,4.7076,4.7113,4.7846,4.8306,4.8306,4.8306,4.7883,4.7113,4.7883,4.8306,4.8306,4.8306,4.8306,4.8306,4.8306,4.8306,4.8306,4.8306,4.8306,4.8306,4.8306,4.8306,4.8306,0.0,0.0,0.0,0.0,0.0,0.0,0.0,4.9792,5.0123,5.0123,5.0369,5.0712,5.0712,5.1279,5.1885,5.1885,5.1885,5.2115,5.2972,5.3203,5.3664,5.5318,5.6357,5.7231,5.8127,5.828,5.828,5.828,5.8934,5.9473,5.9473,6.0242,6.0781,6.0781,6.0781,6.0781,6.0781,6.0781,6.0781,6.0781,6.0781,6.0781,6.0781,6.0781,6.0781,6.0781,6.0781,6.0781,6.0781,6.0781,6.0781,6.0781,6.0781,6.0781,6.0819,6.1678,6.2101,6.2139,6.2935,6.3308,6.3269,6.3269,6.2858,6.2101,6.2101,6.1601,6.0781,6.0781,6.0781,6.0781,6.0781,6.0781,6.0781,0.0,0.0,0.0,0.0,0.0,0.0,0.0,0.0,4.3515,4.3515,4.3718,0.0,0.0,0.0,0.0,0.0,0.0,0.0,4.4691,4.5131,4.5902,4.7039,4.7333,4.77,4.8306,4.8306,4.8196,4.792,4.8196,4.8306,4.8306,4.8306,4.8306,4.8306,4.8306,4.8306,4.8306,4.8306,4.8306,4.8306,4.8306,4.8306,4.8306,0.0,0.0,0.0,0.0,0.0,0.0,0.0,0.0,0.0,5.0514,5.0988,5.1433,5.0856,5.1279,5.1769,5.1202,5.1471,5.1962,5.2231,5.3203,5.4241,5.4741,5.5972,5.7242,5.8127,5.7819,5.7396,5.7396,5.8088,5.8665,5.8665,5.9858,6.0781,6.0781,6.0781,6.0781,6.0781,6.0781,6.0781,6.0781,6.0781,6.0781,6.0781,6.0781,6.0781,6.0781,6.0781,6.0781,6.0781,6.0781,6.0781,6.0781,6.0781,6.0781,6.0781,6.105,6.1166,6.1243,6.2666,6.2974,6.2474,6.2474,6.232,6.2062,6.1435,6.1012,6.0781,6.0781,6.0781,6.0781,6.0781,6.0781,6.0781,0.0,0.0,0.0,0.0,0.0,0.0,4.3404,4.3515,4.3515,4.3515,4.3515,4.3681,0.0,0.0,0.0,4.4232,4.4232,0.0,4.4232,4.4525,4.5278,4.6562,4.6929,4.748,4.8269,4.8306,4.8306,4.8306,4.8306,4.8306,4.8306,4.8306,4.8306,4.8306,4.8306,4.8306,4.8306,4.8306,4.8306,4.8306,4.8306,4.8306,4.8306,0.0,0.0,0.0,0.0,0.0,0.0,0.0,0.0,0.0,5.0712,5.101,5.1395,5.1241,5.151,5.1962,5.2164,5.2318,5.2577,5.3241,5.3972,5.4587,5.4895,5.6022,5.7253,5.8127,5.7588,5.6983,5.6983,5.7703,5.8319,5.8319,5.9704,6.0781,6.0781,6.0781,6.0781,6.0781,6.0781,6.0781,6.0781,6.0781,6.0781,6.0781,6.0781,6.0781,6.0781,6.0781,6.0781,6.0781,6.0781,6.0781,6.0781,6.0781,6.0781,6.0781,6.0781,6.0781,6.0819,6.1858,6.205,6.1601,6.1601,6.1601,6.1562,6.1012,6.0781,6.0781,6.0781,6.0781,6.0781,6.0781,6.0781,6.0781,0.0,0.0,4.0341,4.1058,0.0,0.0,4.3404,4.3515,4.3515,4.3515,4.3515,4.3515,0.0,0.0,0.0,4.3515,4.3588,4.3588,4.3515,4.4195,4.5002,4.5847,4.6764,4.7553,4.8269,4.8306,4.8306,4.8306,4.8306,4.8306,4.8306,4.8306,4.8306,4.8306,4.8306,4.8306,4.8306,4.8306,4.8306,4.8306,4.8306,4.8306,4.8306,4.8306,0.0,0.0,0.0,0.0,0.0,0.0,0.0,0.0,5.0712,5.075,5.0933,5.1587,5.1885,5.2346,5.3857,5.3741,5.3587,5.5203,5.5088,5.478,5.5511,5.6329,5.7099,5.7896,5.7434,5.6868,5.6868,5.7665,5.8319,5.8319,5.9704,6.0781,6.0781,6.0781,6.0781,6.0781,6.0781,6.0781,6.0781,6.0781,6.0781,6.0781,6.0781,6.0781,6.0781,6.0781,6.0781,6.0781,6.0781,6.0781,6.0781,6.0781,6.0781,6.0781,6.0781,6.0781,6.0781,6.0781,6.0781,6.0781,6.0781,6.0781,6.0781,6.0781,6.0781,6.0781,6.0781,6.0781,6.0781,6.0781,6.0781,6.0781,0.0,0.0,4.1846,4.2029,0.0,0.0,4.3478,4.3515,4.3515,4.3515,4.3515,4.3515,4.3515,4.4048,0.0,4.3551,4.4085,4.4158,4.3551,4.3644,4.4378,4.5847,4.7278,4.8122,4.8306,4.8306,4.8306,4.8306,4.8306,4.8306,4.8306,4.8306,4.8306,4.8306,4.8306,4.8306,4.8306,4.8306,4.8306,4.8306,4.8306,4.8306,4.8306,4.8306,4.8727,0.0,0.0,0.0,0.0,0.0,0.0,0.0,5.0712,5.1125,5.1548,5.1087,5.1895,5.2856,5.2538,5.2818,5.3433,5.4511,5.5088,5.5472,5.5665,5.5857,5.6011,5.6203,5.6088,5.5972,5.5972,5.7242,5.8319,5.8319,5.9704,6.0781,6.0781,6.0781,6.0781,6.0781,6.0781,6.0781,6.0781,6.0781,6.0781,6.0781,6.0781,6.0781,6.0781,6.0781,6.0781,6.0781,6.0781,6.0781,6.0781,6.0781,6.0781,6.0781,6.0781,6.0781,6.0781,6.0781,6.0781,6.0781,6.0781,6.0781,6.0781,6.0781,6.0781,6.0781,6.0781,6.0781,6.0781,6.0781,6.0781,6.0781,0.0,0.0,0.0,0.0,0.0,0.0,0.0,0.0,4.3938,4.3551,4.3515,4.3368,4.2947,4.3314,0.0,0.0,4.3314,4.3534,4.3515,4.3515,4.4195,4.581,4.7462,4.8306,4.8306,4.8306,4.8306,4.8306,4.8306,4.8306,4.8306,4.8306,4.8306,4.8306,4.8306,4.8306,4.8306,4.8306,4.8306,4.8306,4.8306,4.8306,4.8306,4.8306,4.8796,4.9489,4.9489,0.0,0.0,0.0,0.0,0.0,0.0,0.0,5.1318,5.1279,5.1625,5.2164,5.2933,5.3164,5.351,5.4741,5.5395,5.5703,5.5703,5.5703,5.5703,5.5703,5.5703,5.5703,5.5703,5.7126,5.8319,5.8319,5.9704,6.0781,6.0781,6.0781,6.0781,6.0781,6.0781,6.0781,6.0781,6.0781,6.0781,6.0781,6.0781,6.0781,6.0781,6.0781,6.0781,6.0781,6.0781,6.0781,6.0781,6.0781,6.0781,6.0781,6.0781,6.0781,6.0781,6.0781,6.0781,6.0781,6.0781,6.0781,6.0781,6.0781,6.0781,6.0781,6.0781,6.0781,6.0781,6.0781,6.0781,6.0781,0.0,0.0,0.0,0.0,0.0,0.0,0.0,0.0,0.0,4.3571,4.3515,4.3167,4.2396,4.2286,4.2249,0.0,0.0,0.0,4.324,4.3534,4.4342,4.5847,4.7315,4.8159,4.8306,4.8306,4.8306,4.8306,4.8306,4.8379,4.8526,4.8379,4.8306,4.8306,4.8306,4.8306,4.8306,4.8306,4.8306,4.8306,4.8306,4.8306,4.8306,4.8306,4.8796,4.9489,4.9489,5.0012,5.0712,5.0712,0.0,0.0,0.0,0.0,5.0827,5.151,5.1318,5.1356,5.3472,5.3741,5.378,5.5318,5.5703,5.5703,5.5703,5.5703,5.5703,5.5703,5.5703,5.5742,5.5895,5.7242,5.8357,5.8473,5.9781,6.0781,6.0781,6.0781,6.0781,6.0781,6.0781,6.0781,6.0781,6.0781,6.0781,6.0781,6.0781,6.0781,6.0781,6.0781,6.0781,6.0781,6.0781,6.0781,6.0781,6.0781,6.0781,6.0781,6.0781,6.0781,6.0781,6.0781,6.0781,6.0781,6.0781,6.0781,6.0781,6.0781,6.0781,6.0781,6.0781,6.0781,6.0781,6.0781,6.0781,6.0781,0.0,0.0,0.0,0.0,0.0,0.0,0.0,0.0,0.0,0.0,4.3515,4.3167,4.2396,4.2286,4.2029,4.1315,4.1919,4.2359,4.2433,0.0,0.0,4.5847,4.6746,4.759,4.8269,4.8306,4.8306,4.8306,4.8306,4.8673,4.9427,4.8636,4.8306,4.8306,4.8306,4.8306,4.8306,4.8306,4.8306,4.8306,4.8306,4.8306,4.8306,4.8306,4.8796,4.9489,4.9489,5.0012,5.0712,5.0712,5.0712,0.0,0.0,0.0,5.0712,5.0827,5.1279,5.1808,5.2154,5.328,5.4549,5.5472,5.5703,5.5703,5.5703,5.5703,5.5703,5.5703,5.5703,5.5934,5.6676,5.7627,5.855,5.9242,6.0165,6.0781,6.0781,6.0781,6.0781,6.0781,6.0781,6.0781,6.0781,6.0781,6.0781,6.0781,6.0781,6.0781,6.0781,6.0781,6.0781,6.0781,6.0781,6.0781,6.0781,6.0781,6.0781,6.0781,6.0781,6.0781,6.0781,6.0781,6.0781,6.0781,6.0781,6.0781,6.0781,6.0781,6.0781,6.0781,6.0781,6.0781,6.0781,6.0781,6.0781,6.0781,0.0,0.0,0.0,0.0,0.0,0.0,0.0,0.0,0.0,0.0,0.0,4.3167,4.2396,4.1919,4.1499,4.1132,4.1001,4.1332,4.2249,4.3828,4.4856,4.5223,4.6415,4.7039,4.6948,4.7425,4.7626,4.7626,4.7168,4.7609,4.8857,4.8012,4.8122,4.9003,4.8526,4.8306,4.8306,4.8306,4.8306,4.8306,4.8306,4.8306,4.8325,4.855,4.9015,4.9518,4.9779,5.0206,5.0712,5.0712,5.0712,5.0712,5.0712,0.0,0.0,0.0,5.0933,5.1433,5.2356,5.3549,5.4703,5.5511,5.5703,5.5703,5.5703,5.5703,5.5703,5.5703,5.5703,5.5972,5.683,5.7703,5.855,5.9358,6.0242,6.0781,6.0781,6.0781,6.0781,6.0781,6.0781,6.0781,6.0781,6.0781,6.0781,6.0781,6.0781,6.0781,6.0781,6.0781,6.0781,6.0781,6.0781,6.0781,6.0781,6.0781,6.0781,6.0781,6.0781,6.0781,6.0781,6.0781,6.0781,6.0781,6.0781,6.0781,6.0781,6.0781,6.0781,6.0781,6.0781,6.0781,6.0781,6.0781,6.0781,6.0781,0.0,0.0,0.0,0.0,0.0,0.0,0.0,0.0,0.0,0.0,0.0,4.3167,4.2396,0.0,0.0,0.0,4.0414,4.0818,4.2213,4.3608,4.4488,4.4691,4.6049,4.6489,4.592,4.6672,4.7003,4.6782,4.6397,4.6911,4.8306,4.77,4.8196,4.9574,4.8673,4.8306,4.8306,4.8306,4.8306,4.8306,4.8306,4.8306,4.8363,4.8744,4.9139,4.9547,4.9949,5.0358,5.0712,5.0712,5.0712,5.0712,5.0712,5.0712,0.0,0.0,0.0,5.102,5.2472,5.3356,5.4087,5.5126,5.5395,5.5434,5.5665,5.5703,5.5703,5.5703,5.5703,5.6011,5.7137,5.7857,5.8627,5.9665,6.0358,6.0781,6.0781,6.0781,6.0781,6.0781,6.0781,6.0781,6.0781,6.0781,6.0781,6.0781,6.0781,6.0781,6.0781,6.0781,6.0781,6.0781,6.0781,6.0781,6.0781,6.0781,6.0781,6.0781,6.0781,6.0781,6.0781,6.0781,6.0781,6.0781,6.0781,6.0781,6.0781,6.0781,6.0781,6.0781,6.0781,6.0781,6.0781,6.0781,6.0781,6.0781,0.0,0.0,0.0,0.0,0.0,0.0,0.0,0.0,0.0,0.0,0.0,4.3167,4.2396,4.2249,4.1625,4.0084,4.0634,4.1389,4.2249,4.3094,4.3901,4.4654,4.5516,0.0,4.5883,4.6672,4.6709,4.5957,4.6672,4.748,4.8306,4.8269,4.871,4.9574,4.8673,4.8306,4.8306,4.8306,4.8306,4.8306,4.8306,4.8306,4.8363,4.8744,4.9139,4.9547,4.9949,5.0358,5.0712,5.0712,5.0712,5.0712,5.0712,5.0712,5.0712,0.0,0.0,0.0,5.1731,5.2,5.2423,5.4126,5.4549,5.4741,5.5511,5.5703,5.5703,5.5703,5.5703,5.6203,5.7934,5.828,5.8819,6.0473,6.0781,6.0781,6.0781,6.0781,6.0781,6.0781,6.0781,6.0781,6.0781,6.0781,6.0781,6.0781,6.0781,6.0781,6.0781,6.0781,6.0781,6.0781,6.0781,6.0781,6.0781,6.0781,6.0781,6.0781,6.0781,6.0781,6.0781,6.0781,6.0781,6.0781,6.0781,6.0781,6.0781,6.0781,6.0781,6.0781,6.0781,6.0781,6.0781,6.0781,6.0781,6.0781,0.0,0.0,0.0,0.0,0.0,0.0,0.0,0.0,0.0,0.0,0.0,0.0,0.0,4.2616,4.2066,4.1479,4.1699,4.1992,4.2286,4.3057,4.3625,4.3901,4.5186,4.5663,4.5149,4.6415,4.6966,4.6672,4.6434,4.7021,4.8306,4.7773,4.7957,4.8746,4.8453,4.8306,4.8306,4.8306,4.8306,4.8306,4.8306,4.8306,4.8345,4.9027,4.9371,4.9575,5.023,5.0584,5.0712,5.0712,5.0712,5.0712,5.0712,5.0712,5.0712,5.0712,5.0712,5.0856,5.1692,5.1885,5.2192,5.3356,5.4087,5.4587,5.4857,5.5318,5.5703,5.5703,5.5703,5.6242,5.7973,5.8319,5.8858,6.0512,6.0781,6.1012,6.1562,6.1639,6.1639,6.1639,6.1639,6.1408,6.0858,6.0781,6.0781,6.0781,6.0781,6.0781,6.0781,6.0781,6.0781,6.0781,6.0781,6.0781,6.0781,6.0781,6.0781,6.0781,6.0781,6.0781,6.0781,6.0781,6.0781,6.0781,6.0781,6.0781,6.0781,6.0781,6.0781,6.0781,6.0781,6.0781,6.0781,6.0781,6.0781,6.0781,0.0,0.0,0.0,4.8306,0.0,4.6214,4.5957,4.4745,4.3901,4.3901,0.0,0.0,0.0,0.0,4.291,4.2359,4.2286,4.2286,4.2286,4.3057,4.3608,4.3901,4.5186,4.5663,4.5112,4.6159,4.6709,4.6709,4.6177,4.6581,4.7902,4.7626,4.7773,4.8306,4.8306,4.8306,4.8306,4.8306,4.8306,4.8306,4.8306,4.8306,4.8345,4.9027,4.9386,4.9575,5.0279,5.0594,5.0712,5.0712,5.0712,5.0712,5.0712,5.0712,5.0712,5.0712,5.0712,5.0827,5.1356,5.151,5.1779,5.2895,5.3433,5.3857,5.4703,5.5126,5.5357,5.5626,5.5703,5.6242,5.7973,5.8319,5.8858,6.0512,6.0781,6.1089,6.1985,6.2101,6.2216,6.2474,6.2512,6.2166,6.132,6.1243,6.1127,6.0819,6.0781,6.0781,6.0781,6.0781,6.0781,6.0781,6.0781,6.0781,6.0781,6.0781,6.0781,6.0781,6.0781,6.0781,6.0781,6.0781,6.0781,6.0781,6.0781,6.0781,6.0781,6.0781,6.0781,6.0781,6.0781,6.0781,6.0781,6.0781,6.0781,6.0781,4.8306,4.8306,4.8306,4.8306,4.7626,4.6819,4.6067,4.5259,4.4745,4.4745,0.0,0.0,0.0,0.0,0.0,4.2543,4.2396,4.2396,4.2396,4.313,4.3901,4.4691,4.5516,4.592,4.592,4.5957,4.5957,4.5957,4.5957,4.6361,4.7149,4.792,4.8306,4.8306,4.8306,4.8306,4.8306,4.8306,4.8306,4.8306,4.8306,4.8306,4.8345,4.8761,4.9171,4.9561,4.9974,5.0358,5.0712,5.0712,5.0712,5.0712,5.0712,5.0712,5.0712,5.0712,5.0712,5.0712,0.0,0.0,0.0,5.2702,5.25,5.2538,5.5011,5.5011,5.4703,5.5511,5.5665,5.6203,5.7973,5.8319,5.8858,6.0512,6.0781,6.1089,6.2024,6.2139,6.2435,6.3243,6.3346,6.3012,6.2216,6.2139,6.1793,6.0896,6.0819,6.0819,6.0781,6.0781,6.0781,6.0781,6.0781,6.0781,6.0781,6.0781,6.0781,6.0781,6.0781,6.0781,6.0781,6.0781,6.0781,6.0781,6.0781,6.0781,6.0781,6.0781,6.0781,6.0781,6.0781,6.0781,6.0781,6.0781,6.0781,6.0781,4.8306,4.8306,4.8306,4.8306,4.7626,4.7003,4.6782,4.6104,4.5553,0.0,0.0,0.0,4.5553,4.5553,4.5406,4.4929,4.4892,4.4892,4.4892,4.5112,4.5333,4.5553,4.6361,4.6746,4.6746,4.7352,4.7645,4.7645,4.7645,4.7755,4.7957,4.8196,4.8306,4.8306,4.8306,4.8306,4.8306,4.8306,4.8306,4.8306,4.8306,4.8477,4.8779,4.9187,4.9575,4.9974,5.038,5.0604,5.0712,5.0712,5.0712,5.0712,5.0712,5.0712,5.0712,5.0712,5.0712,5.0712,5.0712,0.0,0.0,0.0,0.0,0.0,5.2769,5.328,5.3818,5.4664,5.4818,5.5549,5.7857,5.8319,5.8858,6.0512,6.0781,6.132,6.2781,6.2974,6.3281,6.4128,6.4243,6.3897,6.3051,6.2974,6.2627,6.1793,6.1755,6.1485,6.0819,6.0781,6.0781,6.0781,6.0781,6.0781,6.0781,6.0781,6.0781,6.0781,6.0781,6.0781,6.0781,6.0781,6.0781,6.0781,6.0781,6.0781,6.0781,6.0781,6.0781,6.0781,6.0781,6.0781,6.0781,6.0781,6.0781,6.0781,4.8306,4.8306,4.8306,4.8306,4.7883,4.748,4.7149,4.6709,4.6397,0.0,0.0,0.0,4.6397,4.6104,4.5883,4.5883,4.5883,4.5883,4.5883,4.5883,4.6067,4.6397,4.6856,4.7259,4.759,4.7736,4.7957,4.8306,4.7957,4.7957,4.8306,4.8306,4.8306,4.8306,4.8306,4.8306,4.8306,4.8306,4.8306,4.8306,4.8306,4.8439,4.8674,4.9092,4.9504,4.9911,5.0313,5.0573,5.0712,5.0712,5.0712,5.0712,5.0712,5.0712,5.0712,5.0712,5.0712,5.0712,5.0712,5.0712,5.0789,5.1125,0.0,0.0,5.2741,5.3087,5.3549,5.4741,5.5011,5.5549,5.7434,5.805,5.8742,6.005,6.0858,6.1781,6.3128,6.3308,6.3782,6.5013,6.5128,6.4782,6.3935,6.3858,6.3512,6.2666,6.2281,6.1716,6.0858,6.0781,6.0781,6.0781,6.0781,6.0781,6.0781,6.0781,6.0781,6.0781,6.0781,6.0781,6.0781,6.0781,6.0781,6.0781,6.0781,6.0781,6.0781,6.0781,6.0781,6.0781,6.0781,6.0781,6.0781,6.0781,6.0781,6.0781,0.0,4.8306,4.8306,4.8306,4.8306,4.8086,4.7333,4.7223,4.7223,0.0,4.7223,4.7223,4.7223,4.6581,4.6177,4.6177,4.6177,4.6177,4.6177,4.6177,4.6507,4.7186,4.7223,4.7553,4.8269,4.759,4.759,4.8306,4.759,4.759,4.8306,4.8306,4.8306,4.8306,4.8306,4.8306,4.8306,4.8306,4.8306,4.8306,4.8306,4.8344,4.8402,4.8761,4.9187,4.9603,4.9962,5.0358,5.0712,5.0712,5.0712,5.0712,5.0712,5.0712,5.0712,5.0712,5.0712,5.0712,5.0712,5.0712,5.0856,5.1587,5.1318,0.0,5.3587,5.3549,5.3472,5.4972,5.528,5.5588,5.6676,5.7473,5.8319,5.9204,6.0819,6.2281,6.3166,6.3397,6.4051,6.5705,6.5897,6.559,6.482,6.4743,6.4397,6.3512,6.2589,6.1755,6.0973,6.0858,6.0781,6.0781,6.0781,6.0781,6.0781,6.0781,6.0781,6.0781,6.0781,6.0781,6.0781,6.0781,6.0781,6.0781,6.0781,6.0781,6.0781,6.0781,6.0781,6.0781,6.0781,6.0781,6.0781,6.0781,6.0781,6.0781,4.8306,4.8306,4.8306,4.8306,4.8306,4.8269,4.8086,4.8086,4.8086,4.8086,4.8086,4.8086,4.8086,4.7939,4.7829,4.7829,4.7829,4.7829,4.7829,4.7829,4.7902,4.8086,4.8086,4.8159,4.8306,4.8159,4.8159,4.8306,4.8159,4.8159,4.8306,4.8306,4.8306,4.8306,4.8306,4.8306,4.8306,4.8306,4.8306,4.8306,4.8306,4.8477,4.8796,4.8881,4.9356,4.9987,5.0049,5.0358,5.0712,5.0712,5.0712,5.0712,5.0712,5.0712,5.0712,5.0712,5.0712,5.0712,5.0712,5.0712,5.075,5.0894,5.1318,0.0,5.1471,5.1818,5.2231,5.2577,5.2654,5.3318,5.5549,5.6088,5.6703,5.828,5.9935,6.1589,6.3077,6.3897,6.4743,6.5782,6.5897,6.582,6.5667,6.5628,6.5282,6.4397,6.2935,6.2024,6.187,6.1166,6.0781,6.0781,6.0781,6.0781,6.0781,6.0781,6.0781,6.0781,6.0781,6.0781,6.0781,6.0781,6.0781,6.0781,6.0781,6.0781,6.0781,6.0781,6.0781,6.0781,6.0781,6.0781,6.0781,6.0781,6.0781,6.0781,4.8306,4.8306,4.8306,4.8306,4.8306,4.8306,4.8306,4.8306,4.8306,4.8306,4.8306,4.8306,4.8306,4.8306,4.8306,4.8306,4.8306,4.8306,4.8306,4.8306,4.8306,4.8306,4.8306,4.8306,4.8306,4.8306,4.8306,4.8306,4.8306,4.8306,4.8306,4.8306,4.8306,4.8306,4.8306,4.8306,4.8306,4.8306,4.8306,4.8306,4.8306,4.8421,4.8622,4.883,4.9155,4.9532,4.9714,5.0037,5.0451,5.0624,5.0584,5.0528,5.1124,5.1149,5.1026,5.1239,5.1318,5.1202,5.0827,5.0712,5.0789,5.1202,5.1318,0.0,0.0,5.1933,5.2,5.2462,5.2538,5.2933,5.4203,5.5126,5.6126,5.7434,5.9435,6.1089,6.1935,6.3512,6.4936,6.5782,6.5897,6.5897,6.5897,6.5897,6.5551,6.4666,6.382,6.2974,6.2139,6.1678,6.1243,6.0819,6.0781,6.0781,6.0781,6.0781,6.0781,6.0781,6.0781,6.0781,6.0781,6.0781,6.0781,6.0781,6.0781,6.0781,6.0781,6.0781,6.0781,6.0781,6.0781,6.0781,6.0781,6.0781,6.0781,6.0781,4.8306,4.8306,4.8306,4.8306,4.8306,4.8306,4.8306,4.8306,4.8379,4.8526,4.8563,4.86,4.8783,4.8783,4.8783,4.8783,4.8783,4.871,4.8563,4.8526,4.8453,4.8306,4.8306,4.8306,4.8306,4.8306,4.8306,4.8306,4.8306,4.8306,4.8306,4.8306,4.8306,4.8306,4.8306,4.8306,4.8306,4.8306,4.8306,4.8306,4.8306,4.8306,4.8344,4.8676,4.8847,4.8945,4.9356,4.97,5.0024,5.0358,5.023,5.0139,5.1124,5.1385,5.1317,5.1519,5.1729,5.1731,5.0933,5.0827,5.1048,5.1548,5.1433,5.1433,0.0,0.0,0.0,5.2626,5.2702,5.2779,5.2933,5.4049,5.5318,5.6368,5.8523,6.0165,6.0512,6.2589,6.4397,6.5089,6.5436,6.5628,6.5628,6.5628,6.5436,6.4897,6.4551,6.382,6.2627,6.2409,6.1935,6.1089,6.105,6.0973,6.0781,6.0781,6.0781,6.0781,6.0781,6.0781,6.0781,6.0781,6.0781,6.0781,6.0781,6.0781,6.0781,6.0781,6.0781,6.0781,6.0781,6.0781,6.0781,6.0781,6.0781,6.0781,4.8306,4.8306,4.8306,4.8306,4.8306,4.8306,4.8306,4.8306,4.86,4.9353,4.9463,4.9701,5.0435,5.0508,5.0508,5.0508,5.0508,5.0215,4.95,4.9407,4.904,4.8343,4.8306,4.8306,4.8306,4.8306,4.8306,4.8306,4.8306,4.8306,4.8306,4.8306,4.8306,4.8306,4.8306,4.8306,4.8306,4.8306,4.8306,4.8306,4.8306,4.8306,4.8306,4.8363,4.8586,4.8945,4.9356,4.9518,4.9575,4.9617,4.9603,4.9613,4.9731,5.048,5.1166,5.0503,5.1042,5.1731,5.0933,5.1202,5.1625,5.0971,5.1895,5.2587,5.1279,0.0,5.1731,5.1125,0.0,5.1202,5.1923,0.0,0.0,5.4511,5.6291,5.7945,5.9435,6.1243,6.2409,6.2524,6.382,6.4743,6.4743,6.4743,6.5013,6.5705,6.432,6.3705,6.4282,6.3589,6.2781,6.1985,6.1947,6.1601,6.0819,6.0781,6.0781,6.0781,6.0781,6.0781,6.0781,6.0781,6.0781,6.0781,6.0781,6.0781,6.0781,6.0781,6.0781,6.0781,6.0781,6.0781,6.0781,6.0781,6.0781,6.0781,4.8306,4.8306,4.8306,4.8306,4.8306,4.8306,4.8306,4.871,4.9297,5.0178,5.0288,5.0582,5.1389,5.1096,5.0986,5.1463,5.1059,5.0655,5.0325,4.9811,4.9627,4.9738,4.882,4.8526,4.904,4.8563,4.8306,4.8306,4.8513,4.8658,4.8658,4.8658,4.8658,4.8658,4.8658,4.8495,4.8325,4.8532,4.8495,4.8306,4.8306,4.8306,4.8306,4.8306,4.8402,4.8604,4.8994,4.9155,4.9187,4.9416,4.9341,4.9337,5.0561,5.0832,5.0719,5.1112,5.1215,5.1116,5.0532,5.0921,5.1541,5.1431,5.1933,5.2269,5.1548,5.1318,5.1125,5.0789,0.0,0.0,0.0,0.0,0.0,0.0,5.5906,5.7253,5.7934,5.9127,6.0627,6.2551,6.3435,6.3858,6.3858,6.3858,6.4205,6.5089,6.4474,6.4205,6.4589,6.3782,6.2935,6.2139,6.1601,6.1166,6.0781,6.0781,6.0781,6.0781,6.0781,6.0781,6.0781,6.0781,6.0781,6.0781,6.0781,6.0781,6.0781,6.0781,6.0781,6.0781,6.0781,6.0781,6.0858,6.1358,6.155,6.1639,4.8306,4.8306,4.8306,4.8306,4.8306,4.8379,4.8636,4.915,4.9921,5.0986,5.1132,5.1536,5.2527,5.2123,5.2123,5.2894,5.2454,5.194,5.1499,5.0692,5.0478,5.0946,4.9485,4.9007,4.9749,4.9044,4.8584,4.8477,4.8761,4.8945,4.9059,4.9059,4.9059,4.9059,4.9059,4.8915,4.8658,4.8965,4.8915,4.8622,4.8532,4.8383,4.8306,4.8306,4.8306,4.8344,4.864,4.8727,4.8779,4.9059,4.8999,4.9056,5.0775,5.0817,5.0359,5.1217,5.1164,5.0685,5.01,5.0583,5.1329,5.1382,5.1642,5.1846,5.1625,5.1279,5.101,5.101,5.1202,0.0,0.0,0.0,5.351,5.4357,0.0,5.6483,5.6945,5.755,5.8934,6.1627,6.2551,6.3051,6.3281,6.3089,6.332,6.4166,6.4051,6.4012,6.4243,6.3628,6.2935,6.2139,6.1473,6.105,6.0781,6.0781,6.0781,6.0781,6.0781,6.0781,6.0781,6.0781,6.0781,6.0781,6.0781,6.0781,6.0781,6.0781,6.0781,6.0781,6.0781,6.0935,6.1243,6.187,6.2101,6.2216,4.8306,4.8306,4.8306,4.8306,4.8306,4.86,4.9427,4.9574,5.0161,5.1756,5.194,5.2564,5.4142,5.4289,5.462,5.5412,5.5486,5.4766,5.3203,5.238,5.174,5.1393,5.0212,4.9731,5.0182,4.975,4.9325,4.8898,4.8878,4.9092,4.9475,4.9475,4.9475,4.9475,4.9475,4.9475,4.946,4.9475,4.9475,4.9431,4.9027,4.8658,4.8306,4.8306,4.8306,4.8306,4.8325,4.8325,4.8325,4.8344,4.8344,4.8472,4.9392,4.9917,5.0179,5.0182,5.0478,5.0627,4.9744,5.0402,5.1115,5.0352,5.1042,5.1692,5.0933,5.1318,5.1846,5.1846,5.2538,5.3126,5.3126,5.3164,5.351,5.4357,5.4549,0.0,0.0,5.7022,5.7396,5.8357,6.0627,6.2435,6.3243,6.2589,6.2474,6.3281,6.2627,6.2512,6.3308,6.332,6.2935,6.2139,6.2062,6.1639,6.0819,6.0781,6.0781,6.0781,6.0781,6.0781,6.0781,6.0781,6.0781,6.0781,6.0781,6.0781,6.0781,6.0781,6.0781,6.0781,6.0781,6.132,6.2062,6.2101,6.2101,6.2216,4.9958,4.9958,4.9591,4.8489,4.8306,4.8783,5.0178,5.0839,5.1777,5.3371,5.3592,5.4216,5.5831,5.55,5.55,5.6308,5.5904,5.5354,5.4803,5.3555,5.3346,5.4597,5.193,5.1115,5.2602,5.0859,4.9858,4.968,4.9694,4.9754,4.9898,4.9898,4.9898,4.9898,4.9898,4.9765,4.9556,5.0337,5.0575,5.0357,5.0497,5.0484,5.0194,4.8807,4.8673,4.917,4.917,4.9481,4.9958,4.9958,4.9958,4.9994,5.0288,5.0132,4.9806,4.9787,4.9455,4.9244,4.9758,5.0628,5.1343,5.1305,5.1839,5.2126,5.1285,5.1519,5.1885,5.1885,5.2577,5.3203,5.3203,5.3664,5.4164,5.4434,5.4934,5.5472,0.0,5.6637,5.7099,5.7396,5.9165,6.0704,6.155,6.1396,6.1589,6.2435,6.2255,6.2435,6.3281,6.2781,6.2358,6.2101,6.1562,6.1089,6.0781,6.0781,6.0781,6.0781,6.0781,6.0781,6.0781,6.0781,6.0781,6.0781,6.0781,6.0781,6.0781,6.0781,6.0781,6.0858,6.1435,6.1831,6.2178,6.2704,6.3243,6.3858,5.1269,5.1231,5.0842,4.9621,4.9399,4.9823,5.1063,5.1903,5.2894,5.4216,5.4656,5.5317,5.6675,5.6345,5.6345,5.7152,5.6748,5.6198,5.5633,5.4796,5.483,5.605,5.3851,5.3123,5.4301,5.2594,5.1286,5.0529,5.0542,5.0438,5.0325,5.0325,5.0325,5.0325,5.0325,5.0324,5.0393,5.1188,5.1584,5.1673,5.1783,5.1759,5.1466,4.9971,4.9655,5.0031,5.0031,5.0362,5.0802,5.0802,5.0802,5.0839,5.1132,5.0472,4.9647,4.9941,4.9407,4.8934,4.9714,5.0654,5.1407,5.1624,5.2001,5.2213,5.1643,5.208,5.2571,5.2571,5.3398,5.4087,5.4087,5.4549,5.4934,5.4934,5.5357,5.5703,0.0,5.6175,5.6791,5.7396,5.8665,5.9704,6.0281,6.0627,6.1012,6.1601,6.1639,6.1858,6.2397,6.1935,6.1639,6.1639,6.1089,6.0781,6.0781,6.0781,6.0781,6.0781,6.0781,6.0781,6.0781,6.0781,6.0781,6.0781,6.0781,6.0781,6.0781,6.0781,6.0781,6.0896,6.1755,6.2293,6.2627,6.3474,6.432,6.5128,5.2265,5.222,5.2136,5.1755,5.1556,5.1639,5.2046,5.2826,5.3613,5.4399,5.5244,5.6051,5.6859,5.6932,5.7226,5.7923,5.7997,5.7336,5.5816,5.6145,5.6219,5.5896,5.5869,5.5693,5.53,5.4798,5.3518,5.1497,5.1369,5.114,5.075,5.0712,5.0712,5.0712,5.0712,5.1164,5.1885,5.1962,5.25,5.3297,5.2903,5.2509,5.2115,5.169,5.1306,5.0952,5.0875,5.0875,5.0912,5.0912,5.0912,5.1059,5.1756,5.0969,4.9867,5.0582,5.0251,4.9684,4.9721,5.049,5.134,5.1377,5.1703,5.1948,5.1948,5.293,5.3824,5.3824,5.481,5.5703,5.5703,5.5703,5.5703,5.5703,5.5703,5.5703,5.5703,5.5703,5.6319,5.7973,5.8896,5.9396,5.9473,6.0204,6.0704,6.0742,6.0742,6.0742,6.0781,6.0781,6.0781,6.0781,6.0781,6.0781,6.0781,6.0781,6.0781,6.0781,6.0781,6.0781,6.0781,6.0781,6.0781,6.0781,6.0781,6.0781,6.0781,6.0781,6.0819,6.0935,6.1831,6.2666,6.3538,6.4359,6.5205,6.5897,5.4877,5.5534,5.6025,5.5621,5.3978,5.2874,5.3349,5.4572,5.5616,5.6132,5.7409,5.8364,5.8561,5.8561,5.8437,5.8033,5.7997,5.7813,5.7409,5.7274,5.7585,5.8391,5.7326,5.7081,5.7919,5.5954,5.4683,5.4116,5.2526,5.1708,5.1587,5.0971,5.0712,5.0712,5.0712,5.1164,5.1923,5.2577,5.3703,5.5028,5.4612,5.4419,5.4258,5.3858,5.3412,5.2919,5.2009,5.2087,5.2601,5.2601,5.2601,5.2527,5.2123,5.174,5.1316,5.0912,5.0655,5.0618,5.1226,5.1601,5.1959,5.2565,5.2806,5.2868,5.2868,5.363,5.4326,5.4326,5.5072,5.5703,5.5703,5.5703,5.5703,5.5703,5.5703,5.5703,5.5703,5.5703,5.5857,5.6319,5.7126,5.8127,5.9396,5.9165,5.9204,5.9781,5.9819,6.0127,6.0781,6.0781,6.0781,6.0781,6.0781,6.0781,6.0781,6.0781,6.0781,6.0781,6.0781,6.0781,6.0781,6.0781,6.0781,6.0781,6.0781,6.0781,6.0781,6.0781,6.1166,6.187,6.2666,6.3897,6.5243,6.5474,6.5705,6.5897,5.6968,5.7695,5.8348,5.812,5.7215,5.6284,5.5585,5.5919,5.6434,5.6995,5.7986,5.875,5.8903,5.9421,5.9656,5.9413,5.942,5.9196,5.8706,5.899,5.9214,5.9197,5.8866,5.8838,5.9128,5.7749,5.6485,5.5375,5.4156,5.301,5.1885,5.1433,5.1048,5.0712,5.0712,5.1356,5.2538,5.378,5.4857,5.5692,5.5446,5.5375,0.0,5.4905,5.4609,5.4263,5.3402,5.3154,5.3203,5.3203,5.3203,5.3093,5.2674,5.227,5.1903,5.1463,5.1316,5.1426,5.1867,5.227,5.2637,5.3115,5.331,5.3457,5.3457,5.415,5.4771,5.4771,5.527,5.5703,5.5703,5.5703,5.5703,5.5703,5.5703,5.5703,5.5703,5.5703,5.5818,5.6214,5.6368,5.7088,5.8819,5.8896,5.9011,5.9473,5.9858,6.0281,6.0781,6.0781,6.0781,6.0781,6.0781,6.0781,6.0781,6.0781,6.0781,6.0781,6.0781,6.0781,6.0781,6.0781,6.0781,6.0781,6.0781,6.0781,6.0781,6.0781,6.132,6.2216,6.3397,6.4705,6.5897,6.5897,6.5897,6.5897,5.8877,5.9358,5.9819,5.9704,6.0396,6.0326,5.8483,5.7566,5.7323,5.7898,5.8513,5.8902,5.918,6.0137,6.0885,6.1276,6.128,6.0882,5.9877,6.0896,6.0895,5.9445,6.0393,6.0627,5.9858,5.9627,5.8357,5.6049,5.5818,5.4511,5.2231,5.2,5.1548,5.0856,5.075,5.1625,5.3318,5.4895,5.5588,5.5703,5.5703,5.5703,5.5682,5.5453,5.5313,5.5219,5.5004,5.4219,5.3293,5.3293,5.323,5.3203,5.3203,5.2711,5.216,5.216,5.216,5.216,5.216,5.2674,5.3203,5.3203,5.3524,5.3795,5.3869,5.451,5.5121,5.5173,5.5446,5.5703,5.5703,5.5703,5.5703,5.5703,5.5703,5.5703,5.5703,5.5703,5.5972,5.6753,5.6165,0.0,5.7819,5.8704,5.9242,5.9473,6.0204,6.0666,6.0781,6.0781,6.0781,6.0781,6.0781,6.0781,6.0781,6.0781,6.0781,6.0781,6.0781,6.0781,6.0781,6.0781,6.0781,6.0781,6.0781,6.0781,6.0819,6.0935,6.155,6.2589,6.4166,6.5243,6.5897,6.5897,6.5897,6.5897,6.1589,6.1562,6.1396,6.0704,6.1281,6.1825,6.172,6.1603,6.1397,6.1164,6.2391,6.303,6.2354,6.2485,6.2391,6.1826,6.1788,6.1674,6.15,6.2037,6.2254,6.1949,6.1876,6.1793,6.1639,6.0242,5.8973,5.7857,5.6395,5.5126,5.401,5.2577,5.1808,5.1654,5.101,5.1625,5.328,5.428,5.5088,5.5703,5.5703,5.5703,5.578,5.6417,5.6472,5.6265,5.6844,5.5616,5.3683,5.3683,5.3484,5.3203,5.3203,5.3093,5.3004,5.3004,5.3004,5.3004,5.3004,5.3093,5.3203,5.3203,5.3524,5.3887,5.4288,5.4745,5.5199,5.5543,5.5632,5.5703,5.5703,5.5703,5.5703,5.5703,5.5703,5.5703,5.5703,5.5703,5.5742,5.5895,5.578,5.5818,5.6126,5.6934,5.8011,5.9396,5.9627,6.005,6.0742,6.0781,6.0781,6.0781,6.0781,6.0781,6.0781,6.0781,6.0781,6.0781,6.0781,6.0781,6.0781,6.0781,6.0781,6.0781,6.0781,6.0781,6.0858,6.1601,6.2781,6.4243,6.5282,6.5782,6.5897,6.5897,6.5897,6.5897,6.2781,6.2704,6.2589,6.2166,6.282,6.3463,6.3625,6.4019,6.3815,6.2461,6.2738,6.3045,6.2855,6.3401,6.3706,6.3571,6.3567,6.3498,6.3299,6.3528,6.342,6.296,6.281,6.2704,6.2704,6.1473,6.0204,5.8934,5.7665,5.6165,5.4472,5.3164,5.2308,5.1885,5.1972,5.2433,5.3318,5.5049,5.6022,5.6406,5.6857,5.7049,5.7088,5.7511,5.7536,5.7454,5.7825,5.6996,5.5621,5.478,5.437,5.4058,5.3419,5.3203,5.3203,5.3203,5.3203,5.3203,5.3203,5.3203,5.3203,5.3203,5.3524,5.3851,5.4083,5.4655,5.5045,5.4776,5.5258,5.5703,5.5703,5.5703,5.5703,5.5703,5.5703,5.5703,5.5703,5.5703,5.5703,5.5703,5.5703,5.6049,5.6973,5.7434,5.8011,5.8819,5.9665,6.0358,6.0781,6.0781,6.0781,6.0781,6.0781,6.0781,6.0781,6.0781,6.0781,6.0781,6.0781,6.0781,6.0781,6.0781,6.0781,6.0781,6.0781,6.0781,6.0896,6.2204,6.3474,6.4705,6.5551,6.5897,6.5897,6.5897,6.5897,6.5897,6.3628,6.3589,6.3512,6.332,6.4012,6.4589,6.4589,6.532,6.5269,6.3547,6.2975,6.2911,6.3268,6.416,6.4871,6.5245,6.5276,6.5178,6.4885,6.4897,6.4589,6.3897,6.3666,6.3589,6.3589,6.2781,6.1512,5.9781,5.9127,5.7511,5.5011,5.4126,5.3203,5.2192,5.3087,5.3587,5.3857,5.606,5.7099,5.7319,5.8011,5.8319,5.8319,5.8511,5.855,5.8588,5.8781,5.8589,5.8047,5.6455,5.5731,5.5324,5.4326,5.389,5.3702,5.3617,5.3465,5.3297,5.3209,5.3203,5.3203,5.3203,5.3424,5.3683,5.3796,5.4398,5.4784,5.4204,5.4951,5.5703,5.5703,5.5703,5.5703,5.5703,5.5857,5.5972,5.5972,5.6126,5.6242,5.6242,5.6088,5.6511,5.7896,5.8204,5.8319,5.8319,5.9858,6.0704,6.0512,6.0704,6.0704,6.0512,6.0704,6.0781,6.0781,6.0781,6.0781,6.0781,6.0781,6.0781,6.0781,6.0781,6.0781,6.0781,6.0781,6.0896,6.1204,6.2897,6.3974,6.4705,6.5551,6.5897,6.5897,6.5897,6.5897,6.5897,6.4628,6.4474,6.4243,6.3435,6.4012,6.4589,6.4589,6.532,6.5808,6.5628,6.5564,6.5551,6.5577,6.5666,6.5781,6.5808,6.5821,6.5833,6.5782,6.5782,6.5743,6.5667,6.4897,6.4474,6.4474,6.3628,6.2358,6.0666,6.0589,5.9242,5.6753,5.5857,5.4626,5.3126,5.3972,5.478,5.5511,5.656,5.7473,5.8204,5.828,5.8319,5.8396,5.9127,5.9396,5.9473,6.0281,6.0538,6.0313,5.8991,5.7787,5.6786,5.666,5.6099,5.5413,5.5025,5.4372,5.3644,5.3314,5.3203,5.3203,5.3203,5.3209,5.3359,5.372,5.4187,5.4655,5.4925,5.5346,5.5703,5.5703,5.5703,5.5703,5.5703,5.6368,5.6868,5.6868,5.755,5.805,5.805,5.7357,5.6945,5.7099,5.7857,5.8319,5.8319,5.9858,6.0473,5.9665,6.0358,6.0435,5.9665,6.0396,6.0781,6.0781,6.0781,6.0781,6.0781,6.0781,6.0781,6.0781,6.0781,6.0781,6.0781,6.0781,6.1243,6.2101,6.3782,6.4551,6.4705,6.5551,6.5897,6.5897,6.5897,6.5897,6.5897,6.5436,6.4974,6.4666,6.482,6.4705,6.4782,6.5282,6.5667,6.5897,6.5897,6.5897,6.5897,6.5897,6.5897,6.5897,6.5897,6.5897,6.5897,6.5897,6.5897,6.5897,6.5897,6.5551,6.5397,6.5397,6.4551,6.3512,6.232,6.1281,6.0012,5.8473,5.7088,5.5818,5.4741,5.5588,5.6175,5.656,5.7934,5.8704,5.9088,5.9588,5.9781,5.9858,6.0165,6.0281,6.0319,6.0666,6.0781,6.0731,6.0226,5.9199,5.8015,5.7235,5.6776,5.6463,5.6295,5.6001,5.5685,5.5508,5.5099,5.4707,5.4707,5.4333,5.4033,5.417,5.4563,5.4776,5.4381,5.4683,5.5126,5.5588,5.5703,5.5703,5.5703,5.6445,5.6983,5.6983,5.7742,5.8319,5.8319,5.7511,5.7214,5.7742,5.8088,5.8319,5.8319,5.9858,6.0666,6.0281,6.0127,6.0089,6.0281,6.0127,6.0281,6.0781,6.0781,6.0781,6.0781,6.0781,6.0781,6.0781,6.0781,6.0781,6.0781,6.0781,6.155,6.2858,6.3551,6.4436,6.5397,6.5743,6.5897,6.5897,6.5897,6.5897,6.5897,6.5897,6.5397,6.5166,6.5782,6.5397,6.5205,6.582,6.5897,6.5897,6.5897,6.5897,6.5897,6.5897,6.5897,6.5897,6.5897,6.5897,6.5897,6.5897,6.5897,6.5897,6.5897,6.5897,6.5897,6.5897,6.5282,6.4551,6.3666,6.2512,6.1204,5.9858,5.8396,5.7396,5.6857,5.8022,5.8484,5.8599,6.0012,6.0627,6.0666,6.1281,6.155,6.155,6.155,6.155,6.155,6.155,6.1396,6.1166,6.1166,6.0418,5.9303,5.8401,5.7931,5.7711,5.7604,5.7368,5.7147,5.7035,5.6533,5.608,5.608,5.546,5.484,5.484,5.4994,5.4943,5.4473,5.4637,5.5011,5.5588,5.5703,5.578,5.6049,5.6819,5.7473,5.7715,5.8473,5.8934,5.8665,5.7896,5.7511,5.7896,5.7934,5.7934,5.7934,5.9242,5.9935,5.9704,5.9588,5.9665,6.005,5.9704,5.9935,6.0781,6.0781,6.0781,6.0781,6.0781,6.0781,6.0781,6.0781,6.0781,6.0819,6.132,6.2089,6.3012,6.3782,6.4628,6.5551,6.5782,6.5897,6.5897,6.5897,6.5897,6.5897,6.5897,6.5897,6.5897,6.5897,6.5897,6.5897,6.5897,6.5897,6.5897,6.5897,6.5897,6.5897,6.5897,6.5897,6.5897,6.5897,6.5897,6.5897,6.5897,6.5897,6.5897,6.5897,6.5897,6.5897,6.5897,6.5897,6.5474,6.4589,6.4551,6.3243,6.0781,5.9896,5.9473,5.9511,6.1281,6.2062,6.2101,6.2897,6.3231,6.3231,6.3281,6.3281,6.3281,6.3281,6.3281,6.3281,6.3281,6.2743,6.2101,6.2101,6.1512,6.0781,6.0769,6.0154,5.9403,5.897,5.8248,5.7516,5.7116,5.7003,5.6965,5.6965,5.6344,5.5686,5.5686,5.5388,5.5212,5.5599,5.5665,5.5703,5.5703,5.5703,5.5972,5.683,5.7703,5.855,5.9358,6.0204,6.0435,5.9588,5.8781,5.7934,5.7099,5.7022,5.7022,5.7022,5.7819,5.7934,5.7099,5.8588,5.9127,5.8357,5.9088,5.9935,6.0781,6.0781,6.0781,6.0781,6.0781,6.0781,6.0781,6.0781,6.0781,6.0896,6.2551,6.282,6.2332,6.482,6.5359,6.4705,6.5551,6.5897,6.5897,6.5897,6.5897,6.5897,6.5897,6.5897,6.6051,6.6628,6.6705,6.6898,6.7513,6.759,6.759,6.759,6.709,6.6705,6.6705,6.6244,6.5897,6.5897,6.5897,6.5897,6.5897,6.5897,6.5897,6.5897,6.5897,6.5897,6.5897,6.5897,6.5743,6.5474,6.4897,6.3897,6.2512,6.2243,6.2089,6.2127,6.2666,6.2935,6.2935,6.3205,6.3308,6.3308,6.3308,6.3308,6.3308,6.3308,6.3308,6.3308,6.3308,6.3128,6.2935,6.2935,6.2743,6.2512,6.2512,6.1512,6.0346,6.025,5.9983,5.974,5.9639,5.9153,5.8681,5.8681,5.7647,5.6575,5.6575,5.6036,5.5554,5.5692,5.5703,5.5703,5.5703,5.6214,5.6676,5.6945,5.8204,5.9204,5.9473,6.0242,6.0473,5.9588,5.8781,5.7973,5.7099,5.6983,5.6983,5.6983,5.8319,5.8781,5.7934,5.8396,5.8819,5.9127,5.9358,5.9935,6.0781,6.0781,6.0781,6.0781,6.0781,6.1089,6.1678,6.1678,6.1973,6.2551,6.3089,6.3512,6.3858,6.4666,6.5205,6.5513,6.5782,6.5897,6.5897,6.5897,6.5897,6.5897,6.6859,6.6859,6.7013,6.7513,6.759,6.7782,6.8321,6.8385,6.8385,6.8385,6.7628,6.709,6.709,6.6359,6.5897,6.5897,6.5897,6.5897,6.5897,6.5897,6.5897,6.5897,6.5897,6.5897,6.5897,6.5897,6.5897,6.5897,6.5013,6.432,6.3782,6.3782,6.3782,6.382,6.4128,6.4282,6.4282,6.4282,6.4282,6.4282,6.4282,6.4282,6.4282,6.4282,6.4282,6.4282,6.4282,6.4089,6.3782,6.3782,6.3589,6.3308,6.3308,6.2589,6.1666,6.1358,6.1281,6.1216,6.0896,6.0396,5.9973,5.9973,5.8973,5.7791,5.7137,5.6329,5.5703,5.5703,5.5703,5.578,5.6126,5.6637,5.7214,5.7819,5.8819,5.9627,5.9935,6.0473,6.0358,5.9204,5.8627,5.7973,5.7099,5.6983,5.6983,5.6983,5.828,5.8704,5.7857,5.8396,5.8858,5.905,5.9358,5.9935,6.0781,6.0781,6.0781,6.0781,6.1127,6.1562,6.2101,6.2397,6.282,6.332,6.3666,6.4089,6.4628,6.4936,6.5397,6.5897,6.5897,6.5897,6.5897,6.5897,6.5897,6.5897,6.8385,6.8385,6.8436,6.8475,6.8513,6.85,6.8577,6.8577,6.8577,6.8577,6.7821,6.7282,6.7282,6.6551,6.6051,6.5974,6.5936,6.5897,6.5897,6.5897,6.5897,6.5897,6.5897,6.5897,6.5897,6.5897,6.5897,6.5897,6.5089,6.4705,6.4705,6.4705,6.4705,6.4743,6.5551,6.5897,6.5897,6.5897,6.5897,6.5897,6.5897,6.5897,6.5897,6.5897,6.5897,6.5897,6.5897,6.5397,6.4705,6.4705,6.4166,6.3462,6.3462,6.3462,6.332,6.2435,6.2178,6.1985,6.1127,6.0896,6.0858,6.0819,6.0127,5.9088,5.7445,5.6472,5.5857,5.578,5.5818,5.6088,5.6868,5.7099,5.7665,5.9242,5.955,5.9858,6.0704,6.0742,6.0127,5.8511,5.8319,5.7973,5.7099,5.6983,5.706,5.7176,5.7857,5.7973,5.7214,5.8704,5.9204,5.8396,5.9165,5.9973,6.0781,6.0781,6.0819,6.0896,6.1793,6.2216,6.2293,6.3051,6.3423,6.3551,6.4359,6.4705,6.4743,6.5551,6.5897,6.5897,6.5897,6.5897,6.5897,6.5897,6.5897,6.5897,6.8385,6.8385,6.8629,6.9283,6.9398,6.959,7.0206,7.0321,7.0321,7.0321,6.959,6.909,6.909,6.8321,6.7552,6.6859,6.6244,6.5897,6.5897,6.5897,6.5897,6.5897,6.5897,6.5897,6.5897,6.5897,6.5897,6.5897,6.5705,6.559,6.559,6.559,6.559,6.559,6.582,6.5897,6.5897,6.5897,6.5897,6.5897,6.5897,6.5897,6.5897,6.5897,6.5897,6.5897,6.5897,6.5782,6.559,6.559,6.5474,6.5282,6.5282,6.5282,6.4974,6.3474,6.3012,6.2858,6.2024,6.1793,6.1639,6.0973,6.0127,5.9242,5.8204,5.7819,5.7511,5.683,5.7203,5.755,5.7099,5.805,5.905,5.9435,6.005,6.055,6.0781,6.0242,5.9435,5.8434,5.8319,5.7973,5.7099,5.6983,5.7522,5.8819,5.855,5.8473,5.8896,5.9935,6.0089,5.9242,6.005,6.0589,6.0781,6.0781,6.1127,6.1793,6.2627,6.3358,6.4012,6.4205,6.4666,6.5282,6.5513,6.559,6.559,6.582,6.5897,6.5897,6.5897,6.5897,6.5897,6.5897,6.5897,6.5897,6.9552,6.9552,6.9706,7.0167,7.0244,7.0398,7.0821,7.0898,7.0898,7.0898,7.0206,6.9706,6.9706,6.8936,6.8205,6.7744,6.6936,6.6282,6.5897,6.5897,6.5897,6.5897,6.5897,6.5897,6.5897,6.5897,6.5897,6.5897,6.5897,6.5897,6.5897,6.5897,6.5897,6.5897,6.5897,6.5897,6.5897,6.5897,6.5897,6.5897,6.5897,6.5897,6.5897,6.5897,6.5897,6.5897,6.5897,6.5897,6.5897,6.5897,6.5897,6.5897,6.5897,6.5897,6.5705,6.4782,6.4205,6.3705,6.2897,6.2358,6.1908,6.1012,6.0127,5.9396,5.8934,5.855,5.8165,5.7703,5.7973,5.828,5.8165,5.8896,5.9627,6.0012,6.0165,6.0204,6.0204,5.9473,5.8627,5.7819,5.805,5.8127,5.7627,5.7934,5.8511,5.9435,5.9473,5.9473,5.9511,6.0319,6.0396,5.9511,6.0358,6.0973,6.1408,6.1743,6.2166,6.2666,6.3512,6.4128,6.4628,6.5013,6.5436,6.5897,6.5897,6.5897,6.5897,6.5897,6.5897,6.5897,6.5897,6.5897,6.5897,6.5897,6.5897,6.5897,7.0898,7.0898,7.0898,7.0898,7.0898,7.0898,7.0898,7.0898,7.0898,7.0898,7.0321,6.9898,6.9898,6.9206,6.8744,6.8629,6.7936,6.7128,6.632,6.6282,6.6205,6.609,6.609,6.6013,6.5897,6.5897,6.5897,6.5897,6.5897,6.5897,6.5897,6.5897,6.5897,6.5897,6.5897,6.5897,6.5897,6.5897,6.5897,6.5897,6.5897,6.5897,6.5897,6.5897,6.5897,6.5897,6.5897,6.5897,6.5897,6.5897,6.5897,6.5897,6.5897,6.5897,6.5897,6.5897,6.5397,6.4628,6.3743,6.282,6.1908,6.1012,6.0242,5.9704,5.9704,5.9165,5.8627,5.8511,5.8588,5.8858,5.9396,5.9627,5.9935,6.0666,6.0165,5.9665,5.9511,5.8819,5.805,5.728,5.7857,5.8357,5.8473,5.9088,5.955,5.9704,6.0242,6.0319,5.9742,6.0396,6.0512,5.9896,6.0589,6.1396,6.2293,6.3089,6.3512,6.3512,6.4397,6.4782,6.482,6.5551,6.5897,6.5897,6.5897,6.5897,6.5897,6.5897,6.5897,6.5897,6.5897,6.5897,6.5897,6.5897,6.5897,6.5897,7.0898,7.0898,7.0898,7.0898,7.0898,7.0898,7.0898,7.0898,7.0898,7.0898,7.0783,7.0706,7.0706,7.0591,7.0244,6.9552,6.936,6.8936,6.809,6.8013,6.7667,6.6936,6.6898,6.659,6.5897,6.5897,6.5897,6.5897,6.5897,6.5897,6.5897,6.5897,6.5897,6.5897,6.5897,6.5897,6.5897,6.5897,6.5897,6.5897,6.5897,6.5897,6.5897,6.5897,6.5897,6.5897,6.5897,6.5897,6.5897,6.5897,6.5897,6.5897,6.5897,6.5897,6.5897,6.5897,6.5782,6.5513,6.4628,6.3281,6.1908,6.1012,6.0704,6.0589,6.0589,6.0512,6.0204,5.9473,5.9896,6.0242,5.9627,6.0089,6.0627,6.0781,6.0704,6.0319,5.9588,5.8819,5.8242,5.8127,5.8204,5.8588,5.9242,5.9435,5.9819,6.055,6.005,5.9973,6.055,6.0742,6.1089,6.1678,6.1831,6.2281,6.3128,6.3974,6.4397,6.4397,6.5282,6.5705,6.5705,6.582,6.5897,6.5897,6.5897,6.5897,6.5897,6.5897,6.5897,6.5897,6.5897,6.5897,6.5897,6.5897,6.5897,6.5897,7.0898,7.0898,7.0898,7.0898,7.0898,7.0898,7.0898,7.0898,7.0898,7.0898,7.0898,7.0898,7.0898,7.0898,7.0744,7.0398,7.036,7.0167,6.9783,6.8898,6.8013,6.7128,6.709,6.6705,6.5897,6.5897,6.5897,6.5897,6.5897,6.5897,6.5897,6.5897,6.5897,6.5897,6.5897,6.5897,6.5897,6.5897,6.5897,6.5897,6.5897,6.5897,6.5897,6.5897,6.5897,6.5897,6.5897,6.5897,6.5897,6.5897,6.5897,6.5897,6.5897,6.5897,6.5897,6.5897,6.5897,6.5705,6.4859,6.4051,6.3128,6.182,6.1512,6.1358,6.0896,6.0781,6.0704,6.0281,6.0512,6.0666,6.0281,6.0512,6.0781,6.0781,6.0396,5.9973,5.955,5.8819,5.8319,5.8319,5.8665,5.9088,5.9473,5.9935,6.0358,6.0781,6.0435,6.0358,6.0781,6.1243,6.1858,6.2704,6.3205,6.3628,6.4012,6.4859,6.5282,6.532,6.5705,6.5897,6.5897,6.5897,6.5897,6.5897,6.5897,6.5897,6.5897,6.5897,6.5897,6.5897,6.5897,6.5897,6.5897,6.5897,6.5897,6.5897,7.1437,7.1321,7.1283,7.1475,7.1514,7.1437,7.1245,7.1206,7.1129,7.0937,7.0898,7.0898,7.0898,7.0898,7.0898,7.0898,7.0898,7.0898,7.0898,6.9706,6.859,6.7744,6.7321,6.6821,6.6205,6.6013,6.5897,6.5897,6.5897,6.5897,6.5897,6.5897,6.5897,6.5897,6.5897,6.5897,6.5897,6.5897,6.5897,6.5897,6.5897,6.5897,6.5897,6.5897,6.5897,6.5897,6.5897,6.5897,6.5897,6.5897,6.5897,6.5897,6.5897,6.5897,6.5897,6.5897,6.5897,6.5705,6.4859,6.4589,6.4243,6.2743,6.2358,6.2204,6.1512,6.1243,6.1089,6.1089,6.0935,6.0781,6.0781,6.0781,6.0781,6.0781,6.0242,5.9742,5.9511,5.8973,5.8588,5.8588,5.9127,5.9588,5.9781,6.0396,6.0781,6.0781,6.0781,6.0896,6.1089,6.1755,6.2551,6.3589,6.4436,6.4897,6.4897,6.5551,6.5897,6.5897,6.5897,6.5897,6.5897,6.5897,6.5897,6.5897,6.5897,6.5897,6.5897,6.5897,6.5897,6.5897,6.5897,6.5897,6.5897,6.5897,6.5897,6.5897,7.3014,7.2668,7.236,7.3168,7.3322,7.3053,7.2206,7.2091,7.1822,7.1014,7.0898,7.0898,7.0898,7.0898,7.0898,7.0898,7.0898,7.0898,7.0898,7.0783,7.036,6.9552,6.7975,6.7051,6.7013,6.6282,6.5897,6.5897,6.5897,6.5897,6.5897,6.5897,6.5897,6.5897,6.5897,6.5897,6.5897,6.5897,6.5897,6.5897,6.5897,6.5897,6.5897,6.5897,6.5897,6.5897,6.5897,6.5897,6.5897,6.5897,6.5897,6.5897,6.5897,6.5897,6.5897,6.5897,6.5897,6.5705,6.4859,6.4589,6.4397,6.3435,6.3205,6.3192,6.3115,6.2551,6.1985,6.1985,6.1358,6.0781,6.0781,6.0781,6.0781,6.0781,6.0742,6.0435,5.9627,5.9435,5.9396,5.9396,5.9473,5.9819,6.0627,6.0742,6.0781,6.0781,6.0781,6.1127,6.1947,6.2062,6.282,6.4436,6.5359,6.5782,6.5782,6.5859,6.5897,6.5897,6.5897,6.5897,6.5897,6.5897,6.5897,6.5897,6.5897,6.5897,6.5897,6.5897,6.5897,6.5897,6.5897,6.5897,6.5897,6.5897,6.5897,6.5897,7.336,7.3245,7.3129,7.3437,7.3053,7.2591,7.2245,7.1745,7.1283,7.0937,7.0898,7.0898,7.0898,7.0898,7.0898,7.0898,7.0898,7.0898,7.0898,7.0898,7.0552,6.9744,6.8552,6.7898,6.7898,6.709,6.6628,6.6628,6.6128,6.5897,6.5897,6.5897,6.5897,6.5897,6.5897,6.5897,6.5897,6.5897,6.5897,6.5897,6.5897,6.5897,6.5897,6.5897,6.5897,6.5897,6.5897,6.5897,6.5897,6.5897,6.5897,6.5897,6.5897,6.5897,6.5897,6.5897,6.5897,6.582,6.5513,6.5397,6.5205,6.432,6.4128,6.3974,6.3423,6.3051,6.2704,6.2216,6.2243,6.205,6.0973,6.1243,6.1435,6.0896,6.0781,6.0666,6.0358,6.0319,6.0319,6.0319,6.0319,6.0435,6.0781,6.0781,6.0781,6.0781,6.1281,6.1755,6.2101,6.3089,6.4205,6.5359,6.5743,6.5897,6.5897,6.5897,6.5897,6.5897,6.5897,6.5897,6.5897,6.5897,6.5897,6.5897,6.5897,6.5897,6.5897,6.5897,6.5897,6.5897,6.5897,6.5897,6.5897,6.5897,6.5897,6.5897,7.4168,7.4053,7.3976,7.4245,7.3783,7.3283,7.3014,7.2245,7.1629,7.1321,7.1052,7.0898,7.0898,7.0898,7.0898,7.0898,7.0898,7.0898,7.0898,7.0898,7.0667,7.009,6.9244,6.8821,6.8821,6.7936,6.7359,6.709,6.6551,6.6128,6.5897,6.5897,6.5897,6.5897,6.6167,6.6128,6.5897,6.6167,6.6128,6.5897,6.6167,6.6128,6.5936,6.6167,6.6128,6.5897,6.5897,6.5897,6.5897,6.5897,6.5897,6.5897,6.5897,6.5897,6.5897,6.5897,6.5897,6.5897,6.5897,6.5897,6.5743,6.5166,6.5013,6.4859,6.4243,6.3897,6.3551,6.3012,6.3128,6.2974,6.1781,6.205,6.2281,6.1666,6.1589,6.1589,6.1589,6.1358,6.1204,6.1204,6.0973,6.0781,6.0781,6.105,6.1204,6.1204,6.2012,6.2589,6.287,6.4243,6.5282,6.5859,6.5897,6.5897,6.5897,6.5897,6.5897,6.5897,6.5897,6.5897,6.5897,6.5897,6.5897,6.5897,6.5897,6.5897,6.5897,6.5897,6.5897,6.5897,6.5897,6.5897,6.5897,6.5897,6.5897,6.5897,7.5668,7.5284,7.4976,7.5861,7.5976,7.5707,7.4822,7.4014,7.3206,7.2322,7.1437,7.0898,7.0898,7.0898,7.0898,7.0898,7.0898,7.0898,7.0898,7.0898,7.0898,7.0898,7.0129,6.9706,6.9706,6.8859,6.7975,6.7128,6.709,6.6705,6.5897,6.5897,6.5897,6.5936,6.6744,6.6667,6.5974,6.6782,6.6628,6.5974,6.6782,6.6628,6.6013,6.6821,6.659,6.5897,6.5897,6.5897,6.5897,6.5897,6.5897,6.5897,6.5897,6.5897,6.5897,6.5897,6.5897,6.5897,6.5897,6.5897,6.5897,6.5897,6.5897,6.5897,6.5897,6.5243,6.4628,6.4589,6.3935,6.332,6.3308,6.3308,6.3308,6.3308,6.3308,6.3308,6.3308,6.2589,6.2101,6.2101,6.1331,6.0819,6.0819,6.1601,6.2101,6.2101,6.2858,6.3705,6.4551,6.5436,6.5897,6.5897,6.5897,6.5897,6.5897,6.5897,6.5897,6.5897,6.5897,6.5897,6.5897,6.5897,6.5897,6.5897,6.5897,6.5897,6.5897,6.5897,6.5897,6.5897,6.5897,6.5897,6.5897,6.5897,6.5897,6.5897,7.5899,7.5784,7.5707,7.5938,7.5476,7.5014,7.4745,7.4014,7.3399,7.3168,7.236,7.1822,7.1822,7.1283,7.0898,7.0898,7.0898,7.0898,7.0898,7.0898,7.0898,7.0898,7.0667,7.0552,7.0552,6.9744,6.9167,6.8936,6.8321,6.7898,6.7667,6.7667,6.7667,6.7667,6.7898,6.7898,6.7667,6.7898,6.7859,6.7667,6.7936,6.7859,6.7667,6.7936,6.7475,6.6744,6.6744,6.6359,6.5897,6.5897,6.5897,6.5897,6.5897,6.5897,6.5897,6.5897,6.5897,6.5897,6.5897,6.5897,6.5897,6.5897,6.5897,6.5897,6.5897,6.5705,6.532,6.4743,6.4897,6.4743,6.3551,6.382,6.4012,6.3385,6.3308,6.3308,6.3308,6.3089,6.2743,6.2178,6.187,6.1716,6.1716,6.1947,6.232,6.2897,6.3743,6.4589,6.5474,6.5743,6.5897,6.5897,6.5897,6.5897,6.5897,6.5897,6.5897,6.5897,6.5897,6.5897,6.5897,6.5897,6.5897,6.5897,6.5897,6.5897,6.5897,6.5897,6.5897,6.5897,6.5897,6.5897,6.5897,6.5897,6.5897,6.5897,7.6015,7.6015,7.6015,7.6015,7.5553,7.5207,7.5207,7.4514,7.386,7.3538,7.2745,7.2052,7.1706,7.1206,7.0898,7.0898,7.0898,7.0898,7.0898,7.0898,7.0898,7.0898,7.0898,7.0898,7.0898,7.0437,7.0014,6.9706,6.9167,6.8744,6.8385,6.8385,6.8385,6.8436,6.8783,6.8744,6.8436,6.8783,6.8744,6.8436,6.8783,6.8706,6.8423,6.8783,6.8359,6.7628,6.7628,6.7282,6.6898,6.6898,6.6667,6.632,6.6013,6.5897,6.5897,6.5897,6.5897,6.5897,6.5897,6.5897,6.5897,6.5897,6.5897,6.5897,6.5897,6.5897,6.5743,6.5205,6.5513,6.559,6.4512,6.4743,6.4936,6.4397,6.432,6.432,6.432,6.4051,6.3628,6.3128,6.2781,6.2551,6.2551,6.2897,6.3435,6.4282,6.482,6.532,6.5859,6.5897,6.5897,6.5897,6.5897,6.5897,6.5897,6.5897,6.5897,6.5897,6.5897,6.5897,6.5897,6.5897,6.5897,6.5897,6.5897,6.5897,6.5897,6.5897,6.5897,6.5897,6.5897,6.5897,6.5897,6.5897,6.5897,6.5897,7.6015,7.6015,7.6015,7.6015,7.6015,7.6015,7.6015,7.5245,7.4437,7.3707,7.2783,7.1898,7.1091,7.0937,7.0898,7.0898,7.0898,7.0898,7.0898,7.0898,7.0898,7.0898,7.0898,7.0898,7.0898,7.0898,7.0552,6.9821,6.9821,6.9398,6.8615,6.8615,6.8615,6.8667,6.9436,6.936,6.8667,6.9475,6.936,6.8706,6.9475,6.9321,6.8706,6.9513,6.9283,6.8513,6.8513,6.8475,6.8385,6.8385,6.7821,6.6974,6.6244,6.5974,6.5897,6.5897,6.5897,6.5897,6.5897,6.5897,6.5897,6.5897,6.5897,6.5897,6.5897,6.5897,6.5897,6.5897,6.5897,6.5897,6.5897,6.5897,6.5897,6.5897,6.5897,6.5897,6.5897,6.5205,6.4705,6.4628,6.3897,6.3423,6.3423,6.4205,6.5051,6.582,6.5897,6.5897,6.5897,6.5897,6.5897,6.5897,6.5897,6.5897,6.5897,6.5897,6.5897,6.5897,6.5897,6.5897,6.5897,6.5897,6.5897,6.5897,6.5897,6.5897,6.5897,6.5897,6.5897,6.5897,6.5897,6.5897,6.5897,6.5897,6.5897,6.5897,7.6015,7.6015,7.6015,7.6015,7.6015,7.6015,7.6015,7.5245,7.463,7.4476,7.3129,7.2129,7.1937,7.1321,7.0898,7.0898,7.0898,7.0898,7.0898,7.0898,7.0898,7.0898,7.0898,7.0898,7.0898,7.0898,7.0821,7.0629,7.0629,7.0552,7.036,7.036,7.036,7.036,7.0552,7.0514,7.036,7.0552,7.0514,7.036,7.0552,7.0514,7.0398,7.0552,7.0129,6.9436,6.9436,6.8975,6.8385,6.8385,6.7821,6.7051,6.6898,6.6397,6.5897,6.5897,6.5897,6.5897,6.5897,6.5897,6.5897,6.5897,6.5897,6.5897,6.5897,6.5897,6.5897,6.5897,6.5897,6.5897,6.5897,6.5897,6.5897,6.5897,6.5897,6.5897,6.5897,6.5743,6.5359,6.4666,6.4436,6.432,6.432,6.5128,6.5705,6.5897,6.5897,6.5897,6.5897,6.5897,6.5897,6.5897,6.5897,6.5897,6.5897,6.5897,6.5897,6.5897,6.5897,6.5897,6.5897,6.5897,6.5897,6.5897,6.5897,6.5897,6.5897,6.5897,6.5897,6.5897,6.5897,6.5897,6.5897,6.5897,6.5897,6.5897,7.6015,7.6015,7.6015,7.6015,7.6015,7.5861,7.5438,7.4976,7.4399,7.3591,7.2745,7.2052,7.1629,7.1168,7.0898,7.0898,7.0898,7.0898,7.0898,7.0898,7.1091,7.1514,7.1129,7.1091,7.1514,7.1091,7.0898,7.0898,7.0898,7.0898,7.0898,7.0898,7.0898,7.0898,7.0898,7.0898,7.0898,7.0898,7.0898,7.0898,7.0898,7.0898,7.0898,7.0898,7.0629,7.0283,7.0283,6.9975,6.9552,6.9167,6.8706,6.8282,6.7859,6.7436,6.7013,6.659,6.6474,6.6397,6.6013,6.5897,6.5897,6.5897,6.5897,6.5897,6.5897,6.5897,6.5897,6.5897,6.5897,6.5897,6.5897,6.5897,6.5897,6.5897,6.5897,6.5897,6.5897,6.5897,6.5743,6.5282,6.5205,6.5205,6.5205,6.5628,6.5897,6.5897,6.5897,6.5897,6.5897,6.5897,6.5897,6.5897,6.5897,6.5897,6.5897,6.5897,6.5897,6.5897,6.5897,6.5897,6.5897,6.5897,6.5897,6.5897,6.5897,6.5897,6.5897,6.5897,6.5897,6.5897,6.5897,6.5897,6.5897,6.5897,6.5897,6.5897,7.6015,7.6015,7.6015,7.6015,7.5861,7.5515,7.4822,7.4591,7.4014,7.2591,7.2399,7.2091,7.1206,7.1129,7.1052,7.0898,7.1052,7.1052,7.0898,7.0898,7.1206,7.1937,7.1283,7.1321,7.2168,7.136,7.0898,7.0898,7.0898,7.0898,7.0898,7.0898,7.0898,7.0898,7.0898,7.0898,7.0898,7.0898,7.0898,7.0898,7.0898,7.0898,7.0898,7.0898,7.0898,7.0898,7.0898,7.0898,7.0783,7.0129,6.9821,6.959,6.8859,6.8513,6.8282,6.7513,6.7205,6.6936,6.6282,6.6013,6.5897,6.5897,6.5897,6.5897,6.5897,6.5897,6.5897,6.5897,6.5897,6.5897,6.5897,6.5897,6.5897,6.5897,6.5897,6.5897,6.5897,6.5897,6.5897,6.5897,6.5897,6.5897,6.5897,6.5897,6.5897,6.5897,6.5897,6.5897,6.5897,6.5897,6.5897,6.5897,6.5897,6.5897,6.5897,6.5897,6.5897,6.5897,6.5897,6.5897,6.5897,6.5897,6.5897,6.5897,6.5897,6.5897,6.5897,6.5897,6.5897,6.5897,6.5897,6.5897,6.5897,6.5897,6.5897,6.5897,7.6015,7.6015,7.6015,7.6015,7.5399,7.4861,7.4707,7.413,7.3591,7.336,7.3322,7.2976,7.2129,7.2014,7.1706,7.0975,7.1591,7.1706,7.0937,7.0898,7.0937,7.1052,7.0975,7.1321,7.2168,7.136,7.0898,7.0898,7.0898,7.0898,7.0898,7.0898,7.0898,7.0898,7.0898,7.0898,7.0898,7.0898,7.0898,7.0898,7.0898,7.0898,7.0898,7.0898,7.0898,7.0898,7.0898,7.0898,7.0898,7.0783,7.0283,6.9667,6.9552,6.9013,6.8398,6.8282,6.7705,6.709,6.6974,6.6436,6.5897,6.5897,6.5897,6.5897,6.5897,6.5897,6.5897,6.5897,6.5897,6.5897,6.5897,6.5897,6.5897,6.5897,6.5897,6.5897,6.5897,6.5897,6.5897,6.5897,6.5897,6.5897,6.5897,6.5897,6.5897,6.5897,6.5897,6.5897,6.5897,6.5897,6.5897,6.5897,6.5897,6.5897,6.5897,6.5897,6.5897,6.5897,6.5897,6.5897,6.5897,6.5897,6.5897,6.5897,6.5897,6.5897,6.5897,6.5897,6.5897,6.5897,6.5897,6.5897,6.5897,6.5897,6.5897,6.5897,7.6015,7.6015,7.6015,7.6015,7.5668,7.5245,7.4784,7.4399,7.4014,7.3553,7.3514,7.3168,7.2283,7.2206,7.2245,7.236,7.2706,7.2552,7.1668,7.1629,7.1822,7.2322,7.1898,7.2014,7.2899,7.2052,7.1398,7.0898,7.0898,7.0898,7.0898,7.0898,7.0898,7.0898,7.0898,7.0898,7.0898,7.0898,7.0898,7.0898,7.0898,7.0898,7.0898,7.0898,7.0898,7.0898,7.0898,7.0898,7.0898,7.0898,7.0667,7.036,7.036,7.0129,6.9706,6.9244,6.8859,6.8436,6.7975,6.7205,6.6551,6.6551,6.6244,6.5897,6.5897,6.5897,6.5897,6.5897,6.5897,6.5897,6.5897,6.5897,6.5897,6.5897,6.5897,6.5897,6.5897,6.5897,6.5897,6.5897,6.5897,6.5897,6.5897,6.5897,6.5897,6.5897,6.5897,6.5897,6.5897,6.5897,6.5897,6.5897,6.5897,6.5897,6.5897,6.5897,6.5897,6.5897,6.5897,6.5897,6.5897,6.5897,6.5897,6.5897,6.5897,6.5897,6.5897,6.5897,6.5897,6.5897,6.5897,6.5897,6.5897,6.5897,6.5897,6.5897]}]]